[[{"header":{"parameterUnit":"m.s-1","parameterCategory":1,"la1":30.6,"la2":28.766,"lo1":-90.7593,"lo2":-88.6598,"dy":0.0162,"dx":0.0183,"nx":116,"ny":114,"refTime":"2023-08-16T06:00:00:Z","depth":0,"parameterNumber":2,"parameterNumberName":"U-component_of_WINDS"},"data":[0.0,0.0,0.0,0.0,0.0,0.0,0.0,0.0,0.0,0.0,0.0,0.0,0.0,0.0,0.0,0.0,0.0,0.0,0.0,0.0,0.0,0.0,0.0,0.0,0.0,0.0,0.0,0.0,0.0,0.0,0.0,0.0,0.0,0.0,0.0,0.0,0.0,0.0,0.0,0.0,0.0,0.0,0.0,0.0,0.0,0.0,0.0,0.0,0.0,0.0,0.0,0.0,0.0,0.0,0.0,0.0,0.0,0.0,0.0,0.0,0.0,0.0,0.0,0.0,0.0,0.0,0.0,0.0,0.0,0.0,0.0,0.0,0.0,0.0,0.0,0.0,0.0,0.0,0.0,0.0,0.0,0.0,0.0,0.0,0.0,0.0,0.0,0.0,0.0,0.0,0.0,0.0,0.0,0.0,0.0,0.0,0.0,0.0,0.0,0.0,0.0,0.0,0.0,0.0,0.0,0.0,0.0,0.0,0.0,0.0,0.0,0.0,0.0,0.0,0.0,0.0,0.0,0.0,0.0,0.0,0.0,0.0,0.0,0.0,0.0,0.0,0.0,0.0,0.0,0.0,0.0,0.0,0.0,0.0,0.0,0.0,0.0,0.0,0.0,0.0,0.0,0.0,0.0,0.0,0.0,0.0,0.0,0.0,0.0,0.0,0.0,0.0,0.0,0.0,0.0,0.0,0.0,0.0,0.0,0.0,0.0,0.0,0.0,0.0,0.0,0.0,0.0,0.0,0.0,0.0,0.0,0.0,0.0,0.0,0.0,0.0,0.0,0.0,0.0,0.0,0.0,0.0,0.0,0.0,0.0,0.0,0.0,0.0,0.0,0.0,0.0,0.0,0.0,0.0,0.0,0.0,0.0,0.0,0.0,0.0,0.0,0.0,0.0,0.0,0.0,0.0,0.0,0.0,0.0,0.0,0.0,0.0,0.0,0.0,0.0,0.0,0.0,0.0,0.0,0.0,0.0,0.0,0.0,0.0,0.0,0.0,0.0,0.0,0.0,0.0,0.0,0.0,0.0,0.0,0.0,0.0,0.0,0.0,0.0,0.0,0.0,0.0,0.0,0.0,0.0,0.0,0.0,0.0,0.0,0.0,0.0,0.0,0.0,0.0,0.0,0.0,0.0,0.0,0.0,0.0,0.0,0.0,0.0,0.0,0.0,0.0,0.0,0.0,0.0,0.0,0.0,0.0,0.0,0.0,0.0,0.0,0.0,0.0,0.0,0.0,0.0,0.0,0.0,0.0,0.0,0.0,0.0,0.0,0.0,0.0,0.0,0.0,0.0,0.0,0.0,0.0,0.0,0.0,0.0,0.0,0.0,0.0,0.0,0.0,0.0,0.0,0.0,0.0,0.0,0.0,0.0,0.0,0.0,0.0,0.0,0.0,0.0,0.0,0.0,0.0,0.0,0.0,0.0,0.0,0.0,0.0,0.0,0.0,0.0,0.0,0.0,0.0,0.0,0.0,0.0,0.0,0.0,0.0,0.0,0.0,0.0,0.0,0.0,0.0,0.0,0.0,0.0,0.0,0.0,0.0,0.0,0.0,0.0,0.0,0.0,0.0,0.0,0.0,0.0,0.0,0.0,0.0,0.0,0.0,0.0,0.0,0.0,0.0,0.0,0.0,0.0,0.0,0.0,0.0,0.0,0.0,0.0,0.0,0.0,0.0,0.0,0.0,0.0,0.0,0.0,0.0,0.0,0.0,0.0,0.0,0.0,0.0,0.0,0.0,0.0,0.0,0.0,0.0,0.0,0.0,0.0,0.0,0.0,0.0,0.0,0.0,0.0,0.0,0.0,0.0,0.0,0.0,0.0,0.0,0.0,0.0,0.0,0.0,0.0,0.0,0.0,0.0,0.0,0.0,0.0,0.0,0.0,0.0,0.0,0.0,0.0,0.0,0.0,0.0,0.0,0.0,0.0,0.0,0.0,0.0,0.0,0.0,0.0,0.0,0.0,0.0,0.0,0.0,0.0,0.0,0.0,0.0,0.0,0.0,0.0,0.0,0.0,0.0,0.0,0.0,0.0,0.0,0.0,0.0,0.0,0.0,0.0,0.0,0.0,0.0,0.0,0.0,0.0,0.0,0.0,0.0,0.0,0.0,0.0,0.0,0.0,0.0,0.0,0.0,0.0,0.0,0.0,0.0,0.0,0.0,0.0,0.0,0.0,0.0,0.0,0.0,0.0,0.0,0.0,0.0,0.0,0.0,0.0,0.0,0.0,0.0,0.0,0.0,0.0,0.0,0.0,0.0,0.0,0.0,0.0,0.0,0.0,0.0,0.0,0.0,0.0,0.0,0.0,0.0,0.0,0.0,0.0,0.0,0.0,0.0,0.0,0.0,0.0,0.0,0.0,0.0,0.0,0.0,0.0,0.0,0.0,0.0,0.0,0.0,0.0,0.0,0.0,0.0,0.0,0.0,0.0,0.0,0.0,0.0,0.0,0.0,0.0,0.0,0.0,0.0,0.0,0.0,0.0,0.0,0.0,0.0,0.0,0.0,0.0,0.0,0.0,0.0,0.0,0.0,0.0,0.0,0.0,0.0,0.0,0.0,0.0,0.0,0.0,0.0,0.0,0.0,0.0,0.0,0.0,0.0,0.0,0.0,0.0,0.0,0.0,0.0,0.0,0.0,0.0,0.0,0.0,0.0,0.0,0.0,0.0,0.0,0.0,0.0,0.0,0.0,0.0,0.0,0.0,0.0,0.0,0.0,0.0,0.0,0.0,0.0,0.0,0.0,0.0,0.0,0.0,0.0,0.0,0.0,0.0,0.0,0.0,0.0,0.0,0.0,0.0,0.0,0.0,0.0,0.0,0.0,0.0,0.0,0.0,0.0,0.0,0.0,0.0,0.0,0.0,0.0,0.0,0.0,0.0,0.0,0.0,0.0,0.0,0.0,0.0,0.0,0.0,0.0,0.0,0.0,0.0,0.0,0.0,0.0,0.0,0.0,0.0,0.0,0.0,0.0,0.0,0.0,0.0,0.0,0.0,0.0,0.0,0.0,0.0,0.0,0.0,0.0,0.0,0.0,0.0,0.0,0.0,0.0,0.0,0.0,0.0,0.0,0.0,0.0,0.0,0.0,0.0,0.0,0.0,0.0,0.0,0.0,0.0,0.0,0.0,0.0,0.0,0.0,0.0,0.0,0.0,0.0,0.0,0.0,0.0,0.0,0.0,0.0,0.0,0.0,0.0,0.0,0.0,0.0,0.0,0.0,0.0,0.0,0.0,0.0,0.0,0.0,0.0,0.0,0.0,0.0,0.0,0.0,0.0,0.0,0.0,0.0,0.0,0.0,0.0,0.0,0.0,0.0,0.0,0.0,0.0,0.0,0.0,0.0,0.0,0.0,0.0,0.0,0.0,0.0,0.0,0.0,0.0,0.0,0.0,0.0,0.0,0.0,0.0,0.0,0.0,0.0,0.0,0.0,0.0,0.0,0.0,0.0,0.0,0.0,0.0,0.0,0.0,0.0,0.0,0.0,0.0,0.0,0.0,0.0,0.0,0.0,0.0,0.0,0.0,0.0,0.0,0.0,0.0,0.0,0.0,0.0,0.0,0.0,0.0,0.0,0.0,0.0,0.0,0.0,0.0,0.0,0.0,0.0,0.0,0.0,0.0,0.0,0.0,0.0,0.0,0.0,0.0,0.0,0.0,0.0,0.0,0.0,0.0,0.0,0.0,0.0,0.0,0.0,0.0,0.0,0.0,0.0,0.0,0.0,0.0,0.0,0.0,0.0,0.0,0.0,0.0,0.0,0.0,0.0,0.0,0.0,0.0,0.0,0.0,0.0,0.0,0.0,0.0,0.0,0.0,0.0,0.0,0.0,0.0,0.0,0.0,0.0,0.0,0.0,0.0,0.0,0.0,0.0,0.0,0.0,0.0,0.0,0.0,0.0,0.0,0.0,0.0,0.0,0.0,0.0,0.0,0.0,0.0,0.0,0.0,0.0,0.0,0.0,0.0,0.0,0.0,0.0,0.0,0.0,0.0,0.0,0.0,0.0,0.0,0.0,0.0,0.0,0.0,0.0,0.0,0.0,0.0,0.0,0.0,0.0,0.0,0.0,0.0,0.0,0.0,0.0,0.0,0.0,0.0,0.0,0.0,0.0,0.0,0.0,0.0,0.0,0.0,0.0,0.0,0.0,0.0,0.0,0.0,0.0,0.0,0.0,0.0,0.0,0.0,0.0,0.0,0.0,0.0,0.0,0.0,0.0,0.0,0.0,0.0,0.0,0.0,0.0,0.0,0.0,0.0,0.0,0.0,0.0,0.0,0.0,0.0,0.0,0.0,0.0,0.0,0.0,0.0,0.0,0.0,0.0,0.0,0.0,0.0,0.0,0.0,0.0,0.0,0.0,0.0,0.0,0.0,0.0,0.0,0.0,0.0,0.0,0.0,0.0,0.0,0.0,0.0,0.0,0.0,0.0,0.0,0.0,0.0,0.0,0.0,0.0,0.0,0.0,0.0,0.0,0.0,0.0,0.0,0.0,0.0,0.0,0.0,0.0,0.0,0.0,0.0,0.0,0.0,0.0,0.0,0.0,0.0,0.0,0.0,0.0,0.0,0.0,0.0,0.0,0.0,0.0,0.0,0.0,0.0,0.0,0.0,0.0,0.0,0.0,0.0,0.0,0.0,0.0,0.0,0.0,0.0,0.0,0.0,0.0,0.0,0.0,0.0,0.0,0.0,0.0,0.0,0.0,0.0,0.0,0.0,0.0,0.0,0.0,0.0,0.0,0.0,0.0,0.0,0.0,0.0,0.0,0.0,0.0,0.0,0.0,0.0,0.0,0.0,0.0,0.0,0.0,0.0,0.0,0.0,0.0,0.0,0.0,0.0,0.0,0.0,0.0,0.0,0.0,0.0,0.0,0.0,0.0,0.0,0.0,0.0,0.0,0.0,0.0,0.0,0.0,0.0,0.0,0.0,0.0,0.0,0.0,0.0,0.0,0.0,0.0,0.0,0.0,0.0,0.0,0.0,0.0,0.0,0.0,0.0,0.0,0.0,0.0,0.0,0.0,0.0,0.0,0.0,0.0,0.0,0.0,0.0,0.0,0.0,0.0,0.0,0.0,0.0,0.0,0.0,0.0,0.0,0.0,0.0,0.0,0.0,0.0,0.0,0.0,0.0,0.0,0.0,0.0,0.0,0.0,0.0,0.0,0.0,0.0,0.0,0.0,0.0,0.0,0.0,0.0,0.0,0.0,0.0,0.0,0.0,0.0,0.0,0.0,0.0,0.0,0.0,0.0,0.0,0.0,0.0,0.0,0.0,0.0,0.0,0.0,0.0,0.0,0.0,0.0,0.0,0.0,0.0,0.0,0.0,0.0,0.0,0.0,0.0,0.0,0.0,0.0,0.0,0.0,0.0,0.0,0.0,0.0,0.0,0.0,0.0,0.0,0.0,0.0,0.0,0.0,0.0,0.0,0.0,0.0,0.0,0.0,0.0,0.0,0.0,0.0,0.0,0.0,0.0,0.0,0.0,0.0,0.0,0.0,0.0,0.0,0.0,0.0,0.0,0.0,0.0,0.0,0.0,0.0,0.0,0.0,0.0,0.0,0.0,0.0,0.0,0.0,0.0,0.0,0.0,0.0,0.0,0.0,0.0,0.0,0.0,0.0,0.0,0.0,0.0,0.0,0.0,0.0,0.0,0.0,0.0,0.0,0.0,0.0,0.0,0.0,0.0,0.0,0.0,0.0,0.0,0.0,0.0,0.0,0.0,0.0,0.0,0.0,0.0,0.0,0.0,0.0,0.0,0.0,0.0,0.0,0.0,0.0,0.0,0.0,0.0,0.0,0.0,0.0,0.0,0.0,0.0,0.0,0.0,0.0,0.0,0.0,0.0,0.0,0.0,0.0,0.0,0.0,0.0,0.0,0.0,0.0,0.0,0.0,0.0,0.0,0.0,0.0,0.0,0.0,0.0,0.0,0.0,0.0,0.0,0.0,0.0,0.0,0.0,0.0,0.0,0.0,0.0,0.0,0.0,0.0,0.0,0.0,0.0,0.0,0.0,0.0,0.0,0.0,0.0,0.0,0.0,0.0,0.0,0.0,0.0,0.0,0.0,0.0,0.0,0.0,0.0,0.0,-4.0095,0.0,0.0,0.0,0.0,0.0,0.0,0.0,0.0,0.0,0.0,0.0,0.0,0.0,0.0,0.0,0.0,0.0,0.0,0.0,0.0,0.0,0.0,0.0,0.0,0.0,0.0,0.0,0.0,0.0,0.0,0.0,0.0,0.0,0.0,0.0,0.0,0.0,0.0,0.0,0.0,0.0,0.0,0.0,0.0,0.0,0.0,0.0,0.0,0.0,0.0,0.0,0.0,0.0,0.0,0.0,0.0,0.0,0.0,0.0,0.0,0.0,0.0,0.0,0.0,0.0,0.0,0.0,0.0,0.0,0.0,0.0,0.0,0.0,0.0,0.0,0.0,0.0,0.0,0.0,0.0,0.0,0.0,0.0,0.0,0.0,0.0,0.0,0.0,0.0,0.0,0.0,0.0,0.0,0.0,0.0,0.0,0.0,0.0,0.0,0.0,0.0,0.0,0.0,0.0,0.0,0.0,0.0,0.0,0.0,0.0,0.0,0.0,0.0,0.0,0.0,0.0,-4.1354,0.0,0.0,0.0,0.0,0.0,0.0,0.0,0.0,0.0,0.0,0.0,0.0,0.0,0.0,0.0,0.0,0.0,0.0,0.0,0.0,0.0,0.0,0.0,0.0,0.0,0.0,0.0,0.0,0.0,0.0,0.0,0.0,0.0,0.0,0.0,0.0,0.0,0.0,0.0,0.0,0.0,0.0,0.0,0.0,0.0,0.0,0.0,0.0,0.0,0.0,0.0,0.0,0.0,0.0,0.0,0.0,0.0,0.0,0.0,0.0,0.0,0.0,0.0,0.0,0.0,0.0,0.0,0.0,0.0,0.0,0.0,0.0,0.0,0.0,0.0,0.0,0.0,0.0,0.0,0.0,0.0,0.0,0.0,0.0,0.0,0.0,0.0,0.0,0.0,0.0,0.0,0.0,0.0,0.0,0.0,0.0,0.0,0.0,0.0,0.0,0.0,0.0,0.0,0.0,0.0,0.0,0.0,0.0,-4.6255,-4.6941,-4.7614,-4.8217,-4.8493,-4.8355,-4.5837,-4.4716,-4.4527,-4.2509,0.0,0.0,0.0,0.0,0.0,0.0,0.0,0.0,0.0,0.0,0.0,0.0,0.0,0.0,0.0,0.0,0.0,0.0,0.0,0.0,0.0,0.0,0.0,0.0,0.0,0.0,0.0,0.0,0.0,0.0,0.0,0.0,0.0,0.0,0.0,0.0,0.0,0.0,-3.2933,-3.4476,-3.4866,-3.4108,0.0,0.0,0.0,0.0,0.0,0.0,0.0,0.0,0.0,0.0,0.0,0.0,0.0,0.0,0.0,0.0,0.0,0.0,0.0,0.0,0.0,0.0,0.0,0.0,0.0,0.0,0.0,0.0,0.0,0.0,0.0,0.0,0.0,0.0,0.0,0.0,0.0,0.0,0.0,0.0,0.0,0.0,0.0,0.0,-3.7914,-3.8888,0.0,0.0,0.0,0.0,0.0,0.0,0.0,0.0,0.0,0.0,0.0,0.0,0.0,-4.576,-4.5708,-4.7647,-4.8518,-4.829,-5.0321,-5.1373,-5.1494,-5.158,-5.1632,-5.1597,-5.12,0.0,-4.6234,-4.5234,0.0,0.0,0.0,0.0,0.0,0.0,0.0,0.0,0.0,0.0,0.0,0.0,0.0,0.0,0.0,0.0,0.0,0.0,0.0,0.0,0.0,0.0,0.0,0.0,0.0,0.0,0.0,0.0,0.0,0.0,0.0,0.0,0.0,0.0,0.0,0.0,-3.4015,-3.4846,-3.4591,-3.6493,-3.674,-3.5567,-3.4464,-3.3952,-3.3876,-3.1843,0.0,0.0,0.0,0.0,0.0,0.0,0.0,0.0,0.0,0.0,0.0,0.0,0.0,0.0,0.0,0.0,0.0,0.0,0.0,0.0,0.0,0.0,0.0,0.0,0.0,0.0,0.0,0.0,0.0,0.0,0.0,0.0,0.0,0.0,0.0,0.0,0.0,0.0,0.0,-3.6552,-3.909,-3.8962,-3.9928,-4.0097,0.0,0.0,0.0,0.0,0.0,0.0,0.0,0.0,0.0,-4.8494,-4.8696,-4.9126,-4.989,-5.061,-5.1118,-5.1407,-5.2408,-5.3097,-5.3494,-5.3494,-5.3494,-5.3477,-5.3063,-5.1701,-4.9631,-4.7993,-4.6904,-4.6057,0.0,0.0,0.0,0.0,-4.0155,-3.9422,0.0,0.0,0.0,0.0,0.0,0.0,0.0,0.0,0.0,0.0,0.0,0.0,0.0,0.0,0.0,-3.0419,0.0,0.0,0.0,0.0,0.0,0.0,0.0,0.0,0.0,0.0,0.0,0.0,-3.5767,-3.6441,-3.5806,-3.7495,-3.7581,-3.6232,-3.6005,-3.5555,-3.4754,-3.311,-3.1533,0.0,0.0,0.0,0.0,0.0,0.0,0.0,0.0,0.0,0.0,0.0,0.0,0.0,0.0,0.0,0.0,0.0,0.0,0.0,0.0,0.0,0.0,0.0,0.0,0.0,0.0,0.0,0.0,0.0,0.0,0.0,0.0,0.0,0.0,0.0,0.0,0.0,0.0,-3.8629,-4.0646,-3.9571,-4.1603,-4.2271,0.0,0.0,0.0,0.0,0.0,0.0,-4.819,-4.8686,-4.9896,-5.1964,-5.1894,-5.2315,-5.3366,-5.2778,-5.2804,-5.3408,-5.3011,-5.3115,-5.3632,-5.3632,-5.3632,-5.3615,-5.3063,-5.2597,-5.2002,-4.9918,-4.8896,-4.8421,-4.6477,-4.4971,-4.3799,-4.2941,-4.1749,-4.0651,0.0,0.0,0.0,0.0,0.0,0.0,0.0,0.0,0.0,0.0,0.0,0.0,0.0,0.0,-2.8262,-3.0496,-3.0755,-3.0105,0.0,0.0,0.0,0.0,0.0,0.0,0.0,0.0,0.0,-3.3599,-3.5245,-3.5988,-3.5893,-3.646,-3.6615,-3.639,-3.6309,-3.6041,-3.5507,-3.3046,-3.1715,-3.1052,0.0,0.0,0.0,0.0,0.0,0.0,0.0,0.0,0.0,0.0,0.0,0.0,0.0,0.0,0.0,0.0,0.0,0.0,0.0,0.0,0.0,0.0,0.0,0.0,0.0,0.0,0.0,0.0,0.0,0.0,0.0,0.0,0.0,0.0,0.0,0.0,0.0,0.0,0.0,-4.2205,-4.5644,0.0,0.0,0.0,0.0,-4.4875,-4.6561,-4.8296,-4.9986,-5.1506,-5.2927,-5.4218,-5.4865,-5.5007,-5.4686,-5.3835,-5.3366,-5.3391,-5.1925,-5.1252,-5.1287,-5.1287,-5.1287,-5.1287,-5.1235,-5.1554,-5.1932,-5.0521,-4.9395,-4.8524,-4.7495,-4.6143,-4.4544,-4.3133,-4.2045,-4.1188,0.0,0.0,0.0,0.0,0.0,0.0,0.0,0.0,0.0,0.0,0.0,0.0,0.0,-2.6634,-2.7445,-2.8423,-2.9874,-3.004,-2.8413,0.0,0.0,0.0,0.0,0.0,0.0,0.0,-3.3652,-3.5408,-3.5325,-3.5264,-3.5197,-3.5133,-3.4754,-3.4129,-3.3903,-3.39,-3.4047,-3.3396,-3.2353,-3.0969,-2.8942,-2.7465,0.0,0.0,0.0,0.0,0.0,0.0,0.0,0.0,0.0,0.0,0.0,0.0,0.0,0.0,0.0,0.0,0.0,0.0,0.0,0.0,0.0,0.0,0.0,0.0,0.0,0.0,0.0,0.0,0.0,0.0,0.0,0.0,0.0,0.0,0.0,0.0,0.0,-4.4655,-4.7371,0.0,-4.5368,-4.6537,-4.7677,-4.816,-5.0341,-5.2122,-5.3237,-5.4054,-5.4633,-5.4946,-5.4009,-5.3343,-5.314,-5.1839,-5.1219,-5.1218,-5.0666,-5.039,-5.039,-5.039,-5.039,-5.0373,-4.9739,-4.9612,-4.9777,-4.9186,-4.9257,-4.9684,-4.8856,-4.7231,-4.5317,-4.4395,-4.2928,-4.1362,0.0,0.0,0.0,0.0,0.0,0.0,0.0,0.0,0.0,0.0,0.0,-2.4336,-2.5506,-2.6409,-2.6886,-2.6735,-2.8658,-2.9156,-2.75,0.0,0.0,0.0,0.0,0.0,0.0,-3.285,-3.3634,-3.5224,-3.4428,-3.4037,-3.3979,-3.322,-3.271,-3.2379,-3.2265,-3.2086,-3.1932,-3.2397,-3.2026,-3.0978,-2.9114,-2.7922,-2.7206,0.0,0.0,0.0,0.0,0.0,0.0,0.0,0.0,0.0,0.0,0.0,0.0,0.0,0.0,0.0,0.0,0.0,0.0,0.0,0.0,0.0,0.0,0.0,0.0,0.0,0.0,0.0,0.0,0.0,0.0,0.0,0.0,0.0,0.0,-4.4382,-4.6507,-4.5957,-4.886,-4.9818,-4.704,-4.8975,-5.049,-5.0749,-5.2881,-5.4424,-5.4983,-5.5501,-5.5429,-5.4681,-5.3311,-5.2305,-5.1516,-5.0218,-4.9597,-4.9597,-4.9097,-4.8855,-4.8855,-4.8855,-4.8798,-4.8712,-4.7842,-4.754,-4.7615,-4.7079,-4.7301,-4.8118,-4.8416,-4.74,-4.5649,-4.4512,-4.303,-4.1388,0.0,0.0,0.0,0.0,0.0,0.0,0.0,0.0,0.0,0.0,-2.3104,-2.3769,-2.55,-2.6457,-2.6594,-2.5672,-2.7146,-2.7401,-2.5718,-2.5547,0.0,0.0,0.0,0.0,-3.1884,-3.2452,-3.2776,-3.2859,-3.2463,-3.2294,0.0,0.0,0.0,0.0,0.0,0.0,-2.9231,-2.9952,-3.0558,-3.0958,-2.9438,-2.8324,-2.7591,0.0,0.0,0.0,0.0,0.0,0.0,0.0,0.0,0.0,0.0,0.0,0.0,0.0,0.0,0.0,0.0,0.0,0.0,0.0,0.0,0.0,0.0,0.0,0.0,0.0,0.0,0.0,0.0,0.0,0.0,0.0,0.0,0.0,-4.2175,-4.5773,-4.781,-4.6305,-5.0368,-5.2026,-4.8765,-5.1495,-5.3145,-5.2391,-5.3912,-5.492,-5.4925,-5.5747,-5.5313,-5.3372,-5.3069,-5.1996,-5.0093,-4.9151,-4.8675,-4.87,-4.7269,-4.6562,-4.6544,-4.6527,-4.6367,-4.6138,-4.5417,-4.5357,-4.566,-4.4266,-4.3676,-4.383,-4.6096,-4.6484,-4.5417,-4.3397,-4.2175,-4.134,0.0,0.0,0.0,0.0,0.0,0.0,0.0,0.0,0.0,0.0,-2.3105,-2.3769,-2.5506,-2.5912,-2.5951,-2.57,-2.607,-2.6113,-2.5633,0.0,0.0,0.0,0.0,0.0,-3.1948,-3.1476,-3.1427,-3.1879,0.0,0.0,0.0,0.0,0.0,0.0,0.0,0.0,0.0,0.0,-2.6749,-2.7076,-2.7128,-2.7287,-2.7319,0.0,0.0,0.0,0.0,0.0,0.0,0.0,0.0,0.0,0.0,0.0,0.0,0.0,0.0,0.0,0.0,0.0,0.0,0.0,0.0,0.0,0.0,0.0,0.0,0.0,0.0,0.0,0.0,0.0,0.0,0.0,-4.1651,-4.4269,-4.617,-4.848,-5.0281,-5.1114,-5.238,-5.2881,-5.194,-5.2762,-5.3267,-5.3046,-5.4109,-5.4522,-5.3931,-5.3822,-5.3019,-5.1434,-4.9866,-4.857,-4.7576,-4.6741,-4.6323,-4.6355,-4.5941,-4.5458,-4.4923,-4.4819,-4.4474,-4.3872,-4.3423,-4.3335,-4.3433,-4.3478,-4.3483,-4.353,-4.429,-4.3837,-4.2714,-4.2135,-4.106,-3.9703,0.0,0.0,0.0,0.0,0.0,0.0,0.0,0.0,0.0,0.0,-2.1922,-2.2452,-2.0769,-2.221,-2.3326,-2.3356,-2.4754,-2.5636,-2.5605,0.0,0.0,0.0,0.0,-2.9928,-3.0355,-2.978,0.0,0.0,0.0,0.0,0.0,0.0,0.0,0.0,0.0,0.0,0.0,0.0,0.0,0.0,-2.4518,-2.5895,-2.721,-2.6255,-2.5435,-2.4879,-2.5575,-2.5421,-2.512,-2.6497,0.0,0.0,0.0,0.0,0.0,0.0,0.0,0.0,0.0,0.0,0.0,0.0,0.0,0.0,0.0,0.0,0.0,0.0,0.0,0.0,0.0,0.0,0.0,0.0,-4.2152,-4.5718,-4.8539,-5.0067,-5.1307,-5.238,-5.2527,-5.2582,-5.2692,-5.3028,-5.3295,-5.3318,-5.3511,-5.3422,-5.3019,-5.241,-5.1314,-4.9673,-4.8476,-4.7294,-4.6134,-4.5596,-4.5251,-4.4941,-4.4941,-4.4544,-4.3769,-4.3666,-4.3323,-4.2775,-4.2278,-4.2022,-4.1935,-4.2018,-4.1671,0.0,0.0,0.0,0.0,0.0,-3.9519,-3.8574,0.0,0.0,0.0,0.0,0.0,0.0,0.0,0.0,0.0,0.0,0.0,-1.9593,-1.3972,-1.6905,-1.932,-1.9372,-2.2811,-2.4854,0.0,0.0,0.0,-2.6972,-2.7769,-2.8155,0.0,0.0,0.0,0.0,0.0,0.0,0.0,0.0,0.0,0.0,0.0,0.0,0.0,0.0,0.0,0.0,0.0,-2.4056,-2.6608,-2.6441,-2.4231,-2.1519,-2.3497,-2.5552,-2.7252,-2.6451,0.0,0.0,0.0,0.0,0.0,0.0,0.0,0.0,0.0,0.0,0.0,0.0,0.0,0.0,0.0,0.0,0.0,0.0,0.0,0.0,0.0,0.0,0.0,0.0,-4.2324,-4.6499,-4.9864,-5.067,-5.1014,-5.1375,-5.1463,-5.1587,-5.183,-5.2509,-5.2955,-5.3001,-5.2379,-5.2014,-5.2112,0.0,0.0,0.0,0.0,-4.7098,-4.5165,-4.5147,-4.4803,-4.4147,-4.4147,-4.3717,-4.2842,-4.2842,-4.2621,-4.2192,-4.1546,-4.1172,-4.1018,-4.0257,-3.9126,-3.8035,-4.0177,-4.1252,-4.1277,-3.8712,-3.7688,-3.743,0.0,0.0,0.0,0.0,0.0,0.0,0.0,0.0,0.0,-1.5618,-1.4482,-1.3115,-1.2598,-1.3969,-1.4958,-1.4998,-1.8454,-1.9905,0.0,0.0,0.0,0.0,0.0,0.0,0.0,0.0,0.0,0.0,0.0,0.0,0.0,0.0,0.0,0.0,0.0,0.0,0.0,0.0,0.0,0.0,0.0,0.0,-2.3211,-2.3545,-2.2311,-2.0604,-2.1852,-2.3567,-2.5348,-2.6328,-2.7554,-2.8582,-2.8224,0.0,0.0,0.0,0.0,0.0,0.0,0.0,0.0,0.0,0.0,0.0,0.0,0.0,0.0,0.0,0.0,0.0,0.0,0.0,0.0,-3.9895,-4.3,-4.6873,-5.1417,-4.9935,-4.8862,-5.014,-5.0684,-5.0986,-5.1041,-5.1169,-5.1261,-5.1301,-5.1154,-5.1063,-5.1063,-5.0331,-4.9062,-4.7313,-4.6561,-4.5376,-4.3625,-4.3625,-4.3541,-4.3439,0.0,0.0,-4.2018,-4.1818,-4.1342,-4.0713,-4.0459,-4.0341,-4.024,-3.9396,-3.7949,-3.6345,-3.7408,-3.7581,-3.7042,-3.6438,-3.5906,-3.5193,0.0,0.0,0.0,0.0,0.0,0.0,0.0,0.0,0.0,0.0,-1.0336,-0.9597,-0.6484,-0.8837,-1.0724,-1.0869,-1.4253,0.0,0.0,0.0,0.0,0.0,0.0,0.0,0.0,0.0,0.0,0.0,0.0,0.0,0.0,0.0,0.0,0.0,0.0,0.0,0.0,0.0,0.0,0.0,0.0,0.0,-2.0198,-2.1627,-2.1162,-1.9876,-2.0583,-2.1856,-2.3445,-2.4483,-2.5738,-2.6862,-2.7236,-2.8105,-2.9031,0.0,0.0,0.0,0.0,0.0,0.0,0.0,0.0,0.0,0.0,0.0,0.0,0.0,0.0,-3.6678,-3.8197,0.0,-4.4084,-4.4103,-4.5472,-4.7334,-4.9761,-4.7306,-4.6205,-4.8693,-4.8733,-4.8956,-5.0006,-5.0098,-5.0281,-5.0765,-5.0417,-5.0196,-5.0196,-4.9172,-4.7873,-4.6362,-4.5632,-4.4518,-4.2995,-4.3011,-4.2788,-4.2412,-4.2328,-4.1884,-4.1049,-4.0899,-4.0595,-4.0188,-4.0138,-3.9868,-3.9328,-3.777,-3.6534,-3.5577,-3.5335,-3.527,-3.5248,-3.4785,-3.4403,-3.3982,0.0,0.0,0.0,0.0,0.0,0.0,0.0,0.0,0.0,0.0,0.0,-0.6054,-0.0332,-0.364,-0.6477,0.0,0.0,0.0,0.0,0.0,0.0,0.0,0.0,0.0,0.0,0.0,0.0,0.0,0.0,0.0,0.0,0.0,0.0,0.0,0.0,0.0,0.0,0.0,0.0,0.0,0.0,0.0,-1.7216,-1.9127,-1.9453,-1.8967,-1.9424,-2.0385,-2.1597,-2.2201,-2.3365,-2.4799,-2.5952,-2.68,-2.7605,-2.8788,-2.857,0.0,0.0,0.0,0.0,0.0,0.0,0.0,0.0,0.0,-4.3114,-4.3529,-4.1629,-4.0662,-4.2987,-4.5364,-4.689,-4.6672,-4.6716,-4.6775,-4.6757,-4.4548,-4.3932,-4.67,-4.677,-4.7208,-4.8769,-4.9044,-4.9431,-5.0189,-4.9661,-4.9294,-4.9294,-4.8034,-4.6697,-4.5383,-4.4678,-4.368,-4.2347,-4.2347,-4.2022,-4.1356,-4.122,-4.083,-4.0288,-4.0102,-4.0002,-4.007,-3.9885,-3.9211,-3.8153,-3.639,-3.5364,-3.4859,-3.3841,-3.3713,-3.4014,-3.3516,-3.3215,-3.3021,0.0,0.0,0.0,0.0,0.0,0.0,0.0,0.0,0.0,0.0,0.0,0.0,0.0,0.0,0.0,0.0,0.0,0.0,0.0,0.0,0.0,0.0,0.0,0.0,0.0,0.0,0.0,0.0,0.0,0.0,0.0,0.0,0.0,0.0,0.0,0.0,0.0,0.0,0.0,0.0,0.0,0.0,-1.3792,-1.4279,-1.5586,-1.7252,-1.836,-1.9127,-1.9789,-2.0457,-2.1753,-2.3334,-2.4486,-2.5741,-2.6845,-2.7256,0.0,-2.5806,-2.7476,-2.8363,-2.9581,-3.2542,-3.5185,-3.7633,0.0,-4.0591,-4.1305,-4.3243,-4.2858,-4.2345,-4.2669,-4.3593,-4.3986,-4.3075,-4.3191,-4.3417,-4.345,-4.3126,-4.3027,-4.3447,-4.5984,-4.756,-4.7117,-4.7718,-4.8214,-4.8306,-4.8233,-4.8178,-4.8178,-4.6975,-4.5681,-4.4476,-4.33,-4.2025,-4.0791,-4.0791,-4.0739,-4.0588,-3.9859,-3.9744,-4.0271,-3.9378,-3.9345,-3.9867,-3.911,-3.792,-3.6484,-3.622,-3.5086,-3.3414,-3.3309,-3.2662,-3.1928,-3.2437,-3.2258,-3.1659,0.0,0.0,0.0,0.0,0.0,0.0,0.0,0.0,0.0,0.0,0.0,0.0,0.0,0.0,0.0,0.0,0.0,0.0,-0.4423,-0.7393,0.0,0.0,0.0,0.0,0.0,0.0,0.0,0.0,0.0,0.0,0.0,0.0,0.0,0.0,0.0,0.0,0.0,0.0,0.0,0.0,0.0,0.0,-1.3026,-1.3171,-1.4026,-1.5372,-1.7031,-1.7607,0.0,0.0,-1.9768,-2.0637,-2.2038,-2.3014,-2.3769,-2.4442,-2.4655,0.0,-2.7778,-2.9739,-3.1294,-3.2488,-3.3925,-3.578,-3.8564,-3.9126,-3.9598,-4.1538,-4.2305,-4.2589,-4.2449,-4.2518,-4.2399,0.0,-4.2019,-4.2251,-4.2512,-4.2562,-4.2555,-4.2541,-4.4415,-4.5588,-4.5381,-4.6072,-4.6585,-4.6606,-4.6606,-4.6606,-4.6606,-4.5391,-4.4109,-4.2873,-4.2002,-4.0922,-3.9642,-4.0067,-4.0238,-4.0138,-3.9783,-3.975,-3.9935,-3.953,-3.9277,-3.911,-3.8221,-3.7252,-3.6137,-3.5317,-3.4494,-3.3646,-3.3002,-3.2367,-3.1868,-3.1882,-3.1706,-3.1319,0.0,0.0,0.0,0.0,0.0,0.0,0.0,0.0,0.0,0.0,0.0,0.0,0.0,0.0,0.0,0.0,0.0,0.0,0.0,-0.3349,0.0,0.0,0.0,0.0,0.0,0.0,0.0,0.0,0.0,0.0,0.0,0.0,0.0,0.0,0.0,0.0,0.0,0.0,0.0,0.0,0.0,0.0,-1.3602,-1.3155,-1.3387,-1.4181,-1.5797,-1.6165,0.0,0.0,-1.7967,-1.839,-1.9889,-2.0594,-2.1097,-2.2128,-2.3092,-2.4399,-2.6931,-2.9397,-3.1304,-3.1668,-3.2399,-3.366,-3.5959,-3.7166,-3.8188,-3.9764,-4.0933,-4.1668,-4.18,-4.1505,-4.1313,-4.1507,-4.1644,-4.1783,-4.2151,-4.1984,-4.1828,-4.1944,-4.2907,-4.3534,-4.3441,-4.4663,-4.5467,-4.5526,-4.5526,-4.5417,-4.5199,-4.3992,-4.278,-4.1623,-4.0889,-3.9959,-3.8812,-3.9394,-3.9531,-3.9228,-3.9026,-3.8975,-3.9075,-3.9058,-3.8622,-3.7853,-3.717,-3.6406,-3.5628,-3.4561,-3.3933,-3.3594,-3.2547,-3.1925,-3.1505,-3.1031,-3.0919,-3.0834,0.0,0.0,0.0,0.0,0.0,0.0,0.0,0.0,0.0,0.0,0.0,0.0,0.0,0.0,0.0,0.0,0.0,0.0,0.0,-0.091,-0.142,0.0,0.0,0.0,0.0,0.0,0.0,0.0,0.0,0.0,0.0,0.0,0.0,0.0,0.0,0.0,0.0,0.0,0.0,0.0,0.0,0.0,-1.5339,-1.3594,-1.3278,-1.3915,-1.4768,0.0,0.0,0.0,-1.6596,-1.7262,-1.8324,-1.9083,0.0,-2.0841,-2.1863,-2.3077,-2.5122,-2.6857,-2.8448,-2.9764,-3.1295,-3.2788,-3.3802,-3.5458,-3.7151,-3.8349,-3.8764,-3.9291,-4.0431,-4.0487,-4.0587,-4.1303,-4.1657,-4.1917,-4.1917,-4.1154,-4.0724,-4.1074,-4.1765,-4.189,0.0,-4.3678,-4.5309,-4.5309,-4.5309,-4.4965,-4.4168,-4.2925,-4.1877,-4.1034,-3.9981,-3.9059,-3.8351,-3.8518,-3.8271,-3.7534,-3.6863,-3.6896,-3.7551,-3.7436,-3.6904,-3.6059,-3.5794,-3.5251,-3.453,-3.4201,-3.3507,-3.2579,-3.188,-3.1043,-3.0068,-2.9392,-2.9554,-2.998,0.0,0.0,0.0,0.0,0.0,0.0,0.0,0.0,0.0,0.0,0.0,0.0,0.0,0.0,0.0,0.0,0.0,0.0,0.0,0.086,0.0465,-0.0562,0.0,0.0,0.0,0.0,0.0,0.0,0.0,0.0,0.0,0.0,0.0,0.0,0.0,0.0,0.0,0.0,0.0,0.0,0.0,0.0,-1.4935,-1.3726,-1.3729,-1.4439,0.0,0.0,0.0,0.0,-1.5901,-1.6213,-1.7374,-1.7906,-1.8336,-1.9445,-2.0707,-2.2077,-2.3687,-2.547,-2.6961,-2.7433,-2.8958,-3.0613,-3.1717,-3.2945,-3.4455,-3.6518,-3.6254,-3.6106,-3.7504,-3.7733,-3.7992,-3.8868,-3.9975,-4.092,-4.1472,-4.1279,-4.0926,-4.0475,-4.141,0.0,0.0,0.0,0.0,-4.3355,-4.2817,-4.2404,-4.2135,-4.1207,-4.0188,-3.9111,-3.9213,-3.8632,-3.7354,-3.7916,-3.7947,-3.7369,-3.7036,-3.7003,-3.7253,-3.7203,-3.6738,-3.6009,-3.5695,-3.4906,-3.384,-3.3551,-3.295,-3.2139,-3.1283,-3.0674,-3.0068,-2.8808,-2.8408,-2.8469,0.0,0.0,0.0,0.0,0.0,0.0,0.0,0.0,0.0,0.0,0.0,0.0,0.0,0.0,0.0,0.0,0.0,0.0,0.0,0.0,0.2494,0.173,0.1491,0.0,0.0,0.0,0.0,0.0,0.0,0.0,0.0,0.0,0.0,0.0,0.0,0.0,0.0,0.0,0.0,0.0,0.0,0.0,-1.4253,-1.3675,-1.3916,0.0,0.0,0.0,0.0,-1.5114,-1.5652,-1.5949,-1.6809,-1.7451,-1.8048,-1.8836,-2.0048,-2.1409,-2.2613,-2.3881,-2.4972,-2.5348,-2.679,-2.8414,-2.9311,-3.0561,-3.2142,-3.4027,-3.3712,-3.3524,-3.5052,-3.569,-3.6243,-3.6957,-3.8419,-3.9799,-4.063,-4.0473,-4.0324,-4.0464,-4.1288,-4.1886,0.0,0.0,0.0,-4.2305,-4.2037,-4.1573,-4.0717,-4.0449,-3.9708,-3.8351,-3.8831,-3.8529,-3.7291,-3.7393,-3.7107,-3.6438,-3.6257,-3.6158,-3.6158,-3.5844,-3.5416,-3.4955,-3.4398,-3.3665,-3.2803,-3.2515,-3.2031,-3.1373,-3.0394,-2.9827,-2.9425,-2.8089,-2.7511,-2.7389,0.0,0.0,0.0,0.0,0.0,0.0,0.0,0.0,0.0,0.0,0.0,0.0,0.0,0.0,0.0,0.0,0.0,0.0,0.0,0.0,0.0,0.4517,0.3786,0.3265,0.2998,0.0,0.0,0.0,0.0,0.0,0.0,0.0,0.0,0.0,0.0,0.0,0.0,0.0,0.0,0.0,0.0,0.0,-1.3644,-1.3597,0.0,0.0,0.0,0.0,0.0,0.0,-1.582,-1.6335,-1.6629,-1.7623,-1.8753,-1.8879,-1.9838,-2.0994,-2.1728,-2.2146,-2.2535,-2.3443,-2.492,-2.6222,-2.6576,-2.8329,-3.0162,-3.104,-3.1115,-3.1506,0.0,0.0,-3.526,-3.5685,-3.7267,-3.8722,-3.9534,-3.8987,-3.92,0.0,0.0,0.0,0.0,0.0,0.0,-4.2169,0.0,-4.2335,-4.0107,-4.057,-4.0232,-3.8734,-3.8878,-3.8569,-3.779,-3.6825,-3.5894,-3.4899,-3.4561,-3.4448,-3.4415,-3.3453,-3.3032,-3.2999,-3.2032,-3.1566,-3.1534,-3.1258,-3.0864,-3.0335,-2.9348,-2.8695,-2.8136,-2.7141,-2.6779,-2.6727,0.0,0.0,0.0,0.0,0.0,0.0,0.0,0.0,0.0,0.0,0.0,0.0,0.0,0.0,0.0,0.0,0.0,0.0,0.0,0.0,0.0,0.0,0.0,0.0,0.0,0.0,0.0,0.0,0.0,0.0,0.0,0.0,0.0,0.0,0.0,0.0,0.0,0.0,0.0,0.0,0.0,0.0,-1.5498,0.0,0.0,0.0,0.0,0.0,0.0,0.0,-1.5846,-1.6598,-1.6559,-1.7235,-1.8058,-1.8099,-1.8892,-1.9834,-2.0032,-2.0763,-2.1598,-2.1854,-2.2938,-2.4071,-2.4611,-2.6094,-2.7664,-2.886,-2.8934,-2.9138,-3.0259,-3.1842,-3.3456,-3.4906,-3.7529,0.0,-4.1309,-4.1408,0.0,-4.218,-4.1647,-4.1233,-4.1225,-4.1816,0.0,0.0,-4.1947,-4.181,-4.1209,-3.9164,-3.8099,-3.8272,-3.8286,-3.758,-3.5977,-3.503,-3.4595,-3.4594,-3.3811,-3.3453,-3.3437,-3.2658,-3.2286,-3.227,-3.1806,-3.1342,-3.0814,-3.0593,-3.0021,-2.9264,-2.8771,-2.8137,-2.7484,-2.6951,-2.6486,-2.6111,0.0,0.0,0.0,0.0,0.0,0.0,0.0,0.0,0.0,0.0,0.0,0.0,0.0,0.0,0.0,0.0,0.0,0.0,0.0,0.0,0.0,0.0,0.0,0.0,0.0,0.0,0.0,0.0,0.0,0.0,0.0,0.0,0.0,0.0,0.0,0.0,0.0,0.0,0.0,0.0,0.0,0.0,0.0,0.0,0.0,0.0,0.0,0.0,0.0,0.0,0.0,-1.7086,-1.7503,-1.806,-1.848,-1.848,-1.8703,-1.8975,-1.8975,-1.9299,-1.9768,-2.0221,-2.1181,-2.2189,-2.2927,-2.4309,-2.5799,-2.7147,-2.7247,-2.7467,-2.8664,-3.0716,-3.2598,0.0,0.0,0.0,-4.0599,-4.1181,-4.1435,-4.1318,-4.1511,0.0,-4.1652,-4.1442,-4.1297,0.0,-4.2106,-4.2115,-4.0936,-3.9223,-3.8196,-3.7947,-3.7988,-3.7073,-3.5203,-3.4134,-3.3627,-3.3689,-3.2853,-3.2418,-3.2402,-3.1598,-3.1229,-3.1197,0.0,-3.0196,-2.9831,-2.9675,-2.9312,-2.8795,-2.8462,-2.7894,-2.7246,-2.6864,-2.6365,-2.5893,0.0,0.0,0.0,0.0,0.0,0.0,0.0,0.0,0.0,0.0,0.0,0.0,0.0,0.0,0.0,0.0,0.0,0.0,0.0,0.0,0.0,0.0,0.0,0.0,0.0,0.0,0.0,0.0,0.0,0.0,0.0,0.0,0.0,0.0,0.0,0.0,0.0,0.0,0.0,0.0,0.0,0.0,0.0,0.0,0.0,0.0,0.0,0.0,0.0,0.0,-1.9044,-1.7843,-1.8818,-1.9298,-1.9443,-1.9234,-1.8765,-1.8285,-1.8232,-1.7929,-1.7912,-1.8839,-1.977,-2.0677,-2.1641,-2.2932,-2.4298,-2.5713,-2.5978,-2.6364,-2.7839,-3.0194,-3.2174,-3.2891,-3.5641,-3.8025,-3.9067,-3.9878,-4.0201,-3.9825,-4.1042,-4.202,-4.2343,-4.1665,-4.1167,-4.0914,-4.178,-4.1472,-3.953,-3.925,-3.8579,-3.7404,-3.7265,-3.6457,-3.4861,-3.3618,-3.2854,-3.2635,-3.1819,-3.1406,-3.139,-3.045,-3.0038,-2.9959,-2.9187,-2.8873,-2.8873,-2.8826,-2.8794,-2.8747,-2.8381,-2.7845,-2.7195,-2.6811,-2.6297,-2.5729,0.0,0.0,0.0,0.0,0.0,0.0,0.0,0.0,0.0,0.0,-0.6152,0.1263,0.0,0.0,0.0,0.0,0.0,0.0,0.0,0.0,0.0,0.0,0.0,0.0,0.0,0.0,0.0,0.0,0.0,0.0,0.0,0.0,0.0,0.0,0.0,0.0,0.0,0.0,0.0,0.0,0.0,0.0,0.0,0.0,0.0,0.0,0.0,0.0,0.0,0.0,-2.0257,-1.9159,-1.9311,-1.9542,-1.9512,-1.8408,-1.799,-1.7813,-1.7303,-1.7344,-1.7733,-1.8643,-1.9216,-1.9889,-2.1007,-2.2053,0.0,-2.4328,-2.5346,-2.6368,-2.7369,-2.9246,-3.1391,-3.3737,-3.5786,-3.7835,-4.0109,-4.056,-4.0702,0.0,-4.0544,-4.1215,-4.3086,-4.3139,0.0,0.0,-3.6557,-3.4775,-3.6801,-3.5752,-3.5088,-3.4979,-3.4335,-3.4025,-3.4088,-3.2597,-3.2061,-3.2348,-3.1037,-3.0402,-3.0242,-2.947,-2.9124,-2.9014,-2.8889,0.0,-2.8842,-2.8794,-2.8747,-2.8636,-2.8573,-2.783,-2.6782,-2.6745,-2.6054,-2.5106,0.0,0.0,0.0,0.0,0.0,0.0,0.0,0.0,-2.0825,-1.8023,-1.3222,-0.7121,0.047,0.1164,0.0,0.0,0.0,0.0,0.0,0.0,0.0,0.0,0.0,0.0,0.0,0.0,0.0,0.0,0.0,0.0,0.0,0.0,0.0,0.0,0.0,0.0,0.0,0.0,0.0,0.0,0.0,0.0,0.0,0.0,0.0,0.0,0.0,0.0,0.0,0.0,-2.1931,-2.0668,-2.0769,-2.0443,-1.9893,-1.923,-1.8452,-1.7741,-1.744,-1.7257,-1.7435,-1.864,-1.9137,-1.9636,-2.0955,0.0,0.0,-2.4082,-2.4773,-2.5605,-2.7195,-2.8722,-3.0427,-3.2559,-3.5094,-3.7241,-3.8448,-3.9835,-4.0429,-3.9592,-4.0081,-4.0555,-4.0826,-4.0926,-3.9895,-3.7193,-3.358,-3.2547,-3.5011,-3.4459,-3.4145,-3.4233,-3.3453,-3.3152,-3.3377,-3.2002,-3.1366,-3.1347,-3.0445,-2.9798,-2.9422,-2.9061,-2.8842,-2.8794,-2.8747,-2.8684,-2.8684,-2.8604,-2.8541,-2.8493,-2.8493,-2.7745,-2.6634,-2.6366,-2.5519,-2.4462,0.0,0.0,0.0,0.0,0.0,0.0,0.0,-2.554,-2.4103,-2.0011,-1.9512,-1.5972,-0.6594,-0.4773,-0.2123,0.0,0.0,0.0,0.0,0.0,0.0,0.0,0.0,0.0,0.0,0.0,0.0,0.6836,0.0,0.0,0.0,0.0,0.0,0.0,0.0,0.0,0.0,0.0,0.0,0.0,0.0,0.0,0.0,0.0,0.0,0.0,0.0,0.0,0.0,0.0,-2.3363,-2.2171,-2.2267,-2.1513,-2.0457,-2.0128,-1.917,-1.8171,-1.7868,-1.7417,-1.7343,-1.8768,-1.9018,-1.9378,-2.1103,-2.172,-2.2395,-2.399,-2.4257,-2.482,-2.6911,-2.8041,-2.9219,-3.092,-3.3555,-3.5648,-3.6366,-3.8319,-3.9291,-3.8383,-3.9431,0.0,-3.8474,-3.85,0.0,-3.3663,-3.215,-3.2004,-3.3447,-3.3665,-3.3727,-3.3571,-3.2951,-3.2624,-3.2586,-3.1584,-3.0925,-3.0559,-3.0011,-2.9454,-2.8951,-2.8873,-2.8795,-2.87,-2.8589,-2.8589,-2.8541,-2.8444,-2.8411,-2.8396,-2.8242,-2.7549,-2.6557,-2.5814,-2.4883,-2.3892,0.0,0.0,0.0,0.0,0.0,0.0,0.0,-2.5546,-2.5354,-2.4938,-2.4885,-2.2728,-1.7075,-1.2345,-0.7509,0.0,0.0,0.0,0.0,0.0,0.0,0.0,0.0,0.0,0.0,0.0,0.0,0.7085,0.689,0.0,0.0,0.0,0.0,0.0,0.0,-0.3336,0.0,0.0,0.0,0.0,0.0,0.0,0.0,0.0,0.0,0.0,0.0,0.0,0.0,0.0,0.0,-2.3622,-2.3137,-2.2346,-2.1308,-1.9969,-1.9594,-1.9338,-1.8139,-1.7768,-1.7939,-1.8852,-1.8559,-1.8702,-2.1284,0.0,-2.1541,-2.3386,-2.3967,-2.4582,-2.6063,-2.6621,-2.7601,-2.9925,-3.0777,-3.2204,-3.5285,-3.6027,-3.6725,-3.8062,0.0,0.0,-3.8218,-3.8255,-3.6888,-3.3621,-3.2528,-3.1926,-3.1653,-3.2361,-3.2444,-3.1739,-3.1734,-3.1699,-3.1619,-3.123,-3.0925,-3.0747,-2.9941,-2.9425,-2.9259,-2.8795,-2.8589,-2.846,-2.8396,-2.8396,0.0,-2.8411,-2.8411,-2.835,-2.7734,-2.7079,-2.6278,-2.511,-2.4269,-2.3499,0.0,0.0,0.0,0.0,0.0,0.0,-2.5651,-2.5645,-2.5616,-2.559,-2.5636,-2.4864,-2.2757,-2.0717,-1.6207,0.0,0.0,0.0,0.0,0.0,0.0,0.0,0.0,0.0,0.0,0.0,0.0,0.5113,0.5257,0.0,0.0,0.0,0.0,0.0,0.0,-0.8902,-1.2298,0.0,0.0,0.0,0.0,0.0,0.0,0.0,0.0,0.0,0.0,0.0,-2.4513,0.0,0.0,0.0,-2.3608,-2.314,0.0,0.0,-2.0261,-1.9756,-1.8775,-1.879,-1.9141,-1.9528,-1.9801,-2.0314,-2.173,0.0,-2.2354,-2.3414,-2.3443,-2.3927,-2.6107,-2.6267,-2.6757,-2.8836,0.0,0.0,-3.3316,-3.4443,-3.5507,-3.6616,-3.7036,-3.7479,0.0,0.0,-3.4772,-3.352,-3.2851,-3.2249,-3.1593,-3.1807,-3.1824,-3.1534,-3.1538,-3.1538,-3.1517,-3.1385,-3.1117,-3.0788,-3.0166,-2.9677,-2.9289,-2.8795,-2.8541,-2.8411,-2.8411,-2.8181,0.0,-2.7796,-2.7503,-2.7057,-2.678,-2.6068,-2.5081,-2.4249,-2.3385,-2.242,0.0,0.0,0.0,0.0,0.0,-2.57,-2.5698,-2.5698,-2.5677,-2.5631,-2.5673,-2.5677,-2.5603,-2.5602,-2.2705,-1.5505,0.0,0.0,0.0,0.0,0.0,0.0,0.0,0.0,0.0,0.0,0.2329,0.1421,0.0237,-0.2105,0.0,0.0,-0.7908,-0.9943,0.0,0.0,0.0,0.0,0.0,0.0,0.0,0.0,0.0,0.0,0.0,0.0,0.0,0.0,0.0,0.0,0.0,0.0,0.0,0.0,0.0,0.0,-2.1224,-2.0671,-1.9872,-1.9976,-2.0321,-2.0391,-2.0747,-2.1327,-2.2211,-2.2434,-2.2678,-2.3386,-2.3136,-2.3572,-2.6012,-2.6106,-2.6401,0.0,0.0,-3.1144,-3.2007,-3.3368,-3.474,-3.5937,0.0,-3.6667,-3.7424,-3.4582,-3.2697,-3.2683,-3.2536,-3.2181,-3.1566,-3.1347,-3.1298,-3.1385,-3.1423,-3.1423,-3.1402,-3.1423,-3.1252,-3.0845,-3.0377,-2.9751,-2.9016,-2.8575,-2.8107,-2.7701,-2.7701,-2.7425,0.0,-2.678,-2.6367,-2.5787,-2.5287,-2.4551,-2.3659,-2.2733,-2.191,-2.1118,0.0,0.0,0.0,0.0,0.0,0.0,0.0,-2.5703,-2.5702,-2.5691,-2.5707,-2.5676,-2.5613,-2.5597,-2.5551,-2.5447,0.0,0.0,0.0,0.0,0.0,0.0,0.0,0.0,0.0,0.0,-0.3421,-0.42,-0.9068,-1.1476,-1.1524,-1.2544,-1.2244,-1.1123,0.0,0.0,0.0,0.0,0.0,0.0,0.0,0.0,0.0,0.0,0.0,0.0,0.0,0.0,0.0,0.0,0.0,0.0,0.0,0.0,0.0,0.0,-2.2485,-2.2366,-2.1436,-2.124,-2.1292,-2.137,-2.0987,-2.1022,-2.2528,-2.2277,-2.2004,-2.3071,-2.3199,-2.3675,-2.5546,-2.6021,-2.6598,-2.8167,-2.933,0.0,-3.1725,-3.2897,-3.4382,-3.6456,-3.6167,-3.58,-3.5806,-3.2895,-3.1016,-3.1016,-3.1369,0.0,-3.1126,-3.0803,-3.081,-3.1213,-3.1274,-3.1274,-3.119,-3.1274,-3.1196,-3.0975,-3.0518,-2.9619,-2.841,-2.7942,-2.7087,-2.6032,-2.6032,-2.6032,0.0,-2.5317,-2.5043,-2.4847,-2.3118,-2.233,-2.203,-2.0412,-1.9795,-1.9628,0.0,0.0,0.0,0.0,0.0,0.0,0.0,-2.5703,-2.568,-2.5646,-2.6181,-2.6332,-2.5663,-2.6698,-2.7184,-2.6536,0.0,0.0,0.0,0.0,0.0,0.0,0.0,0.0,0.0,0.0,-0.8828,-0.9349,-1.0991,-1.3468,-1.6598,-1.7001,-1.8524,-2.0958,-2.2471,-2.2875,0.0,0.0,0.0,0.0,0.0,0.0,0.0,0.0,0.0,0.0,0.0,0.0,0.0,0.0,0.0,0.0,0.0,0.0,0.0,0.0,0.0,0.0,-2.2,-2.2094,-2.2296,-2.1635,-2.192,-2.2463,-2.2772,-2.2874,-2.301,-2.3248,-2.3708,-2.4479,-2.5852,-2.6649,-2.7697,-2.9489,-3.0167,0.0,0.0,-3.314,-3.4061,-3.526,-3.5628,-3.5362,0.0,0.0,-3.2187,-3.1063,-3.1462,-3.1643,-3.1462,-3.1157,-3.082,-3.0484,-2.9976,-2.9668,-2.9555,-2.9576,-2.9555,-2.9403,-2.894,-2.851,-2.8078,-2.7304,-2.6507,-2.5772,-2.5465,-2.4787,0.0,-2.3709,-2.3303,-2.2768,-2.2209,-2.1527,-2.0855,-2.0315,-1.9724,-1.9086,0.0,0.0,0.0,0.0,0.0,0.0,0.0,-2.5664,-2.5634,-2.5566,-2.6068,-2.633,-2.6042,-2.702,-2.7586,-2.7296,0.0,0.0,0.0,0.0,0.0,0.0,0.0,0.0,0.0,-1.397,-1.4315,-1.4925,-1.667,-1.9031,-2.1879,-2.1886,-2.3154,-2.5415,-2.5141,-2.4892,0.0,0.0,0.0,0.0,0.0,0.0,-2.814,0.0,0.0,0.0,0.0,0.0,0.0,0.0,0.0,0.0,0.0,0.0,0.0,0.0,-2.3943,-2.3566,0.0,-2.2893,-2.3071,-2.2411,-2.2864,-2.3376,-2.3182,-2.333,-2.3585,-2.3952,-2.4336,-2.5183,-2.7004,-2.7559,-2.846,-3.0594,-3.1017,-3.1615,-3.3019,-3.3742,-3.4319,-3.4818,-3.5418,0.0,0.0,-3.3284,-3.2322,-3.0234,-3.0916,-3.1164,-3.067,-3.0123,-2.9551,-2.8912,-2.8924,-2.8864,-2.8736,-2.8753,-2.8565,-2.8223,-2.8207,-2.7584,-2.6419,-2.6129,-2.5321,-2.4179,-2.3888,-2.3266,0.0,-2.2169,-2.1783,-2.1323,-2.0608,-1.9885,-1.9234,-1.8834,-1.8221,-1.7561,0.0,0.0,0.0,0.0,0.0,0.0,0.0,0.0,-2.5576,-2.5505,-2.5609,-2.5943,-2.6627,-2.6861,-2.7257,-2.7952,0.0,0.0,0.0,0.0,0.0,0.0,0.0,0.0,0.0,-1.9441,-1.9827,-2.0588,-2.4683,-2.6706,-2.6699,-2.6497,-2.6004,-2.5293,-2.5031,-2.4874,0.0,0.0,0.0,0.0,0.0,0.0,0.0,0.0,0.0,0.0,0.0,0.0,0.0,0.0,0.0,0.0,0.0,0.0,0.0,0.0,0.0,0.0,0.0,-2.3646,-2.3628,-2.3576,-2.3739,-2.3883,-2.3865,-2.3795,0.0,-2.5063,-2.5194,-2.5937,-2.8688,-2.8682,-2.9077,-3.1481,-3.1931,-3.246,-3.3825,-3.4659,-3.5089,-3.501,-3.546,-3.5145,-3.3545,-3.3123,-3.1766,-2.8917,-2.9833,-3.0069,-2.9001,-2.8094,-2.7357,-2.6788,-2.7891,-2.8471,-2.836,-2.836,-2.7972,-2.7178,-2.784,-2.6688,-2.3925,-2.4553,-2.367,0.0,-2.1584,0.0,0.0,-2.0593,-2.037,-2.0363,-1.8571,-1.7812,-1.7548,-1.6496,-1.5864,-1.562,0.0,0.0,0.0,0.0,0.0,0.0,0.0,0.0,0.0,0.0,-2.6656,-2.7298,-2.6771,-2.8524,-2.9576,0.0,0.0,0.0,0.0,0.0,0.0,0.0,0.0,0.0,0.0,-2.4684,-2.4775,-2.4256,-2.5303,-2.5754,-2.5649,-2.5552,-2.5435,-2.5292,-2.513,-2.4942,0.0,0.0,0.0,0.0,0.0,0.0,0.0,0.0,0.0,0.0,-2.5264,-2.5124,0.0,0.0,0.0,0.0,0.0,0.0,0.0,0.0,-2.4442,-2.4521,-2.5116,0.0,-2.4042,-2.4361,-2.4568,-2.486,0.0,-2.5642,0.0,0.0,0.0,0.0,0.0,-3.0068,-3.1228,-3.2437,-3.3208,-3.3993,-3.5058,-3.5876,-3.6077,-3.5239,-3.5339,-3.4934,-3.3524,-3.3323,-3.232,-2.9915,-2.9134,-2.8688,-2.8403,-2.7946,-2.6958,-2.5429,-2.5482,-2.5395,-2.518,-2.518,-2.5063,-2.4796,-2.4978,-2.4678,-2.3964,-2.3535,-2.2492,-2.1049,-2.043,0.0,-1.854,-1.8376,-1.8579,-1.8909,-1.7979,-1.7977,-1.8371,-1.7301,-1.695,-1.6969,0.0,0.0,0.0,0.0,0.0,0.0,0.0,0.0,0.0,0.0,0.0,0.0,0.0,0.0,0.0,0.0,0.0,0.0,0.0,0.0,0.0,0.0,0.0,0.0,-2.672,-2.7167,-2.6968,-2.6047,-2.5994,-2.5751,-2.5341,-2.5126,-2.5265,-2.5726,-2.5901,-2.5921,0.0,0.0,0.0,0.0,-2.6432,0.0,0.0,0.0,0.0,0.0,-2.513,-2.5113,0.0,-2.4993,-2.498,-2.498,0.0,0.0,0.0,0.0,-2.5171,-2.524,-2.6151,-2.5931,-2.5575,-2.6164,-2.6319,-2.6337,-2.6326,0.0,0.0,0.0,0.0,0.0,0.0,-3.0757,-3.1677,-3.3239,-3.3937,-3.458,-3.5399,-3.5578,-3.5399,-3.4718,-3.4319,-3.3769,0.0,-3.3177,-3.2274,-2.9433,-2.9126,-2.8574,-2.7478,-2.6817,-2.5838,-2.4486,-2.3437,-2.3281,-2.4049,-2.4049,-2.3867,-2.3503,-2.3503,-2.3044,-2.2133,-2.1778,-2.0859,-1.9544,-1.9101,0.0,-1.7614,-1.7811,-1.8165,-1.846,-1.8037,-1.7949,-1.8007,-1.7093,-1.659,-1.6361,0.0,0.0,0.0,0.0,0.0,0.0,0.0,0.0,0.0,0.0,0.0,0.0,0.0,0.0,0.0,0.0,0.0,0.0,0.0,0.0,0.0,0.0,0.0,-2.8045,-2.7785,-2.8053,-2.7679,-2.6632,-2.6657,-2.6263,-2.5515,-2.5304,-2.5632,-2.6417,-2.686,-2.7095,0.0,0.0,-2.8193,-2.9656,-2.7445,0.0,0.0,0.0,0.0,0.0,0.0,0.0,0.0,-2.5175,-2.5137,-2.5137,-2.5106,0.0,0.0,0.0,0.0,0.0,-2.6856,-2.738,-2.7736,-2.8089,-2.8135,-2.7899,-2.7156,0.0,0.0,0.0,0.0,0.0,0.0,-3.1246,0.0,-3.3844,-3.4554,-3.5043,-3.5733,-3.5211,-3.4535,-3.3988,-3.3222,0.0,-3.1845,-3.2384,-3.1409,-2.8201,-2.8844,-2.8423,-2.625,-2.5226,-2.4331,-2.3561,-2.1786,-2.1647,-2.3305,-2.3338,-2.3007,-2.2363,-2.2363,-2.1491,-1.9869,-1.9913,-1.9184,-1.7913,0.0,0.0,-1.73,-1.7812,-1.815,-1.8308,-1.8168,-1.7899,-1.7469,-1.6674,-1.5982,-1.5453,0.0,0.0,0.0,0.0,0.0,0.0,0.0,0.0,0.0,0.0,0.0,0.0,0.0,0.0,0.0,0.0,0.0,0.0,0.0,0.0,0.0,0.0,-2.9359,-2.826,-2.684,-2.8213,-2.8084,-2.6366,-2.707,-2.6969,-2.6089,-2.6702,-2.7119,-2.7295,-2.7395,-2.7462,-2.7513,-2.7513,-2.8153,-2.9066,-2.8049,0.0,0.0,0.0,0.0,0.0,0.0,0.0,0.0,-2.5542,-2.5261,-2.525,-2.5145,0.0,0.0,0.0,0.0,0.0,-2.6871,-2.8881,-3.0165,-2.852,-2.8606,-2.9026,-2.8784,0.0,0.0,0.0,0.0,0.0,0.0,-3.213,-3.2924,-3.4102,-3.5581,-3.6868,-3.7648,-3.7174,-3.5945,-3.3768,0.0,-3.2807,-3.144,-3.0075,-2.8605,-2.7049,-2.6427,-2.5657,-2.4611,-2.3806,-2.2927,-2.1893,-2.0764,-2.0202,-2.0262,-2.0262,-2.0157,-1.993,-1.993,-1.9715,-1.9305,-1.8851,-1.825,-1.7449,0.0,-1.6334,-1.58,-1.6444,-1.6965,-1.7393,-1.7393,-1.7963,-1.8645,-1.7295,-1.7058,-1.729,0.0,0.0,0.0,0.0,0.0,0.0,0.0,0.0,0.0,0.0,0.0,0.0,0.0,0.0,0.0,0.0,0.0,0.0,0.0,0.0,0.0,-3.0519,-3.0507,-2.9897,-2.8645,-2.8923,-2.8445,-2.7113,-2.6969,-2.6473,-2.5685,-2.6882,-2.7684,-2.8134,-2.9033,-2.9459,-2.949,-2.9486,-3.0071,-3.0852,0.0,0.0,0.0,0.0,0.0,0.0,0.0,0.0,0.0,0.0,-2.5331,-2.5293,-2.5233,0.0,0.0,0.0,0.0,0.0,-2.7104,-2.8938,-3.0319,-2.9375,-3.0581,-3.1756,-3.0875,0.0,0.0,0.0,0.0,0.0,0.0,0.0,-3.3618,-3.545,-3.6101,-3.6335,-3.6264,-3.5206,-3.4007,0.0,0.0,-3.1536,-3.0179,-2.9292,-2.7852,-2.5661,-2.4664,-2.3946,-2.3516,-2.2327,-2.133,-2.067,-1.9949,-1.945,-1.9177,-1.8668,-1.8703,-1.9284,-1.8893,-1.8616,-1.8462,-1.7912,-1.7314,-1.6697,0.0,-1.6189,-1.5988,-1.6582,-1.719,-1.778,-1.81,-1.8106,-1.7828,-1.6691,-1.6608,-1.7047,0.0,0.0,0.0,0.0,0.0,0.0,0.0,0.0,0.0,0.0,0.0,0.0,0.0,0.0,0.0,0.0,0.0,0.0,0.0,0.0,-3.1133,-3.052,-3.1079,-3.0871,-2.9763,-2.9333,-2.8568,-2.7458,-2.688,-2.6294,-2.575,-2.6949,-2.7903,-2.8704,-3.0416,-3.117,-3.1187,-3.139,-3.2076,-3.2828,0.0,0.0,0.0,0.0,0.0,0.0,0.0,0.0,0.0,0.0,0.0,0.0,0.0,0.0,0.0,-2.5992,-2.6129,-2.6274,-2.7045,-2.8498,-2.9775,-2.9764,0.0,-3.3355,-3.2491,-3.1894,0.0,0.0,0.0,0.0,0.0,-3.265,-3.384,-3.6068,-3.6091,-3.5608,-3.4996,-3.3625,-3.2461,-3.1898,-3.1032,-2.9995,-2.8748,-2.8342,-2.7162,-2.4772,-2.3407,-2.2743,-2.2874,-2.0991,-1.9883,-1.986,-1.923,-1.8802,-1.8576,-1.7721,-1.7747,-1.8642,-1.8065,-1.7738,-1.7588,-1.7071,-1.6649,-1.6281,-1.6113,-1.6263,-1.6615,-1.7044,-1.7606,-1.8259,-1.8869,-1.8333,-1.7124,-1.6331,-1.6241,-1.6479,0.0,0.0,0.0,0.0,0.0,0.0,0.0,0.0,0.0,0.0,0.0,0.0,0.0,0.0,0.0,0.0,0.0,0.0,0.0,0.0,-3.05,-3.0492,-3.051,-2.9727,-2.8106,-2.8747,-2.8214,-2.641,-2.7089,-2.7385,-2.7333,-2.7447,-2.7961,-2.8859,-3.059,-3.1378,-3.1427,-3.2235,-3.314,-3.3839,-3.2179,0.0,0.0,0.0,0.0,0.0,0.0,0.0,0.0,0.0,0.0,0.0,0.0,0.0,-2.5471,-2.5468,-2.5464,-2.5625,-2.6361,-2.7838,-2.9147,-2.9085,-3.0299,0.0,-3.2954,-3.2589,0.0,-3.3506,0.0,0.0,0.0,-3.3022,-3.3512,-3.4532,-3.5364,-3.5878,-3.5822,0.0,-3.3569,-3.126,-3.0149,-2.8969,-2.7401,-2.628,-2.5445,-2.4928,-2.2736,-2.1843,-2.2772,-2.0027,-1.8829,-1.9693,-1.8596,-1.7946,-1.7856,-1.7321,-1.7016,-1.6975,-1.6911,-1.6817,-1.6702,-1.6452,-1.653,-1.6789,-1.598,-1.6198,-1.7142,-1.7185,-1.7606,-1.8259,-1.8869,-1.8549,-1.7693,-1.7258,-1.6782,-1.6392,0.0,0.0,0.0,0.0,0.0,0.0,0.0,0.0,0.0,0.0,0.0,0.0,0.0,0.0,0.0,0.0,0.0,0.0,0.0,0.0,-3.1042,-3.051,-3.0992,-3.046,-2.8743,-2.8492,-2.7738,-2.6483,-2.625,-2.6929,-2.849,-2.849,-2.9245,-3.0657,-3.1866,-3.209,-3.1604,-3.1936,-3.2904,-3.4032,-3.1835,-3.1758,0.0,0.0,0.0,0.0,0.0,0.0,0.0,0.0,-2.5551,-2.5571,0.0,0.0,-2.5538,-2.5486,-2.546,-2.5505,-2.5757,-2.7479,-2.9217,-2.9151,-3.0374,0.0,0.0,-3.3105,-3.2919,-3.3371,-3.3236,0.0,0.0,0.0,-3.4245,-3.4524,-3.4927,-3.5007,-3.4414,-3.2724,-3.1203,-3.0208,-2.8877,-2.755,-2.6394,-2.5725,-2.5063,-2.439,-2.246,-2.1161,-2.0831,-1.9178,-1.8386,-1.8706,-1.8263,-1.7944,-1.7811,-1.7361,-1.7043,-1.685,-1.6738,-1.6649,-1.6596,-1.6517,-1.637,-1.6143,-1.5801,-1.5947,-1.6484,-1.6905,-1.7403,-1.7934,-1.7702,-1.7567,-1.7368,-1.6466,-1.6191,-1.6275,0.0,0.0,0.0,0.0,0.0,0.0,0.0,0.0,0.0,0.0,0.0,0.0,0.0,0.0,0.0,0.0,0.0,0.0,0.0,-3.0247,-3.0781,-3.0182,-3.0975,-3.0743,-2.9294,-2.8405,-2.7517,-2.6603,-2.5745,-2.6371,-2.8348,-2.8916,-2.9803,-3.0998,-3.2138,-3.2323,-3.1733,-3.1755,-3.2604,-3.3782,-3.2006,-3.1843,0.0,0.0,0.0,0.0,0.0,0.0,0.0,0.0,-2.561,-2.56,0.0,0.0,0.0,0.0,-2.5731,-2.5926,-2.59,-2.7368,-2.8993,-2.9206,0.0,0.0,-3.3334,-3.3543,-3.3619,-3.4304,-3.3829,-3.321,-3.3047,0.0,0.0,0.0,-3.35,-3.3293,-3.2666,-3.0658,-2.9139,-2.8839,-2.7531,-2.632,-2.5482,-2.5152,-2.4701,-2.4012,-2.236,-2.0855,-1.9668,-1.8797,-1.8267,-1.807,-1.8091,-1.8009,-1.7839,-1.7502,-1.7199,-1.7002,-1.6763,-1.6623,-1.6543,-1.6543,-1.6382,-1.6097,-1.58,-1.6035,-1.6666,-1.6827,-1.7341,-1.7932,-1.7192,-1.7063,-1.7164,-1.5935,-1.5763,-1.612,0.0,0.0,0.0,0.0,0.0,0.0,0.0,0.0,0.0,0.0,0.0,0.0,0.0,0.0,0.0,0.0,0.0,0.0,-2.8097,-2.8923,-2.9408,-2.9408,-3.0183,-3.0242,-2.9427,-2.8555,-2.7608,-2.6601,-2.5803,-2.5858,-2.6776,-2.8517,-2.9311,-2.9388,-3.1128,-3.1845,-3.1777,-3.1855,-3.2348,-3.3082,-3.3082,-3.257,-3.1797,0.0,0.0,0.0,0.0,0.0,0.0,0.0,-2.5609,-2.56,0.0,0.0,0.0,-2.569,-2.6275,-2.6897,-2.6887,-2.7498,-2.8327,-2.9174,0.0,0.0,-3.3564,-3.3988,-3.4553,-3.6863,-3.5343,-3.3333,-3.2538,-3.1616,0.0,-3.0903,-3.0845,-3.0787,-3.0768,-2.9326,-2.7979,-2.7176,-2.6246,-2.5373,-2.4574,-2.4375,-2.4191,-2.3899,-2.2407,-2.0944,-1.9673,-1.8947,-1.8397,-1.8005,-1.807,-1.8035,-1.7893,-1.771,-1.7472,-1.7191,-1.6917,-1.6675,-1.6398,-1.6398,-1.6617,-1.6954,-1.5994,-1.6551,-1.7999,-1.6994,-1.7343,-1.8439,-1.7612,-1.7312,-1.7164,-1.5865,-1.5636,-1.5915,0.0,0.0,0.0,0.0,0.0,0.0,0.0,0.0,0.0,0.0,0.0,0.0,0.0,0.0,0.0,0.0,0.0,0.0,-2.807,-2.9414,-2.9949,-2.9293,-3.0085,-3.0414,-3.0182,-2.9323,-2.8173,-2.6738,-2.65,-2.7466,-2.9511,-3.0043,-3.0283,-3.0335,-3.1474,-3.0943,-2.9285,-3.0542,-3.1181,-3.1413,-3.1402,-3.1607,-3.1794,0.0,0.0,0.0,0.0,0.0,0.0,0.0,0.0,0.0,0.0,0.0,0.0,-2.5808,-2.6272,-2.6835,-2.6222,-2.753,-2.9138,-2.9357,0.0,0.0,0.0,-3.3615,0.0,0.0,-3.2906,-3.1977,-3.1683,-3.147,0.0,-3.0379,-3.0215,-2.992,-2.9212,-2.7623,-2.6432,-2.608,-2.53,-2.4671,-2.4376,-2.4266,-2.397,-2.3326,-2.2078,-2.0868,-1.9738,-1.8665,-1.8045,-1.7927,-1.791,-1.7893,-1.7893,-1.7799,-1.7636,-1.7392,-1.6917,-1.657,-1.6398,-1.6398,-1.6299,-1.6155,-1.5857,-1.5816,-1.5931,-1.6271,-1.7158,-1.8228,-1.7679,-1.7269,-1.6964,-1.6376,-1.604,-1.5856,0.0,0.0,0.0,0.0,0.0,0.0,0.0,0.0,0.0,0.0,0.0,0.0,0.0,0.0,0.0,0.0,0.0,0.0,0.0,0.0,-2.9861,-2.9311,-3.0095,-3.0385,-3.0075,-2.9863,-2.9117,-2.7838,-2.7464,-2.8275,-3.0199,-3.0534,-3.0531,-3.0253,-3.0769,-2.9946,-2.8189,-2.8895,-2.9563,-3.021,-3.0567,-3.0964,-3.1321,0.0,0.0,0.0,0.0,0.0,0.0,0.0,0.0,0.0,0.0,0.0,0.0,-2.6782,-2.7036,-2.7423,-2.7234,-2.854,0.0,-3.0743,-3.271,-3.435,-3.3774,0.0,0.0,0.0,-3.1981,-3.1307,-3.0871,-3.061,0.0,-2.9102,-2.86,-2.8121,-2.7501,-2.6168,-2.5207,-2.5134,-2.4617,-2.4266,-2.421,-2.4152,-2.3784,-2.2978,-2.1989,-2.0966,-1.989,-1.8698,-1.8003,-1.7851,-1.7815,-1.7805,-1.7866,-1.7822,-1.7683,-1.7439,-1.6977,-1.6675,-1.6479,-1.6371,-1.6207,-1.5955,-1.5935,-1.5746,-1.5496,-1.6253,-1.7077,-1.7828,-1.7406,-1.7031,-1.6625,-1.6101,-1.5727,-1.548,0.0,0.0,0.0,0.0,0.0,0.0,0.0,0.0,0.0,0.0,0.0,0.0,0.0,0.0,0.0,0.0,0.0,0.0,0.0,0.0,-2.9505,-2.9532,-3.0377,-3.0494,-2.9765,-3.0463,-3.0482,-2.9745,-2.8662,-2.8605,-2.9536,-3.0345,-3.0234,-2.939,-2.9468,-2.8938,-2.7928,-2.7285,-2.7892,-2.9356,-3.0236,-3.054,-3.0598,-3.139,0.0,0.0,0.0,0.0,0.0,0.0,0.0,0.0,-2.8189,-2.821,-2.8218,-2.8204,-2.8209,-2.8369,-2.9094,-2.9927,-3.0989,-3.268,-3.3789,0.0,-3.266,-3.3166,-3.3667,-3.2788,0.0,-3.115,-3.0075,-2.9327,-2.8517,-2.7368,-2.6525,-2.5951,-2.5804,-2.4999,-2.4394,-2.4394,-2.4209,-2.4094,-2.4074,-2.3996,-2.3611,-2.2719,-2.199,-2.1061,-1.9918,-1.8872,-1.8163,-1.7803,-1.7798,-1.7789,-1.7789,-1.7783,-1.7669,-1.7425,-1.7142,-1.6866,-1.6623,-1.6316,-1.6194,-1.6141,-1.605,-1.607,-1.6195,-1.6688,-1.7128,-1.7406,-1.7086,-1.668,-1.6262,-1.5411,-1.5115,-1.5073,0.0,0.0,0.0,0.0,0.0,0.0,0.0,0.0,0.0,0.0,0.0,0.0,0.0,0.0,0.0,0.0,0.0,0.0,0.0,0.0,-3.0366,-3.0428,-3.1856,-3.2555,-3.238,-3.2559,-3.2555,-3.2373,-3.0179,-2.9557,-3.0431,-3.0677,-2.9968,-2.8505,-2.9185,-2.8259,-2.6236,-2.742,-2.809,-2.845,-2.9331,-3.0032,-3.0606,-3.0799,-3.0607,0.0,0.0,0.0,0.0,0.0,0.0,0.0,-2.8838,-2.9077,-2.8993,-2.8326,-2.8154,-2.8238,-2.8403,-2.9056,0.0,-3.1821,-3.3401,-3.3887,-3.1543,-3.1436,-3.1558,-3.0598,-3.0804,-3.0753,-2.9327,-2.8898,-2.8232,-2.6688,-2.6174,-2.5747,-2.5064,-2.4644,-2.4358,-2.4266,-2.4114,-2.3976,-2.3858,-2.3768,-2.3088,-2.1648,-2.1434,-2.0617,-1.8902,-1.8596,-1.8241,-1.7735,-1.7726,-1.7704,-1.7635,-1.7635,-1.7629,0.0,-1.7142,-1.685,-1.6738,-1.6371,-1.6067,-1.5797,-1.558,-1.587,-1.6472,-1.635,-1.688,-1.7747,-1.7406,-1.7073,-1.6723,-1.62,-1.5862,-1.5624,0.0,0.0,0.0,0.0,0.0,0.0,0.0,0.0,0.0,0.0,0.0,0.0,0.0,0.0,0.0,0.0,0.0,0.0,0.0,0.0,0.0,-3.1926,-3.3184,-3.3476,-3.2637,-3.3444,-3.3465,-3.2629,-3.1337,-3.1145,-3.1992,-3.2033,-3.134,-3.004,-2.9662,-2.8499,-2.6883,-2.7361,-2.7779,-2.8178,-2.9019,-2.9826,-3.0559,-3.052,-3.051,-3.0433,-2.9948,0.0,0.0,0.0,0.0,0.0,0.0,0.0,-2.988,-2.9479,-2.9059,-2.8735,-2.8728,0.0,0.0,-3.213,0.0,-3.2396,-2.9796,-2.9765,-2.981,-2.8126,-2.9146,-2.9828,-2.8202,-2.7932,-2.7418,-2.5695,-2.5371,-2.5142,-2.4634,-2.4409,-2.4137,-2.3676,-2.3876,-2.383,-2.3229,-2.3494,-2.2977,-2.1294,-2.1187,-2.0448,-1.8746,-1.8544,-1.833,-1.795,-1.7754,-1.7647,-1.7646,-1.7622,-1.7622,-1.7646,-1.7117,-1.6712,-1.6394,-1.6191,-1.594,-1.5623,-1.5344,-1.5524,-1.6062,-1.6077,-1.6521,-1.717,-1.7328,-1.706,-1.6595,-1.6367,-1.5789,-1.5151,0.0,0.0,0.0,0.0,0.0,0.0,0.0,0.0,0.0,0.0,0.0,0.0,0.0,0.0,0.0,0.0,0.0,0.0,0.0,0.0,0.0,-3.3502,-3.4354,-3.4088,-3.2472,-3.3874,-3.3835,-3.2244,-3.2309,-3.2857,-3.3848,-3.3399,-3.2716,-3.1802,-3.0367,-2.9146,-2.8134,-2.7415,-2.7573,-2.8385,-2.9047,-2.9803,-3.051,-3.0466,-3.0447,-3.0479,-3.0414,-3.0436,-3.0471,-3.0417,0.0,0.0,0.0,0.0,-3.0602,-3.0657,-3.0028,-2.9345,-2.9481,0.0,-3.1154,-3.2576,-3.2213,0.0,-2.8237,-2.8509,-2.86,-2.6131,-2.7599,-2.8831,-2.7157,-2.6953,-2.6501,-2.4827,-2.4545,-2.451,-2.4408,-2.4155,-2.375,-2.3087,-2.34,-2.3356,-2.2574,-2.2989,-2.2692,-2.1197,-2.0942,-2.0228,-1.8803,-1.8563,-1.8385,-1.8163,-1.7798,-1.7653,-1.7656,-1.7626,-1.7569,-1.7582,-1.7018,-1.6474,-1.5968,-1.5983,-1.5826,-1.5565,-1.5139,-1.5105,-1.5355,-1.5537,-1.5835,-1.6245,-1.6729,-1.6658,-1.6269,-1.6139,-1.5375,-1.4564,0.0,0.0,0.0,0.0,0.0,0.0,0.0,0.0,0.0,0.0,0.0,0.0,0.0,0.0,0.0,0.0,0.0,0.0,-3.0789,0.0,0.0,-3.4393,-3.5262,-3.5254,-3.4275,-3.454,-3.4203,-3.3208,-3.3227,-3.4056,-3.56,-3.3336,-3.1802,-3.0953,-3.0732,-2.9682,-2.811,-2.7984,-2.8442,-2.9241,-2.933,-2.9859,-3.0588,-3.0579,-3.0499,-3.0402,-3.041,-3.041,-3.0402,-3.039,-3.0417,0.0,0.0,0.0,-3.053,-3.051,-2.9995,-2.9544,-3.0233,0.0,-3.1751,0.0,-3.1661,-3.0789,0.0,0.0,-2.8531,0.0,-2.7112,-2.8323,-2.6979,-2.6562,-2.5949,-2.4561,-2.4284,-2.4284,-2.4393,-2.3676,-2.3107,-2.3013,-2.2319,-2.2042,-2.2544,-2.1813,-2.1217,-2.104,-2.0259,-1.938,-1.8423,-1.8406,-1.8284,-1.7949,-1.7839,-1.7698,-1.7538,-1.7515,-1.7498,-1.7498,-1.6908,-1.6382,-1.5928,-1.5856,-1.5726,-1.5477,-1.4674,-1.4481,-1.4657,-1.3884,-1.45,-1.583,-1.5196,-1.5533,-1.6225,-1.5534,-1.5151,-1.5014,0.0,0.0,0.0,0.0,0.0,0.0,0.0,0.0,0.0,0.0,0.0,0.0,0.0,0.0,0.0,-3.2162,-3.2156,-3.2136,-3.2085,-3.2349,-3.3128,-3.4477,-3.4919,-3.4723,-3.3882,-3.4413,-3.4035,-3.267,-3.2667,-3.3554,-3.5232,-3.3593,-3.3386,-3.4339,-3.3411,-3.1991,-3.0336,-3.0308,-3.0231,-3.0212,-3.1142,-3.174,-3.2046,-3.2029,-3.196,-3.1838,-3.1318,-3.109,-3.0989,-3.0471,-3.0336,-3.0386,-3.0352,0.0,0.0,0.0,-3.0269,-3.0085,-3.0452,-3.0132,-2.9901,0.0,-3.0343,-2.9159,-2.6581,-2.7168,-2.7161,-2.3392,-2.4112,-2.5343,-2.5126,-2.4643,-2.3936,-2.2889,-2.3424,-2.3959,-2.3959,-2.3725,-2.3216,-2.2264,-2.2228,-2.2026,-2.1369,-2.1273,-2.0972,-2.038,-1.9944,-1.9295,-1.8345,-1.8328,-1.8246,-1.8009,-1.7988,-1.7755,-1.7335,-1.7515,-1.7559,-1.7486,-1.6859,-1.6382,-1.6052,-1.5812,-1.5712,-1.5667,-1.4716,-1.45,-1.4721,-1.4114,-1.4412,-1.5286,-1.5633,-1.5629,-1.5439,-1.5659,-1.5124,-1.4339,0.0,0.0,0.0,0.0,0.0,0.0,0.0,0.0,0.0,0.0,0.0,0.0,0.0,0.0,0.0,0.0,-3.318,-3.2878,-3.2803,-3.2238,-3.2571,-3.4089,-3.4379,-3.4023,-3.2986,-3.3862,-3.3505,-3.1802,-3.1772,-3.2775,-3.4688,-3.4022,-3.4973,-3.7145,-3.5467,-3.3739,-3.2099,-3.2265,-3.1957,-3.1473,-3.2726,-3.3087,-3.2901,-3.3064,-3.2977,-3.2703,-3.2212,-3.1864,-3.1527,-3.081,-3.0459,-3.0343,-3.0279,-3.0321,0.0,0.0,0.0,-3.0462,-3.025,0.0,-2.8809,-2.9697,-2.9193,-2.7999,0.0,0.0,-2.603,0.0,-2.1696,-2.2031,-2.1973,-2.1838,-2.1635,-2.1378,-2.2277,-2.3161,-2.3548,-2.3611,-2.315,-2.1876,-2.2045,-2.179,-2.0699,-2.0735,-2.0551,-1.9848,-1.9555,-1.9064,-1.8281,-1.8266,-1.8222,-1.8053,-1.8091,-1.7866,-1.7356,-1.7538,-1.7478,-1.7213,-1.6702,-1.634,-1.6108,-1.574,-1.5668,-1.5725,-1.4554,-1.4184,-1.438,-1.3819,-1.387,-1.4388,-1.5304,-1.521,-1.4639,-1.5387,-1.4763,-1.3746,0.0,0.0,0.0,0.0,0.0,0.0,0.0,0.0,0.0,0.0,0.0,0.0,-3.5574,-3.5086,-3.4588,-3.4445,-3.2989,-3.2032,-3.1975,-3.1911,-3.2276,-3.3137,-3.4023,0.0,-3.209,-3.2927,-3.2584,0.0,0.0,0.0,-3.4695,-3.4649,-3.5584,-3.722,-3.547,-3.3727,-3.2159,-3.2903,-3.3205,-3.3166,-3.3264,-3.2798,-3.2156,-3.2904,-3.2648,-3.1961,-3.2681,-3.2393,-3.1691,-3.1565,-3.0938,-3.0221,-3.0221,-3.0254,-3.0316,0.0,0.0,0.0,-2.9563,-2.9775,0.0,-2.9102,-2.8635,-2.8311,0.0,0.0,-2.582,-2.3538,-2.1303,-1.9198,-1.7311,-1.8136,-1.9487,-2.0642,-2.0852,-2.1492,-2.3329,-2.3013,-2.2527,-2.2363,-2.1223,-2.0662,-2.1277,-1.9939,-1.9255,-1.9761,-1.8924,-1.826,-1.8027,-1.813,-1.8113,-1.7922,-1.8031,-1.7988,-1.7772,-1.7542,-1.7085,-1.6475,-1.6351,-1.6163,-1.5928,-1.5639,-1.5507,-1.5448,-1.3795,-1.3075,-1.3007,-1.1845,-1.2,-1.2979,-1.2785,-1.3322,-1.4205,-1.3912,-1.3784,-1.3773,0.0,0.0,0.0,0.0,0.0,0.0,0.0,0.0,0.0,0.0,0.0,0.0,0.0,-3.6409,-3.622,-3.6177,-3.4525,-3.3441,-3.3384,-3.2855,-3.2937,-3.3829,-3.4197,-3.3874,-3.2785,-3.3076,0.0,0.0,0.0,-3.1526,-3.3031,-3.3029,-3.3358,-3.4022,-3.5656,-3.5402,-3.3819,-3.4671,-3.4702,-3.4242,-3.4754,-3.4787,-3.4529,-3.4785,-3.463,-3.4254,-3.395,-3.3604,-3.3217,-3.2635,-3.2179,-3.178,-3.1197,-3.1044,-3.0948,-3.0393,-3.0267,-3.0244,-3.0009,0.0,0.0,-2.9478,-2.8881,-2.8035,-2.7177,-2.5614,-2.3551,-2.0695,-1.8197,-1.6038,-1.4491,-1.5558,-1.6783,-1.7257,-1.8192,-1.9475,-2.1291,-2.1437,-2.1574,-2.2216,-2.1867,-2.1498,-2.1287,-2.0335,-1.9776,-1.9856,-1.9125,-1.8529,-1.8205,-1.8243,-1.8201,-1.8031,-1.8053,-1.7978,-1.7746,-1.7524,-1.7166,-1.6712,-1.6691,-1.6503,-1.6136,-1.5782,-1.558,-1.5433,-1.427,-1.3657,-1.3389,-1.2512,-1.2443,-1.2844,-1.3175,-1.3235,-1.3225,-1.383,-1.3659,-1.3281,0.0,0.0,0.0,0.0,0.0,0.0,0.0,0.0,0.0,0.0,0.0,0.0,0.0,0.0,-3.7552,-3.6662,-3.5445,-3.4569,-3.4231,-3.3372,-3.3313,-3.4237,-3.4276,-3.3905,-3.3147,0.0,0.0,0.0,0.0,0.0,0.0,-3.2076,-3.2238,-3.2636,-3.4959,-3.5193,0.0,-3.5076,-3.5227,-3.4768,-3.558,-3.5904,-3.5918,-3.6156,-3.6218,-3.6076,-3.5414,-3.4963,-3.4569,-3.3654,-3.2929,-3.2333,-3.1717,-3.1317,-3.0949,-3.0404,-3.0221,-3.0209,-3.0248,0.0,0.0,0.0,-2.9041,-2.7996,-2.7013,-2.5194,-2.2898,-2.0059,-1.7449,-1.524,-1.3803,-1.3951,-1.4525,-1.5153,-1.6164,-1.7472,-1.9218,-2.0141,-2.0874,-2.1525,-2.2016,-2.2086,-2.1533,-2.0652,-2.0025,-1.9891,-1.9199,0.0,-1.8388,-1.829,-1.8205,-1.807,-1.807,-1.7951,-1.7676,-1.7526,-1.7256,-1.6914,-1.6823,-1.662,-1.6301,-1.5868,-1.5624,-1.5492,-1.4848,-1.4313,-1.3825,-1.3147,-1.2877,-1.2964,-1.3308,-1.3151,-1.2758,-1.3231,-1.314,-1.2817,0.0,0.0,0.0,0.0,0.0,0.0,0.0,0.0,0.0,-3.6826,0.0,0.0,0.0,0.0,0.0,-3.5889,-3.5605,-3.5218,-3.4372,-3.3526,-3.341,-3.4237,-3.4257,-3.3897,-3.3053,0.0,0.0,0.0,0.0,0.0,0.0,0.0,-3.2448,-3.3317,-3.3317,-3.2851,-3.2187,-3.3925,-3.4686,-3.4803,-3.5564,-3.5895,-3.602,-3.6786,-3.707,-3.7045,-3.6908,-3.6353,-3.5549,-3.4557,-3.3159,-3.1795,-3.1661,-3.0981,-3.0199,-3.0286,-3.0259,-3.0185,0.0,0.0,0.0,0.0,0.0,0.0,-2.7717,0.0,-2.411,-2.2028,-1.9389,-1.691,-1.5205,-1.3397,-1.281,-1.4684,-1.4944,-1.5518,-1.726,-1.9197,-2.0415,-2.0404,-2.1535,-2.2269,-2.2139,-2.0809,-1.9925,-1.9846,-1.9082,-1.8601,-1.8505,-1.8307,-1.8121,-1.8005,-1.7983,-1.7856,-1.7612,-1.7533,-1.7297,-1.6901,-1.6689,-1.6471,-1.6274,-1.5841,-1.561,-1.558,-1.5388,-1.4906,-1.4184,-1.3509,-1.3205,-1.3165,-1.2981,-1.2883,-1.2826,-1.2102,-1.2125,-1.2446,0.0,0.0,0.0,0.0,0.0,0.0,0.0,0.0,0.0,0.0,0.0,0.0,-3.9309,-3.9425,-3.8856,-3.7462,-3.7324,-3.7219,-3.6949,-3.6719,-3.6411,-3.6026,-3.6007,-3.5328,-3.3903,0.0,0.0,0.0,0.0,0.0,0.0,0.0,0.0,0.0,-3.1449,-3.137,-3.1335,-3.3034,-3.4498,-3.5608,-3.5196,-3.5767,-3.6796,-3.639,-3.619,-3.6157,-3.6067,-3.5861,-3.5566,-3.5095,-3.4721,-3.4224,-3.2881,-3.1407,-3.0194,-3.0157,-3.0083,-3.0003,-3.0049,0.0,0.0,0.0,0.0,0.0,-2.7614,0.0,-2.3886,-2.198,-1.9826,-1.8,-1.7071,-1.544,-1.4376,-1.4924,-1.3819,-1.3518,-1.5327,-1.7206,-1.8908,-2.024,-2.1869,-2.2858,-2.2834,-2.2028,-2.1242,0.0,-1.9974,-1.9245,-1.854,-1.8222,-1.7966,-1.7794,-1.7833,-1.7749,-1.7526,-1.7452,-1.7264,-1.6962,-1.6622,-1.6452,-1.6431,-1.6113,-1.5797,-1.5522,-1.5463,-1.5286,-1.4919,-1.4065,-1.3482,-1.3125,-1.3063,-1.3002,-1.2861,-1.2685,-1.2572,-1.2485,0.0,0.0,0.0,0.0,0.0,0.0,0.0,0.0,0.0,0.0,0.0,0.0,-3.9799,-4.0171,-3.9899,-3.8657,-3.8546,-3.8546,-3.8546,-3.7853,-3.7392,-3.7257,-3.6551,-3.5878,-3.5257,0.0,0.0,0.0,0.0,0.0,0.0,0.0,0.0,0.0,0.0,0.0,0.0,0.0,-3.335,-3.4892,-3.4754,-3.5701,-3.7141,-3.6635,-3.6637,-3.6829,-3.6433,-3.6424,-3.6465,-3.558,-3.5036,-3.44,-3.2707,-3.1455,-3.0547,-3.0242,-3.0038,-2.9888,-2.9907,-2.9771,-2.9608,-2.9397,0.0,0.0,-2.7716,-2.6451,-2.5021,0.0,-2.1162,-1.9533,-1.8792,-1.716,-1.5917,-1.5868,-1.513,-1.4635,-1.478,-1.6421,-1.8302,-2.0182,-2.2002,-2.3095,-2.3095,-2.2148,-2.1388,-2.1029,-1.9972,-1.9119,-1.854,-1.8243,-1.7992,-1.7777,-1.7749,-1.7658,-1.7549,-1.755,-1.7404,-1.7129,-1.6781,-1.6557,-1.6456,-1.6225,-1.5898,-1.5521,-1.5463,-1.5314,-1.5134,-1.4583,-1.4051,-1.3538,-1.3017,-1.2768,-1.2617,-1.1919,-1.1779,-1.1901,0.0,0.0,0.0,0.0,0.0,0.0,0.0,0.0,0.0,0.0,-4.049,-4.0633,-4.0642,-4.1335,-4.1162,-3.9565,-3.9431,-3.9431,-3.9431,-3.7988,-3.7392,-3.7969,-3.6599,-3.6099,-3.6685,0.0,0.0,0.0,0.0,0.0,0.0,0.0,0.0,0.0,0.0,0.0,0.0,0.0,-3.1848,-3.3469,-3.4248,-3.5625,-3.7211,-3.7102,-3.7492,-3.8026,-3.7238,-3.7298,-3.7482,-3.5823,-3.4442,-3.3184,-3.1735,-3.1165,-3.0921,-3.0308,-3.0003,-2.9822,-2.9789,-2.9643,-2.9476,-2.9336,-2.9243,0.0,-2.7926,-2.7398,-2.6657,0.0,-2.3004,-2.1407,-2.048,-1.8768,-1.7477,-1.7426,-1.7685,-1.7251,-1.5404,-1.6782,-1.8608,-2.0279,-2.2022,-2.3095,-2.3095,-2.1855,-2.0968,-2.0815,-1.9212,-1.8351,-1.8573,-1.8243,-1.7999,-1.7905,-1.7726,-1.7612,-1.7612,-1.7679,-1.7617,-1.7345,-1.7011,-1.6712,-1.6367,-1.6191,-1.594,-1.5623,-1.5403,-1.5193,-1.5043,-1.4951,-1.4686,-1.4181,-1.3039,-1.2569,-1.2302,-1.0731,-1.059,-1.1092,-3.6971,0.0,0.0,0.0,0.0,0.0,0.0,0.0,0.0,0.0,-4.0989,-4.1478,-4.1546,-4.17,-4.1393,-4.0354,-4.0258,-4.0258,-4.0258,-3.995,-3.9219,-3.8046,-3.8289,-3.7909,-3.6733,-3.6995,0.0,0.0,0.0,0.0,0.0,0.0,0.0,0.0,0.0,0.0,0.0,0.0,0.0,-3.3344,-3.3563,-3.5107,-3.7207,-3.6442,-3.625,-3.6353,-3.6131,-3.6084,-3.5958,-3.4691,-3.3473,-3.2317,0.0,-3.0612,-2.9957,-2.9771,-2.9608,-2.9513,-2.9608,-2.8988,-2.8496,-2.9126,-2.8305,0.0,-2.8233,-2.7204,-2.5933,0.0,-2.4286,-2.317,-2.2384,-2.0678,-1.9375,-1.9351,-1.8185,-1.7294,-1.7368,-1.9119,-2.0543,-2.0916,-2.2245,-2.3095,-2.3095,-2.2838,-2.178,-1.9704,-1.7318,-1.6893,-1.9114,-1.7752,-1.724,-1.7963,-1.7794,-1.7704,-1.7766,-1.7417,-1.7388,-1.7691,-1.7001,-1.6512,-1.6253,-1.6215,-1.6095,-1.5911,-1.561,-1.5388,-1.5208,-1.4669,-1.4383,-1.4287,-1.4036,-1.3572,-1.2926,-1.196,-1.1479,-1.1285,-3.7149,0.0,0.0,0.0,0.0,0.0,0.0,0.0,0.0,-4.0936,-4.2155,-4.253,-4.1296,-4.1931,-4.1912,-4.0604,-4.0489,-4.0489,-4.0489,-4.0123,-3.9315,-3.7997,-3.8335,-3.8166,-3.7322,-3.7658,-3.7849,0.0,0.0,0.0,0.0,0.0,0.0,0.0,0.0,0.0,0.0,0.0,-3.2453,-3.3253,-3.3356,0.0,-3.6547,-3.6118,-3.5935,-3.5899,-3.5827,-3.5631,-3.5359,-3.5049,-3.4205,0.0,-3.192,-3.1205,-3.064,0.0,-2.9513,-2.9412,0.0,0.0,0.0,-2.8572,-2.7837,0.0,0.0,-2.7031,-2.6197,-2.5212,-2.4761,-2.4105,-2.2668,-2.155,-2.0968,-2.1345,-2.0577,-2.0213,-2.0944,-2.0689,-2.0918,-2.219,-2.1875,-2.1549,-2.1549,-2.0461,-1.9066,-1.7379,-1.6046,-1.5904,-1.729,-1.6183,-1.5714,-1.6178,-1.5856,-1.5948,-1.6561,-1.6415,-1.6787,-1.7634,-1.7133,-1.6728,-1.6347,-1.6262,-1.6055,-1.5782,-1.5536,-1.5299,-1.5102,-1.4624,-1.4351,-1.42,-1.3342,-1.2729,-1.2162,-1.1101,-1.0652,-1.0553,-3.7357,0.0,0.0,0.0,0.0,0.0,0.0,0.0,0.0,-4.1813,-4.3323,-4.3508,-4.145,-4.2489,-4.2701,-4.1143,-4.0681,0.0,-4.0739,-4.0142,-3.9265,-3.8197,-3.861,-3.8616,-3.8137,-3.8221,-3.845,0.0,0.0,0.0,0.0,0.0,0.0,0.0,0.0,0.0,0.0,0.0,0.0,-3.3456,0.0,-3.4913,-3.6129,-3.6013,-3.6033,-3.6104,-3.5838,-3.5469,-3.5129,-3.5397,-3.4789,-3.3698,-3.2206,-3.1584,0.0,0.0,0.0,0.0,0.0,0.0,0.0,0.0,0.0,-2.7066,0.0,0.0,0.0,-2.4885,-2.4655,-2.4136,-2.2446,0.0,0.0,-2.2623,0.0,0.0,0.0,-2.1742,0.0,-2.3447,-2.1844,-2.0459,-2.0227,-1.7711,-1.5986,-1.5764,-1.5092,-1.4936,-1.5482,-1.4715,-1.4364,-1.4563,-1.4035,-1.4316,-1.5461,-1.5529,-1.6196,-1.7501,-1.7342,-1.6997,-1.6495,-1.6246,-1.5981,-1.5681,-1.5463,-1.5255,-1.5043,-1.4704,-1.4401,-1.3998,-1.2641,-1.1987,-1.1628,-1.0235,-0.9823,-0.9973,-3.8186,-3.8681,0.0,0.0,0.0,0.0,0.0,0.0,0.0,0.0,-4.3703,-4.4182,-4.3893,-4.4047,-4.3797,-4.2874,-4.1393,-4.0835,-4.1604,-4.1498,-4.0732,-3.9119,-4.1107,-4.1207,-3.9006,-3.9641,-3.9298,-3.7863,0.0,0.0,0.0,0.0,0.0,0.0,-3.5117,0.0,0.0,0.0,-3.4116,0.0,-3.5939,-3.6742,0.0,-3.6177,-3.6342,-3.6851,-3.5892,-3.5345,-3.4975,0.0,-3.3201,-3.211,0.0,-3.0243,-2.9462,-2.9233,0.0,0.0,0.0,0.0,0.0,0.0,-2.7422,-2.6453,-2.7576,0.0,-2.4514,-2.502,0.0,-2.2757,-2.2559,0.0,0.0,0.0,0.0,0.0,-2.2924,-2.2137,-2.2163,-2.3998,-2.3204,-2.2088,-2.1072,-1.7343,-1.5654,-1.7224,-1.4292,-1.3593,-1.613,-1.4702,-1.4222,-1.5166,-1.4618,-1.4874,-1.6086,-1.5594,-1.6064,-1.7494,-1.7468,-1.7136,-1.6481,-1.6037,-1.5924,-1.6039,-1.571,-1.5448,-1.5225,-1.4904,-1.4305,-1.3602,-1.3625,-1.3441,-1.299,-1.1452,-1.0911,-1.0833,-3.8092,-3.8572,0.0,0.0,0.0,0.0,0.0,0.0,0.0,0.0,0.0,-4.5377,-4.4412,-4.4297,-4.4162,-4.3835,-4.2665,-4.211,-4.2458,-4.2002,-4.1142,-3.9881,-4.0803,-4.0863,-3.9813,-4.0119,-4.0177,-3.989,-3.804,0.0,0.0,0.0,0.0,0.0,-3.6504,0.0,-3.4908,0.0,-3.607,0.0,0.0,-3.7605,0.0,-3.7378,-3.712,-3.6745,-3.5832,-3.4985,-3.4241,0.0,-3.2938,0.0,0.0,0.0,0.0,-2.9214,0.0,0.0,0.0,0.0,0.0,0.0,0.0,0.0,-2.7273,0.0,-2.4687,0.0,0.0,0.0,0.0,0.0,0.0,0.0,-2.1645,-2.1582,0.0,0.0,-2.2588,-2.4012,0.0,0.0,-1.8149,-1.5857,-1.446,-1.4413,-1.2978,-1.2664,-1.3963,-1.3097,-1.2762,-1.3326,-1.3557,-1.4091,-1.4928,-1.5474,-1.625,-1.7199,-1.7165,-1.6992,-1.6707,-1.6142,-1.5606,-1.5206,-1.5416,-1.5315,-1.4861,-1.4704,-1.4388,-1.4,-1.3702,-1.3187,-1.2469,-1.1494,-1.0937,-1.0609,-3.8032,-3.8446,0.0,0.0,0.0,0.0,0.0,0.0,0.0,0.0,-4.4958,-4.6339,-4.5143,-4.4991,-4.4991,-4.4991,-4.3958,-4.3212,-4.3,-4.2352,-4.1492,-4.0345,-4.0729,-4.0864,-4.0635,-4.0368,-4.054,-4.1112,0.0,0.0,0.0,0.0,0.0,0.0,0.0,-3.7097,-3.6058,0.0,-3.7179,-3.6696,-3.7839,-3.8301,-3.8265,-3.7981,-3.7232,-3.6254,-3.5643,-3.468,-3.3695,-3.3695,-3.2788,0.0,-3.0847,0.0,-2.9935,0.0,0.0,0.0,-2.8785,0.0,0.0,0.0,0.0,0.0,0.0,0.0,0.0,0.0,0.0,0.0,0.0,0.0,-2.1359,-2.2069,0.0,-2.1215,0.0,-2.2232,0.0,0.0,0.0,0.0,0.0,-1.5663,-1.4172,-1.3075,-1.248,-1.2175,-1.2274,-1.2052,-1.194,-1.2082,-1.2687,-1.3327,-1.387,-1.5093,-1.606,-1.6712,-1.6897,-1.6897,-1.6738,-1.6234,-1.5606,-1.4904,-1.5386,-1.527,-1.4701,-1.4647,-1.447,-1.4117,-1.3535,-1.2867,-1.2171,-1.1652,-1.1106,-1.0654,-3.8174,-3.8433,-3.8628,0.0,0.0,0.0,0.0,0.0,0.0,-4.402,-4.5668,-4.68,-4.6818,-4.6742,-4.6724,-4.6724,-4.5151,-4.379,-4.2946,-4.2833,-4.2029,-4.0364,-4.1839,-4.2316,-4.1476,-4.0577,-4.0117,-4.0136,0.0,0.0,0.0,0.0,0.0,0.0,-3.7947,-3.7659,-3.7666,-3.6938,-3.6626,-3.6734,-3.8402,-3.9054,-3.8895,0.0,-3.6221,-3.5335,-3.5308,0.0,0.0,-3.3695,-3.2392,0.0,0.0,0.0,0.0,0.0,0.0,0.0,0.0,0.0,0.0,-2.821,0.0,0.0,0.0,0.0,-2.4971,0.0,0.0,0.0,0.0,0.0,-2.1603,-2.1373,-2.0909,0.0,0.0,-2.1498,-2.2319,-2.3753,0.0,0.0,0.0,-1.7851,-1.5454,-1.5218,-1.341,-1.2274,-1.2274,-1.2421,-1.2461,-1.2461,-1.2576,-1.295,-1.3607,-1.4365,-1.5146,-1.5948,-1.6785,-1.6911,-1.6409,-1.6338,-1.6123,-1.587,-1.5885,-1.5536,-1.4984,-1.4968,-1.4438,-1.3581,-1.3229,-1.3022,-1.2801,-1.2283,-1.1802,-1.1398,-3.8192,-3.8307,-3.8478,-3.8759,-3.8971,0.0,0.0,-4.2616,-4.3988,-4.4278,-4.5355,-4.6505,-4.7631,-4.6795,-4.6426,-4.7201,-4.6161,-4.4965,-4.3771,-4.3139,-4.2278,-4.1132,-4.1132,-4.1494,-4.2195,-4.1335,-4.1407,-4.242,0.0,0.0,0.0,0.0,0.0,0.0,0.0,-3.8917,0.0,0.0,0.0,0.0,0.0,-3.8718,-3.8197,0.0,-3.6957,-3.5997,-3.4852,-3.3751,0.0,-3.2234,-3.1092,-2.9883,-2.9804,-2.9511,-2.9178,-2.9089,-2.8797,0.0,0.0,0.0,-2.8045,-2.7904,0.0,0.0,0.0,0.0,0.0,0.0,0.0,0.0,0.0,0.0,-2.1419,-2.1309,-2.0974,-2.0745,0.0,-2.1911,-2.2897,-2.3523,-2.3751,-2.3133,0.0,0.0,-1.657,-1.5404,-1.3447,-1.2323,-1.2431,-1.2578,-1.2676,-1.2783,-1.3939,-1.4501,-1.4269,-1.5347,-1.6048,-1.6355,-1.6133,-1.6254,-1.6709,-1.6347,-1.572,-1.4952,-1.5559,-1.5372,-1.4616,-1.4795,-1.4483,-1.3868,-1.3229,-1.2896,-1.2697,-1.2113,-1.1737,-1.1356,-3.8158,-3.8477,-3.8758,-3.9025,-3.9411,0.0,0.0,0.0,-4.4834,-4.4852,-4.5839,-4.6855,-4.7664,-4.6835,-4.6275,-4.6559,-4.6017,-4.4924,-4.3292,-4.2642,-4.1934,-4.1036,-4.052,-4.0823,-4.2069,-4.119,-4.1241,-4.2248,0.0,-3.9491,0.0,0.0,0.0,0.0,0.0,-3.9041,-3.8283,-3.8974,-3.9413,0.0,0.0,-3.8782,0.0,0.0,-3.6687,-3.5484,0.0,-3.2858,-3.1893,-3.1362,-3.0432,-2.9472,-2.9373,-2.9188,-2.9007,-2.8929,-2.8558,-2.8139,-2.8139,-2.7908,0.0,-2.7535,-2.7522,0.0,-2.7355,0.0,-2.5749,0.0,0.0,0.0,0.0,0.0,0.0,-2.1183,-2.0778,-2.0615,0.0,-2.2081,-2.2801,-2.2987,-2.3808,-2.3703,-2.1919,-1.9982,-1.8086,-1.6291,-1.4507,-1.3216,0.0,0.0,-1.2832,-1.2881,-1.4208,-1.4597,-1.396,-1.5188,-1.5715,-1.5566,-1.5575,-1.5813,-1.6276,-1.6197,-1.5682,-1.4813,-1.5286,-1.5125,-1.4471,-1.4519,-1.4337,-1.3947,-1.3263,-1.2896,-1.2697,-1.2029,-1.159,-1.1132,-3.8267,-3.8952,-3.9549,0.0,-4.0579,0.0,0.0,0.0,-4.5527,0.0,-4.6947,-4.7634,-4.7014,-4.6826,-4.6232,-4.4962,-4.4762,-4.379,-4.1609,-4.1475,-4.1035,-4.0095,-4.0057,-4.0414,-4.1162,-4.0291,-3.9863,-3.9958,0.0,0.0,0.0,0.0,0.0,0.0,-3.8463,0.0,-3.7389,-3.7427,-3.8,-3.8956,-3.991,-3.9185,-3.7452,-3.6705,-3.5359,-3.3746,-3.2936,-3.2007,-3.1191,-3.1153,-3.0394,-2.9492,-2.9412,-2.906,-2.8718,-2.8676,-2.8299,-2.7869,-2.7783,-2.7547,-2.7241,-2.7181,0.0,0.0,0.0,0.0,-2.5397,0.0,0.0,0.0,0.0,0.0,0.0,-2.1003,-2.0354,-2.0382,-2.1726,-2.2048,-2.2202,-2.2294,-2.3486,-2.4015,-2.332,-2.1697,-1.9859,-1.7914,-1.6529,-1.4843,0.0,0.0,-1.2969,-1.2881,-1.3344,-1.3367,-1.2888,-1.3914,-1.4217,-1.3806,-1.5188,-1.5575,-1.514,-1.5925,-1.6009,-1.5477,-1.5195,-1.489,-1.4596,-1.4246,-1.398,-1.3754,-1.3378,-1.3057,-1.2756,-1.2066,-1.1404,-1.085,-3.9499,-4.0456,-4.1162,0.0,-4.1643,-4.2081,0.0,0.0,0.0,0.0,-4.4798,-4.5072,-4.607,-4.5109,-4.4332,-4.4229,-4.3623,0.0,-4.1014,-4.0858,-4.0433,-3.9537,-3.947,-3.984,-4.0735,-4.1135,-4.168,-4.2389,0.0,0.0,-4.1041,0.0,0.0,0.0,0.0,-3.8011,-3.7231,-3.8029,-3.8852,-3.965,-3.9899,-3.8649,-3.6558,0.0,-3.4023,-3.1962,-3.1752,-3.1464,-3.108,-3.0333,-2.9814,-2.9453,-2.906,-2.8837,-2.8628,-2.8281,-2.784,-2.7439,-2.7348,-2.7115,-2.6841,-2.6825,-2.6791,-2.6758,0.0,0.0,0.0,0.0,0.0,0.0,0.0,0.0,0.0,-2.1276,-2.1283,-2.1605,-2.2329,-2.2722,-2.2802,-2.2531,-2.2717,-2.2758,-2.2602,-2.1161,-1.9826,-1.8818,-1.7542,-1.5753,0.0,0.0,0.0,-1.2949,-1.3344,-1.37,-1.3889,-1.3811,-1.4111,-1.4837,-1.4955,-1.5032,-1.514,-1.5883,-1.5991,-1.558,-1.5786,-1.5447,-1.4732,-1.446,-1.4122,-1.3754,-1.3378,-1.2731,-1.2066,-1.1884,-1.133,-1.0611,-3.9998,-4.1015,-4.1832,-4.2268,0.0,0.0,-4.2629,-4.3411,0.0,-4.4601,-4.4288,0.0,-4.4782,-4.3718,-4.2805,-4.2414,-4.1924,0.0,-4.0253,0.0,0.0,-3.9287,-3.9171,-3.9394,-3.997,-4.0483,-4.0854,-4.1116,0.0,0.0,-4.0365,0.0,0.0,0.0,0.0,-3.7393,-3.6652,-3.7662,-3.8537,-3.9169,-3.8902,-3.7542,0.0,-3.4774,-3.314,-3.12,-3.0755,-3.0572,-3.0464,-2.9886,-2.9513,-2.923,-2.8906,-2.8578,-2.8228,-2.7926,-2.7457,-2.7019,-2.6956,-2.6725,-2.6504,-2.64,-2.6365,-2.633,-2.6225,-2.5977,-2.5652,0.0,-2.4654,-2.3766,0.0,0.0,0.0,-2.0983,-2.1432,-2.1979,-2.2491,-2.2637,-2.272,-2.2705,-2.2254,-2.2085,-2.2491,-2.1491,-2.0552,-1.9812,-1.8847,0.0,0.0,0.0,0.0,-1.3268,-1.3658,-1.3931,-1.3978,-1.368,-1.3813,-1.445,-1.4498,-1.4567,-1.4654,-1.5654,-1.5881,-1.5477,-1.5507,-1.5178,-1.4578,-1.4187,-1.3875,-1.3661,-1.3126,-1.2449,-1.1689,-1.1616,-1.1169,-1.0534,-4.0241,-4.1085,0.0,0.0,0.0,0.0,0.0,-4.3707,0.0,-4.4254,0.0,-4.3921,-4.3259,-4.247,-4.1503,-4.0352,-4.0158,-3.9854,-3.9395,-3.9242,-3.9107,-3.8943,-3.8823,-3.885,-3.8989,-3.9127,-3.8992,0.0,0.0,0.0,0.0,0.0,0.0,0.0,0.0,0.0,0.0,-3.6873,-3.7585,-3.8056,-3.7435,-3.6154,-3.4563,-3.3791,-3.2464,-3.0875,-2.998,-2.9644,-2.9644,-2.9608,-2.9297,-2.8906,-2.8742,-2.8272,-2.7754,-2.7565,-2.7117,-2.6674,-2.6572,-2.6382,-2.6189,-2.5917,-2.586,-2.5787,-2.5562,-2.5278,-2.5068,-2.5029,-2.4084,-2.3062,0.0,0.0,0.0,0.0,0.0,0.0,-2.2292,-2.2159,-2.2245,-2.2679,-2.1988,0.0,-2.2739,-2.2216,-2.1546,-2.0822,-2.0386,0.0,0.0,0.0,0.0,-1.3892,-1.413,-1.4118,-1.38,0.0,-1.3517,-1.3622,-1.4075,-1.4202,-1.4089,-1.5419,-1.5778,-1.5328,-1.4939,-1.4617,-1.4374,-1.3822,-1.3602,-1.3467,-1.2849,-1.2198,-1.1568,-1.1319,-1.0943,-1.0467,-4.116,-4.139,0.0,0.0,0.0,-4.1582,-4.1922,-4.2214,-4.2466,-4.2466,-4.1898,-4.1476,-4.1452,-4.072,-4.0166,-3.9994,-3.927,0.0,0.0,0.0,0.0,-3.7497,-3.7534,-3.7713,-3.7979,-3.872,-3.9544,0.0,0.0,0.0,0.0,0.0,0.0,0.0,0.0,0.0,-3.5866,-3.6696,0.0,-3.7141,-3.6381,-3.5136,-3.3638,-3.2864,-3.1468,-2.9906,-2.9513,-2.936,-2.9341,-2.9111,-2.8842,-2.8529,-2.8102,-2.7823,-2.7542,-2.7135,-2.6842,-2.6521,-2.6206,-2.6026,-2.5917,-2.5733,-2.5546,-2.5371,-2.5224,-2.4989,-2.4822,-2.4661,-2.39,-2.3047,-2.2193,0.0,0.0,0.0,0.0,0.0,0.0,-2.1739,-2.2075,-2.2302,-2.1686,-2.1677,-2.279,-2.2435,-2.2005,-2.17,0.0,0.0,0.0,0.0,0.0,0.0,-1.4646,0.0,0.0,0.0,-1.3732,-1.4161,-1.4185,-1.4228,-1.4292,-1.5584,-1.597,-1.5638,-1.565,-1.5212,-1.447,-1.4319,-1.3868,-1.3216,-1.2779,-1.2198,-1.1542,-1.0954,-1.0582,-1.0361,-4.0787,0.0,0.0,0.0,0.0,0.0,0.0,-4.0563,-4.0583,-4.1232,-4.0646,-4.0203,-4.0273,-3.9561,-3.8935,-3.8528,-3.8478,-3.8081,-3.7259,-3.7499,-3.7307,-3.6508,-3.6903,-3.7197,-3.7344,-3.8193,-3.8992,-3.9769,0.0,0.0,0.0,0.0,0.0,0.0,0.0,-3.5329,0.0,0.0,0.0,-3.6208,-3.4955,-3.3746,-3.261,-3.1645,-3.046,-2.9297,-2.8986,-2.8764,-2.8621,-2.8682,-2.8478,-2.8139,-2.7794,-2.7517,-2.7227,-2.6875,-2.6555,-2.6241,-2.6046,-2.5881,-2.5712,-2.5508,-2.5317,-2.5162,-2.4989,-2.454,-2.4091,-2.3915,-2.2939,-2.1828,-2.0956,-2.0884,0.0,0.0,0.0,0.0,0.0,0.0,-2.1269,-2.1368,-2.1206,-2.1394,-2.2279,-2.2157,-2.2049,0.0,0.0,0.0,0.0,0.0,0.0,0.0,0.0,0.0,0.0,0.0,0.0,-1.432,-1.4671,-1.4646,-1.4322,-1.5295,-1.5711,-1.5653,-1.568,-1.5211,-1.4356,-1.4057,-1.3496,-1.2814,-1.2673,-1.2043,-1.1244,-1.0764,-1.0312,-0.9873,-3.9537,-3.9904,0.0,0.0,-4.0341,-4.0104,-3.9619,-3.8928,-3.8939,-4.0202,-3.969,-3.9195,-3.9079,-3.8496,-3.7817,-3.7015,-3.7525,-3.7343,-3.6055,-3.6521,-3.6458,-3.5592,-3.6141,-3.654,-3.6699,-3.7185,-3.7758,0.0,0.0,0.0,0.0,0.0,0.0,0.0,0.0,0.0,0.0,0.0,-3.4617,-3.5101,-3.3403,-3.234,-3.1648,-3.0411,-2.9504,-2.886,-2.8529,-2.8192,-2.7936,-2.8148,-2.8002,-2.7725,-2.753,-2.7227,-2.6892,-2.6657,-2.6314,-2.5974,-2.5864,-2.5696,-2.5454,-2.5064,-2.49,-2.4736,-2.4374,-2.3764,-2.3266,-2.3271,-2.2262,-2.1129,-2.0228,-2.0798,0.0,0.0,0.0,0.0,0.0,0.0,-2.0429,-2.033,-2.0514,-2.0884,-2.1557,-2.1757,0.0,0.0,0.0,0.0,-2.0372,0.0,0.0,0.0,0.0,-1.6887,-1.5789,0.0,-1.5814,-1.4671,-1.5235,-1.5165,-1.4629,-1.5161,-1.5519,-1.5697,-1.5565,-1.509,-1.4287,-1.3715,-1.3104,-1.2508,-1.2567,-1.1934,-1.0943,-1.0601,-1.0069,-0.9399,0.0,0.0,0.0,0.0,0.0,0.0,-3.7959,-3.7694,-3.7893,-3.9103,-3.8546,-3.7857,-3.7398,-3.7285,-3.6934,-3.6176,-3.6133,-3.6066,-3.5921,-3.5919,-3.5467,-3.4492,-3.4697,-3.5108,-3.5706,-3.5211,-3.5678,0.0,0.0,-3.7257,0.0,0.0,0.0,0.0,0.0,0.0,0.0,-3.385,-3.3716,-3.3643,-3.1846,-3.1101,-3.0917,-2.9362,-2.8676,-2.8504,-2.8156,-2.788,-2.7601,-2.7396,-2.7289,-2.7244,-2.712,-2.6925,-2.6657,-2.628,-2.6085,-2.5917,-2.547,-2.5333,-2.5096,-2.4153,-2.3934,-2.3723,-2.2907,-2.2554,-2.2563,-2.3029,-2.2859,-2.2385,-2.1486,-2.138,-2.1333,0.0,0.0,0.0,0.0,0.0,-2.0006,-1.9488,-1.9639,-2.0012,-2.0571,-2.1561,0.0,0.0,-2.2099,0.0,0.0,0.0,0.0,-1.9383,0.0,-1.8211,-1.8098,-1.7132,-1.6415,-1.5929,-1.5824,-1.5688,-1.5574,-1.5697,-1.583,-1.594,-1.5754,-1.5226,-1.4438,-1.3769,-1.3104,-1.2508,-1.2508,-1.1909,-1.0905,-1.0234,-0.9776,-0.927,0.0,0.0,0.0,0.0,0.0,0.0,0.0,-3.5514,-3.5839,-3.6434,-3.688,-3.6874,-3.6098,-3.6208,-3.5779,-3.4395,-3.4708,-3.4382,-3.2936,-3.3196,-3.3014,-3.2127,-3.2601,-3.2965,-3.303,-3.372,-3.4393,0.0,0.0,0.0,0.0,0.0,0.0,0.0,0.0,-3.3816,-3.3421,-3.3306,-3.3248,-3.3103,-3.1444,-3.0802,-3.0621,-2.8856,-2.8129,-2.802,-2.7666,-2.7444,-2.7272,-2.707,-2.7023,-2.699,-2.6842,-2.659,-2.628,-2.6085,-2.5828,-2.5508,-2.5262,-2.5084,-2.4784,-2.3842,-2.3554,-2.3289,-2.2509,-2.1918,-2.1576,-2.1736,-2.1588,-2.1326,-2.0971,-2.1184,-2.124,0.0,0.0,0.0,0.0,0.0,0.0,-1.8574,-1.8604,-1.899,-1.9753,-2.0892,0.0,0.0,0.0,0.0,0.0,0.0,0.0,-2.0756,0.0,-1.8515,-1.8405,-1.8227,-1.7446,-1.6115,-1.6676,-1.6423,-1.5462,-1.5484,-1.5534,-1.5551,-1.5106,-1.4645,-1.4181,-1.3735,-1.3126,-1.2508,-1.2532,-1.1934,-1.0933,-1.0485,-0.9981,-0.931,-3.3535,0.0,-3.3832,0.0,-3.3673,-3.3786,-3.3151,-3.3567,-3.3868,-3.3705,-3.4532,-3.4968,-3.463,-3.4792,-3.4258,-3.2517,-3.2942,-3.2565,-3.0859,-3.1184,-3.1166,-3.0535,-3.1052,0.0,-3.1243,-3.2105,-3.2808,-3.3316,-3.4534,0.0,0.0,0.0,0.0,0.0,-3.3571,-3.3163,-3.2903,-3.284,-3.2791,-3.2666,-3.1021,-3.0368,-3.019,-2.8382,-2.7654,-2.7582,-2.7213,-2.707,-2.6956,-2.6842,-2.6742,-2.6623,-2.664,-2.6367,-2.6049,-2.5848,-2.5546,-2.5201,-2.4989,-2.4705,-2.4193,-2.3297,-2.2894,-2.2494,-2.172,-2.109,-2.0736,-2.1008,-2.0917,-2.0856,-2.102,-2.1255,-2.1341,-2.0964,0.0,0.0,0.0,-1.9069,0.0,-1.8343,-1.8385,-1.8673,-1.921,-2.0309,0.0,0.0,0.0,0.0,0.0,0.0,0.0,0.0,0.0,0.0,0.0,-1.9022,-1.8226,-1.6527,-1.7287,-1.69,-1.5502,-1.5434,-1.5294,-1.5165,-1.4658,-1.4278,-1.4,-1.3702,-1.3173,-1.2496,-1.2449,-1.1825,-1.0943,-1.0457,-0.9785,-0.8933,-3.0873,-3.0873,-3.0857,-3.0857,-3.147,-3.1854,-3.1593,-3.2148,-3.2221,-3.1185,-3.123,-3.1774,-3.2813,-3.2934,-3.2309,-3.0784,-3.0641,-3.0641,-3.0606,-3.0624,-3.0517,0.0,0.0,-3.055,-3.1078,-3.0326,-3.066,-3.2126,0.0,0.0,-3.2692,0.0,-3.4163,-3.4002,-3.4049,-3.3573,-3.2702,-3.242,-3.2318,-3.2143,-3.0351,-2.9591,-2.9435,-2.7831,-2.7213,-2.7181,-2.6975,-2.6825,-2.6691,-2.664,-2.6347,-2.6046,-2.6314,-2.6225,-2.5937,-2.553,-2.5262,-2.5029,-2.462,-2.4002,-2.3281,-2.234,-2.1659,-2.1002,-2.0223,-1.9899,-2.0115,-2.1277,-2.1524,-2.1741,-2.2172,-2.1913,-2.1752,-2.2109,0.0,0.0,0.0,-1.9948,0.0,-1.9128,-1.9309,-1.9314,-1.8945,-2.0059,0.0,0.0,0.0,0.0,0.0,0.0,0.0,-2.1425,-2.127,0.0,-2.0104,-1.9424,-1.8555,-1.7466,-1.751,-1.6967,-1.5978,-1.5724,-1.5345,-1.4876,-1.4627,-1.431,-1.4,-1.3702,-1.3173,-1.2473,-1.2126,-1.1594,-1.0857,-0.9864,-0.8924,-0.796,-2.8842,-2.8748,-2.8607,-2.8077,-2.8554,-2.9004,-2.9173,-2.977,-3.0191,-3.0127,-3.0208,-3.0234,-3.0036,-3.0823,-3.0868,0.0,-2.9627,-2.9414,0.0,-2.8694,-2.8576,-2.8456,-2.8473,-2.8504,-2.8595,-2.931,-2.9901,-3.0335,0.0,0.0,0.0,-3.312,-3.2946,-3.2369,-3.2476,-3.2318,-3.1949,-3.1858,-3.1509,-3.092,-2.9798,-2.899,-2.8391,-2.7366,-2.694,-2.6825,-2.6725,-2.6674,-2.6589,-2.6277,-2.6099,-2.5974,-2.5791,-2.5551,-2.5362,-2.5224,-2.495,-2.4645,-2.4441,-2.3825,-2.3084,-2.2146,-2.1455,-2.0782,-1.9906,-1.9398,-1.9319,-2.0056,-1.9921,-1.9972,-2.0951,-2.0945,-2.0819,-2.0959,-2.0751,0.0,-1.9656,0.0,-1.8719,-1.8519,-1.8725,-1.8762,-1.852,-1.9842,0.0,0.0,0.0,0.0,0.0,0.0,0.0,0.0,-2.159,0.0,-2.0323,-1.982,-1.8932,-1.773,-1.7844,-1.7166,-1.5782,-1.5566,-1.5165,-1.469,-1.4564,-1.4259,-1.3874,-1.3775,-1.3446,-1.2943,-1.2644,-1.193,-1.1002,-1.0496,-0.9441,-0.8105,-2.6854,-2.7038,-2.7036,-2.6264,-2.6718,-2.715,-2.7006,-2.7392,-2.7902,-2.8425,-2.8385,-2.8291,-2.8216,-2.8925,0.0,-2.8534,-2.8546,-2.8352,-2.7859,-2.7689,-2.76,-2.7557,-2.7557,-2.7513,-2.7407,-2.8293,0.0,-2.9506,-3.1543,-3.249,-3.2397,-3.2355,-3.2021,-3.1504,-3.1634,-3.1596,-3.147,-3.125,-3.0874,-3.0287,-2.9193,-2.8458,-2.7896,-2.7097,-2.6742,-2.6657,-2.6452,-2.6382,-2.6312,-2.5901,-2.5717,-2.5589,-2.5301,-2.4974,-2.4815,-2.4895,-2.463,-2.4256,-2.383,-2.3198,-2.2409,-2.1519,-2.0812,-2.0191,-1.9627,-1.9265,-1.9161,-1.9703,-1.9388,-1.9375,-2.0588,-2.0579,-2.0441,-2.0547,-2.0326,-1.9935,-1.9266,0.0,-1.8488,0.0,0.0,0.0,0.0,-1.9938,-2.0645,0.0,0.0,0.0,0.0,0.0,0.0,-2.3423,-2.1804,0.0,-2.0201,-1.9716,-1.8895,-1.7787,-1.7468,-1.6726,-1.5609,-1.5344,-1.5013,-1.4596,-1.4564,-1.4273,-1.3801,-1.401,-1.3683,-1.3035,-1.2985,-1.2204,-1.1065,-1.0294,-0.9199,-0.7849,-2.4952,-2.5525,-2.5859,0.0,-2.5669,0.0,-2.5076,-2.5173,-2.5587,-2.6319,-2.6064,-2.6236,-2.7276,-2.7421,-2.7465,-2.7465,0.0,0.0,0.0,-2.7496,-2.7496,-2.7496,-2.7496,-2.7452,-2.7376,-2.7428,-2.8122,-2.9506,-3.0812,-3.1462,-3.1425,-3.1384,-3.1291,-3.1142,-3.1308,-3.1253,-3.1091,-3.054,-3.027,-3.0099,-2.8594,-2.7947,-2.7793,-2.6893,-2.6572,-2.6503,-2.6134,-2.5974,-2.5901,-2.5492,-2.5262,-2.5052,-2.4815,-2.4533,-2.4317,-2.4508,-2.4297,-2.3823,-2.3009,-2.2194,-2.1425,-2.0697,-1.996,-1.9376,-1.9376,-1.9339,-1.9403,-2.0007,-1.9632,-1.9628,-2.0845,-2.069,-2.0473,-2.0694,-2.0271,-1.9765,-1.9321,-1.8683,-1.8686,0.0,0.0,0.0,0.0,-2.0151,-1.992,0.0,0.0,0.0,0.0,0.0,-2.3955,-2.2727,-2.1902,-2.098,-1.9922,-1.9248,-1.8501,-1.7697,-1.6575,-1.5816,-1.5418,-1.5134,-1.4845,-1.4564,-1.4564,-1.4287,-1.3879,-1.4337,-1.3888,-1.2912,-1.3116,-1.2425,-1.1117,-0.9553,-0.8363,-0.7317,0.0,0.0,-2.297,-2.2778,-2.3069,-2.3313,-2.3423,-2.4042,-2.4745,-2.5564,-2.6017,-2.6472,-2.7023,-2.7152,-2.7166,-2.7137,-2.7341,-2.7496,-2.7496,-2.7496,-2.7483,-2.7438,-2.7438,-2.7376,-2.733,-2.7883,-2.8592,-2.9403,-2.9868,-2.9918,-2.9721,-2.9936,-2.99,-2.9632,-2.9756,-2.9756,-2.9595,-2.9406,-2.8943,-2.8296,-2.7887,-2.7293,-2.6686,-2.6467,-2.6241,-2.6026,-2.5954,-2.577,-2.5492,-2.5262,-2.5052,-2.4815,-2.4492,-2.4261,-2.4094,-2.4204,-2.3671,-2.3039,-2.278,-2.1744,-2.0742,-2.0478,-1.9885,-1.9339,-1.9339,-1.8988,-1.8839,-1.9424,-1.9003,-1.8782,-1.9535,-2.0124,-2.0183,-1.9377,-1.9763,-1.9697,-1.8303,-1.8549,-1.8823,0.0,-1.9647,-2.017,-1.9886,-1.9665,-1.9812,0.0,0.0,0.0,0.0,-2.2913,-2.3216,-2.2626,-2.175,-2.0874,-2.0074,-1.9214,-1.819,-1.6952,-1.6459,-1.5739,-1.4814,-1.5013,-1.4828,-1.4383,-1.4259,-1.4286,-1.4376,-1.4088,-1.3906,-1.3741,-1.3197,-1.2431,-1.147,-0.9943,-0.8595,-0.7317,-2.2466,-2.2652,-2.2707,-2.2022,-2.2315,-2.2601,-2.258,-2.2995,-2.3787,-2.5089,-2.5485,-2.593,-2.6641,-2.6925,-2.7023,-2.7007,-2.7233,-2.7373,-2.7324,-2.7373,-2.7407,-2.7362,-2.7296,-2.7264,-2.7201,-2.7581,-2.8115,-2.8819,-2.9197,-2.9281,-2.9104,-2.9193,-2.9157,-2.8977,-2.9011,-2.8975,-2.8887,-2.8421,-2.7998,-2.7595,-2.7081,-2.659,-2.6154,-2.6134,-2.5974,-2.5733,-2.5584,-2.5416,-2.5224,-2.4855,-2.4655,-2.4492,-2.4177,-2.3812,-2.3428,-2.3387,-2.3047,-2.2517,-2.1879,-2.102,-2.0283,-1.9888,-1.9514,-1.9176,-1.9101,-1.886,-1.8676,-1.8871,-1.8658,-1.8561,-1.9203,-1.9658,-1.9759,-1.9015,-1.9377,-1.9308,-1.7991,-1.8222,-1.8658,-1.8913,-1.9377,-1.9822,-2.0053,-1.94,-1.9287,-2.0069,-1.9821,0.0,-2.0803,-2.1584,-2.2062,-2.2217,-2.1586,-2.0779,-1.9875,-1.897,-1.7974,-1.6825,-1.6479,-1.5844,-1.5031,-1.483,-1.456,-1.43,-1.4208,-1.4346,-1.4598,-1.4572,-1.4435,-1.4189,-1.3826,-1.3097,-1.1935,-0.974,-0.8328,-0.7199,-2.2473,-2.2983,-2.3126,-2.2003,-2.237,-2.2646,-2.2217,-2.2279,-2.2995,-2.4657,-2.4862,-2.525,-2.623,-2.6708,-2.6942,-2.6942,-2.7154,-2.7218,-2.7103,-2.7201,-2.725,-2.725,-2.7152,-2.707,-2.707,-2.704,-2.7282,-2.7913,-2.8509,-2.8764,-2.871,-2.8566,-2.8511,-2.8454,-2.8343,-2.8306,-2.8273,-2.7454,-2.7171,-2.7231,-2.6346,-2.5974,-2.5937,-2.5844,-2.5696,-2.5492,-2.5169,-2.5013,-2.4895,-2.4426,-2.4158,-2.3998,-2.3731,-2.3152,-2.2555,-2.2259,-2.2147,-2.1869,-2.0729,-2.0167,-1.9783,-1.9194,-1.9026,-1.8988,-1.8822,-1.8784,-1.8721,-1.8556,-1.8478,-1.8618,-1.9123,-1.9291,-1.9265,-1.91,-1.9059,-1.881,-1.8085,0.0,-1.8398,-1.9398,-1.9171,-1.9307,-2.0265,-1.927,-1.8679,-1.8961,-1.8865,-1.8893,-1.9086,-2.002,-2.0811,-2.1326,-2.1148,-2.0512,-1.9383,-1.8571,-1.7767,-1.6946,-1.6496,-1.6062,-1.5557,-1.4684,-1.4363,-1.4459,-1.4365,-1.4532,-1.4899,-1.5242,-1.5047,-1.4522,-1.4418,-1.3647,-1.2234,-0.9259,-0.7889,-0.705,-2.0861,-2.1028,-2.1315,-2.1674,-2.1873,-2.1982,-2.1877,-2.2464,-2.313,-2.3733,-2.4598,-2.5352,-2.5997,-2.6487,-2.6742,-2.6742,-2.6925,-2.704,-2.7007,-2.704,-2.7057,-2.7057,-2.704,-2.7007,-2.7007,-2.6959,-2.6977,-2.7096,-2.7296,-2.7265,-2.6977,-2.7114,-2.7063,-2.6855,-2.6662,-2.659,-2.6573,-2.6313,-2.6138,-2.6012,-2.593,-2.5807,-2.5642,-2.553,-2.5339,-2.513,-2.4934,-2.4655,-2.4385,-2.4204,-2.3588,-2.2942,-2.2968,-2.2338,-2.151,-2.0971,-2.0573,-2.0266,-2.0049,-1.9394,-1.8786,-1.8812,-1.8721,-1.862,-1.8784,-1.8644,-1.8556,-1.8517,-1.8361,-1.827,-1.8353,-1.8659,-1.8877,-1.8835,-1.8848,-1.8681,-1.8315,0.0,-1.8611,-1.8512,-1.9118,-1.9632,-1.9809,-1.8983,-1.8425,-1.8511,-1.8138,-1.7946,-1.8122,-1.9183,-1.9626,-1.9376,-1.9792,-1.9518,-1.842,-1.8084,-1.7544,-1.6755,-1.6436,-1.601,-1.5488,-1.4654,-1.4674,-1.5273,-1.4761,-1.5168,-1.6049,-1.5235,-1.4953,-1.4862,-1.3773,-1.2816,-1.1719,-0.9121,-0.7958,-0.6988,-2.0966,-2.102,-2.106,-2.1063,-2.1087,-2.127,-2.1723,-2.2354,-2.3087,-2.3997,-2.4627,-2.5078,-2.5365,-2.5798,-2.5914,-2.5541,-2.6317,-2.6689,-2.6265,-2.672,-2.7007,-2.7007,-2.6959,-2.6893,-2.6775,-2.6742,-2.6725,-2.6691,-2.6657,-2.6538,-2.6382,-2.6297,-2.6262,-2.6206,-2.5974,-2.5954,-2.6026,-2.5733,-2.5642,-2.5642,-2.553,-2.5416,-2.5339,-2.5169,-2.4974,-2.4766,-2.4589,-2.4343,-2.4048,-2.3516,-2.299,-2.2524,-2.2152,-2.1505,-2.0769,-2.0314,-1.9812,-1.9372,-1.9202,-1.8846,-1.8517,-1.862,-1.8581,-1.8517,-1.8503,-1.8425,-1.8321,-1.8202,-1.8083,-1.8043,-1.8043,-1.8181,-1.833,-1.833,-1.8518,0.0,0.0,-1.8876,-1.9078,-1.9047,-1.9007,-1.9024,-1.9111,-1.8345,-1.7858,-1.7858,-1.7593,-1.7442,-1.742,-1.8331,-1.871,-1.8426,-1.8845,-1.8838,-1.8361,-1.7963,-1.7626,-1.7237,-1.675,-1.634,-1.6033,-1.5349,-1.522,-1.5474,-1.5199,-1.5401,-1.5911,-1.5444,-1.4914,-1.437,-1.3543,-1.2277,-1.0676,-0.8611,-0.6672,-0.4678,-2.1093,-2.1163,-2.1085,-2.0754,-2.0694,-2.0935,-2.1629,-2.2041,-2.2694,-2.3782,-2.4175,-2.4346,-2.4452,-2.4879,-2.4991,-2.4512,-2.5492,-2.5914,-2.5324,-2.5961,-2.6551,-2.6925,-2.6893,-2.6759,-2.6589,-2.6421,-2.6286,-2.6183,-2.5861,-2.5657,-2.557,-2.552,-2.5566,-2.5655,-2.5577,-2.5621,-2.5696,-2.5394,-2.5317,-2.5339,-2.513,-2.5013,-2.495,-2.4799,-2.4614,-2.4385,-2.405,-2.3838,-2.3564,-2.2709,-2.2215,-2.1869,-2.127,-2.0602,-1.9958,-1.967,-1.9223,-1.875,-1.8517,-1.84,-1.8361,-1.8386,-1.8361,-1.8282,-1.8163,-1.8069,-1.7989,-1.7828,-1.7788,-1.7788,-1.7788,-1.7788,-1.7842,-1.7977,0.0,0.0,0.0,-1.8913,-1.8986,-1.9381,-1.8682,-1.8222,-1.8336,-1.7781,-1.7404,-1.7404,-1.7253,-1.7115,-1.696,-1.7733,-1.8135,-1.8108,-1.8386,-1.8517,-1.8517,-1.8003,-1.772,-1.7679,-1.7049,-1.6704,-1.6692,-1.6006,-1.5783,-1.5879,-1.562,-1.5568,-1.5615,-1.541,-1.4701,-1.3704,-1.3161,-1.1743,-0.9695,-0.7725,-0.5257,-0.2588,-2.0172,-2.0406,-2.0676,-2.1222,-2.1311,-2.138,-2.1505,-2.156,-2.167,-2.1854,-2.2514,-2.302,-2.3143,-2.3784,-2.4245,-2.4322,-2.4406,-2.4456,-2.4406,-2.4456,-2.5142,-2.6674,-2.6657,-2.6589,-2.652,-2.5849,-2.5397,-2.5212,-2.458,-2.41,-2.3832,-2.4519,-2.4759,-2.4632,-2.5104,-2.5278,-2.5185,-2.5146,-2.4934,-2.471,-2.4839,-2.4775,-2.4539,-2.44,-2.4245,-2.4002,-2.3119,-2.2825,-2.2637,-2.1802,-2.098,-2.0348,-2.0211,-1.9604,-1.8893,-1.8725,-1.8492,-1.8242,-1.8242,-1.8083,-1.7963,-1.8002,-1.7909,-1.7801,-1.7882,-1.7733,-1.7557,-1.7516,-1.7516,-1.7516,-1.7516,-1.7516,-1.7689,-1.8278,0.0,0.0,-1.9075,-1.8315,-1.7862,-1.8435,-1.7956,-1.7583,-1.7583,-1.7487,-1.7404,-1.7404,-1.7183,-1.696,-1.6918,-1.7598,-1.8147,-1.8461,-1.8503,-1.8517,-1.8517,-1.8083,-1.7801,-1.7679,-1.7101,-1.6983,-1.7299,-1.619,-1.6218,-1.7001,-1.6036,-1.5671,-1.5721,-1.4839,-1.4009,-1.3151,-1.2318,-1.1023,-0.9164,-0.6197,-0.4184,-0.2126,-1.9459,-1.954,-1.9704,-2.0029,-2.0112,-2.0244,-2.0735,-2.1205,-2.1681,-2.2247,-2.2556,-2.28,-2.2982,-2.3256,-2.3262,-2.2932,-2.3754,-2.4106,-2.3653,-2.4039,-2.4557,-2.5176,-2.5194,-2.5096,-2.4896,-2.4614,-2.4365,-2.4112,-2.3714,-2.3481,-2.3342,-2.3943,-2.4259,-2.4255,-2.4782,-2.4989,-2.4926,-2.4335,-2.4045,-2.3856,-2.3421,-2.3149,-2.3047,-2.2858,-2.2722,-2.2556,-2.2113,-2.1876,-2.165,-2.0921,-2.0342,-1.9883,-1.9425,-1.8984,-1.8567,-1.8319,-1.8002,-1.7774,-1.7774,-1.7788,-1.7801,-1.7828,-1.7693,-1.757,-1.7652,-1.757,-1.7516,-1.7516,-1.7516,-1.7516,-1.7516,-1.7516,-1.7596,-1.7809,0.0,-1.8123,-1.8675,-1.853,-1.8381,-1.8422,-1.8094,-1.7731,-1.7363,-1.7212,-1.7128,-1.7099,-1.7015,-1.6876,-1.6761,-1.724,-1.7679,-1.7988,-1.7828,-1.7868,-1.8042,-1.7652,-1.7584,-1.7842,-1.7424,-1.7303,-1.7447,-1.6996,-1.6956,-1.7186,-1.6536,-1.5959,-1.5389,-1.4731,-1.3509,-1.2009,-1.1101,-0.9623,-0.7588,-0.4753,-0.2375,0.0128,-1.8874,-1.895,-1.9026,-1.9139,-1.9176,-1.9411,-1.9965,-2.0459,-2.1029,-2.1651,-2.1893,-2.2102,-2.2277,-2.2495,-2.2448,-2.1991,-2.2879,-2.3231,-2.2731,-2.3102,-2.3599,-2.4161,-2.4114,-2.3967,-2.3769,-2.3556,-2.3308,-2.3106,-2.276,-2.2545,-2.2439,-2.3016,-2.3312,-2.3322,-2.3864,-2.4069,-2.4045,-2.339,-2.3087,-2.2963,-2.2347,-2.2087,-2.2033,-2.1862,-2.1689,-2.154,-2.1213,-2.102,-2.0772,-2.0011,-1.9652,-1.9384,-1.8825,-1.8464,-1.8189,-1.7922,-1.7679,-1.7516,-1.7516,-1.7543,-1.761,-1.761,-1.7556,-1.7447,-1.7406,-1.7393,-1.7393,-1.7393,-1.7393,-1.7393,-1.7352,-1.7365,-1.7365,-1.7323,-1.7568,-1.7882,-1.8153,-1.8231,-1.8283,-1.8205,-1.7817,-1.7428,-1.7112,-1.685,-1.6765,-1.6876,-1.6876,-1.6918,-1.6905,-1.7073,-1.7269,-1.7462,-1.7284,-1.7284,-1.7544,-1.7352,-1.7406,-1.7666,-1.7611,-1.7529,-1.7516,-1.7516,-1.731,-1.7018,-1.6527,-1.5712,-1.4732,-1.41,-1.267,-1.0748,-1.0109,-0.823,-0.5487,-0.3046,-0.0471,0.2437,-1.8517,-1.8644,-1.8784,-1.8784,-1.895,-1.9139,-1.9302,-1.9302,-1.9376,-1.9574,-2.0204,-2.063,-2.0794,-2.1386,-2.1797,-2.1797,-2.1664,-2.1589,-2.1589,-2.1419,-2.2069,-2.3803,-2.3669,-2.3568,-2.3482,-2.2767,-2.2328,-2.2194,-2.1601,-2.1103,-2.0709,-2.1571,-2.1853,-2.1624,-2.2232,-2.2415,-2.2286,-2.2225,-2.211,-2.1979,-2.1901,-2.1792,-2.1674,-2.154,-2.1435,-2.1296,-2.0475,-2.0201,-2.0036,-1.9114,-1.8784,-1.8721,-1.8307,-1.7963,-1.7679,-1.7529,-1.7516,-1.7516,-1.7516,-1.7461,-1.7404,-1.7404,-1.7404,-1.735,-1.724,-1.7199,-1.7199,-1.7199,-1.7199,-1.7157,-1.7002,-1.7002,-1.696,-1.6918,-1.6876,-1.7081,-1.7632,-1.7265,-1.7166,-1.7644,-1.6879,-1.6454,-1.6876,-1.6398,-1.6299,-1.6876,-1.6876,-1.7031,-1.7271,-1.7214,-1.7144,-1.6993,-1.6879,-1.6879,-1.6993,-1.7256,-1.7323,-1.7199,-1.7556,-1.7625,-1.7516,-1.7516,-1.7214,-1.6625,-1.5752,-1.4808,-1.3729,-1.2847,-1.136,-0.9604,-0.9416,-0.6849,-0.2954,-0.0991,0.1408,0.4497,-1.8478,-1.8556,-1.8581,-1.8581,-1.862,-1.8736,-1.8912,-1.9124,-1.9406,-1.9945,-2.0361,-2.073,-2.1119,-2.134,-2.1464,-2.1464,-2.1402,-2.1388,-2.1388,-2.1262,-2.1376,-2.1924,-2.1973,-2.194,-2.181,-2.1585,-2.1391,-2.1159,-2.0987,-2.0777,-2.0592,-2.1349,-2.1592,-2.1425,-2.2068,-2.2263,-2.2041,-2.1402,-2.1114,-2.1031,-2.0393,-2.0139,-2.0064,-1.9973,-1.9935,-1.9845,-1.9373,-1.9224,-1.9157,-1.8715,-1.8503,-1.8307,-1.7963,-1.7679,-1.7474,-1.7432,-1.7378,-1.7282,-1.7157,-1.7128,-1.7183,-1.7363,-1.7308,-1.7253,-1.7199,-1.7115,-1.7086,-1.7086,-1.7002,-1.696,-1.6918,-1.6918,-1.6918,-1.6876,-1.6876,-1.694,-1.7106,-1.7033,-1.6982,-1.7106,-1.688,-1.6735,-1.6761,-1.662,-1.6565,-1.6607,-1.6565,-1.6565,-1.668,-1.6565,-1.6436,-1.6281,-1.6509,-1.6539,-1.6527,-1.685,-1.7253,-1.7706,-1.772,-1.7679,-1.7625,-1.7186,-1.674,-1.6256,-1.532,-1.4369,-1.3408,-1.2003,-1.0748,-0.9455,-0.6579,-0.4521,-0.2725,0.1086,0.3833,0.6167,-1.8242,-1.8321,-1.84,-1.84,-1.8439,-1.8556,-1.8644,-1.8822,-1.9109,-1.966,-2.007,-2.0481,-2.0909,-2.1151,-2.1309,-2.1309,-2.1246,-2.1183,-2.1119,-2.1023,-2.0974,-2.0941,-2.1038,-2.1038,-2.0941,-2.1071,-2.0974,-2.061,-2.0893,-2.0893,-2.0628,-2.1221,-2.1358,-2.1132,-2.1466,-2.147,-2.1174,-2.0712,-2.0399,-2.0147,-1.9708,-1.945,-1.9339,-1.9265,-1.9176,-1.9064,-1.886,-1.876,-1.8644,-1.8372,-1.8135,-1.7868,-1.7638,-1.7487,-1.7404,-1.735,-1.7212,-1.7115,-1.7002,-1.696,-1.7002,-1.7141,-1.7128,-1.7073,-1.7073,-1.7002,-1.696,-1.696,-1.6918,-1.6876,-1.6846,-1.6803,-1.6791,-1.6748,-1.6607,-1.6522,-1.6705,-1.6607,-1.6607,-1.6748,-1.6607,-1.6565,-1.662,-1.6436,-1.6392,-1.6436,-1.6163,-1.6076,-1.6318,-1.6231,-1.6144,-1.5988,-1.6349,-1.6509,-1.6552,-1.6905,-1.7295,-1.7625,-1.7679,-1.7584,-1.7323,-1.6824,-1.6201,-1.5499,-1.463,-1.3538,-1.2366,-1.1223,-0.9938,-0.834,-0.4952,-0.2846,-0.1208,0.3283,0.5972,0.7975,-1.7882,-1.8043,-1.8163,-1.8163,-1.8321,-1.8439,-1.8478,-1.8517,-1.8673,-1.9031,-1.9588,-2.0054,-2.041,-2.0909,-2.1246,-2.1246,-2.1151,-2.099,-2.0794,-2.0794,-2.0777,-2.0693,-2.0726,-2.0726,-2.0726,-2.1006,-2.0974,-2.0561,-2.1182,-2.1245,-2.0827,-2.1119,-2.1087,-2.0794,-2.0613,-2.0342,-1.999,-2.0166,-1.9869,-1.9413,-1.9581,-1.9508,-1.9265,-1.9139,-1.895,-1.8784,-1.8745,-1.8606,-1.8386,-1.8082,-1.776,-1.7488,-1.7432,-1.7404,-1.7391,-1.7253,-1.7115,-1.7044,-1.7002,-1.6918,-1.6876,-1.6876,-1.6876,-1.6876,-1.6876,-1.6876,-1.6876,-1.6876,-1.6876,-1.6833,-1.6718,-1.6675,-1.6633,-1.6522,-1.6151,-1.602,-1.6423,-1.6219,-1.612,-1.6479,-1.6207,-1.6132,-1.6423,-1.6064,-1.5932,-1.6349,-1.58,-1.5668,-1.6156,-1.6156,-1.6057,-1.5901,-1.625,-1.6565,-1.6778,-1.7186,-1.7352,-1.7282,-1.7502,-1.7365,-1.6795,-1.6361,-1.5608,-1.4606,-1.369,-1.2406,-1.0872,-1.0316,-0.8736,-0.6478,-0.4025,-0.134,0.1633,0.554,0.8135,1.0331,-1.7882,-1.7922,-1.7963,-1.7963,-1.8003,-1.8083,-1.8242,-1.8592,-1.8997,-1.9472,-1.998,-2.0395,-2.0679,-2.0827,-2.0893,-2.0893,-2.0893,-2.0827,-2.0726,-2.0726,-2.0677,-2.0561,-2.0745,-2.0811,-2.0761,-2.0958,-2.1071,-2.1119,-2.1277,-2.1198,-2.0942,-2.0909,-2.0811,-2.063,-2.0289,-2.001,-1.9839,-1.9617,-1.945,-1.9339,-1.925,-1.9213,-1.9101,-1.8936,-1.8822,-1.8745,-1.8464,-1.8214,-1.8042,-1.772,-1.7529,-1.7432,-1.7404,-1.7543,-1.7639,-1.7157,-1.7282,-1.7434,-1.6918,-1.6761,-1.6718,-1.6607,-1.6607,-1.665,-1.6833,-1.6803,-1.6718,-1.6718,-1.6663,-1.6565,-1.6565,-1.6522,-1.6522,-1.6522,-1.6392,-1.6337,-1.6479,-1.6318,-1.6231,-1.6479,-1.6318,-1.6088,-1.5976,-1.5756,-1.5812,-1.6188,-1.6001,-1.5901,-1.6044,-1.5603,-1.5334,-1.5289,-1.5864,-1.6083,-1.5864,-1.6909,-1.7529,-1.7747,-1.7352,-1.7076,-1.6909,-1.5632,-1.4767,-1.4147,-1.2299,-1.1173,-1.0375,-0.8489,-0.64,-0.4121,-0.1409,0.2265,0.6259,0.7896,1.1366,1.5584,-1.7882,-1.7882,-1.7882,-1.7882,-1.8069,-1.8214,-1.8333,-1.8693,-1.9147,-1.9493,-1.9874,-2.0189,-2.0444,-2.0595,-2.0662,-2.0662,-2.0662,-2.0628,-2.061,-2.0577,-2.0509,-2.0407,-2.0478,-2.0563,-2.063,-2.0665,-2.0829,-2.1166,-2.1293,-2.1182,-2.0893,-2.0763,-2.0597,-2.0379,-2.0204,-1.9925,-1.966,-1.9654,-1.9398,-1.9064,-1.9124,-1.9011,-1.8812,-1.8697,-1.8567,-1.8383,-1.8175,-1.8042,-1.7948,-1.7787,-1.7679,-1.7584,-1.7543,-1.7488,-1.7352,-1.7044,-1.7073,-1.7157,-1.6803,-1.6675,-1.6577,-1.6522,-1.6522,-1.6522,-1.6705,-1.6663,-1.662,-1.662,-1.6522,-1.6436,-1.6436,-1.6392,-1.6362,-1.6362,-1.6132,-1.6044,-1.6318,-1.6044,-1.5913,-1.5976,-1.5888,-1.5768,-1.5611,-1.5534,-1.5635,-1.6044,-1.5546,-1.5311,-1.5546,-1.54,-1.5266,-1.5108,-1.602,-1.6269,-1.5788,-1.6582,-1.6921,-1.6756,-1.6574,-1.6275,-1.5852,-1.4664,-1.3575,-1.2532,-1.1265,-0.9395,-0.7125,-0.5942,-0.3827,-0.096,0.2657,0.5325,0.7514,1.0981,1.482,1.8559,-1.7882,-1.7882,-1.7922,-1.7989,-1.8293,-1.85,-1.8592,-1.8936,-1.9273,-1.9442,-1.9717,-1.998,-2.0135,-2.0357,-2.0494,-2.0494,-2.0494,-2.046,-2.046,-2.0407,-2.032,-2.0235,-2.0254,-2.0326,-2.0548,-2.0532,-2.0649,-2.0959,-2.115,-2.1103,-2.0745,-2.0614,-2.0431,-2.0277,-2.0139,-1.9909,-1.9603,-1.9741,-1.9398,-1.8822,-1.9072,-1.8898,-1.8517,-1.8581,-1.8397,-1.8108,-1.8108,-1.8068,-1.7988,-1.7868,-1.7747,-1.7639,-1.7598,-1.7352,-1.7086,-1.6918,-1.6846,-1.6791,-1.6675,-1.6577,-1.6522,-1.6522,-1.6522,-1.6522,-1.6522,-1.6479,-1.6479,-1.6479,-1.6436,-1.6362,-1.6362,-1.6275,-1.62,-1.62,-1.5869,-1.5691,-1.6013,-1.5691,-1.5412,-1.5389,-1.5389,-1.5433,-1.549,-1.5266,-1.5355,-1.5812,-1.4892,-1.4536,-1.5062,-1.5299,-1.5287,-1.5051,-1.5976,-1.6238,-1.5623,-1.5976,-1.582,-1.5151,-1.5149,-1.4835,-1.4275,-1.3433,-1.1999,-1.0097,-0.9504,-0.6941,-0.3101,-0.2946,-0.0746,0.2808,0.6515,0.8155,0.914,1.4796,1.8291,2.0381,-1.7882,-1.7882,-1.7989,-1.8358,-1.8461,-1.863,-1.8988,-1.9406,-1.9732,-1.9752,-2.012,-2.0426,-2.046,-2.0494,-2.0494,-2.0494,-2.0441,-2.0388,-2.0339,-2.022,-2.0115,-2.0025,-2.0512,-2.0795,-2.0861,-2.123,-2.1198,-2.0731,-2.0715,-2.0665,-2.0548,-2.0345,-2.0345,-2.053,-1.9874,-1.9711,-1.9884,-1.9236,-1.8898,-1.8822,-1.9011,-1.8874,-1.8542,-1.8959,-1.8846,-1.8539,-1.8669,-1.8383,-1.7908,-1.7475,-1.724,-1.7115,-1.7115,-1.724,-1.7365,-1.6876,-1.6934,-1.7118,-1.6637,-1.6522,-1.6522,-1.6522,-1.6522,-1.6522,-1.6522,-1.6479,-1.6392,-1.6392,-1.6318,-1.6244,-1.6244,-1.62,-1.62,-1.62,-1.6057,-1.5812,-1.5534,-1.5322,-1.5232,-1.5389,-1.5445,-1.5546,-1.5736,-1.5051,-1.4777,-1.5198,-1.4628,-1.4536,-1.5062,-1.472,-1.4571,-1.4755,-1.4903,-1.471,-1.4097,-1.4573,-1.4481,-1.3826,-1.2561,-1.2205,-1.2655,-1.1773,-0.9653,-0.6595,-0.5209,-0.3192,-0.0794,0.0215,0.319,0.7108,0.7489,1.1279,1.6821,2.0004,2.1395,2.1857,-1.7882,-1.7882,-1.7963,-1.8135,-1.8528,-1.8898,-1.9064,-1.9588,-1.998,-1.998,-2.0115,-2.0235,-2.0235,-2.0235,-2.0235,-2.0235,-2.02,-2.0166,-2.0131,-2.022,-2.0239,-2.022,-2.0613,-2.0844,-2.0844,-2.0909,-2.0795,-2.0514,-2.0581,-2.0648,-2.0714,-2.0308,-2.0135,-2.0254,-1.9904,-1.9833,-1.9854,-1.9515,-1.9258,-1.9109,-1.8974,-1.8707,-1.8372,-1.8358,-1.8161,-1.7935,-1.7922,-1.7868,-1.7787,-1.7557,-1.7393,-1.7282,-1.7173,-1.7102,-1.7044,-1.7002,-1.7115,-1.7173,-1.6934,-1.6892,-1.682,-1.6565,-1.6479,-1.6479,-1.6705,-1.6565,-1.6479,-1.6663,-1.6522,-1.6362,-1.6362,-1.6306,-1.6163,-1.6013,-1.5925,-1.5824,-1.5635,-1.5558,-1.5424,-1.5232,-1.4994,-1.4858,-1.4949,-1.4628,-1.4593,-1.5062,-1.4884,-1.4982,-1.5533,-1.544,-1.5322,-1.5165,-1.5082,-1.4712,-1.4021,-1.3382,-1.3429,-1.4136,-1.1442,-1.0706,-1.155,-1.0327,-0.7862,-0.4662,-0.4006,-0.1386,0.2507,0.4319,0.7176,1.0708,1.3101,1.6661,2.0585,2.1628,2.2186,2.2589]},{"header":{"parameterUnit":"m.s-1","parameterCategory":1,"la1":30.6,"la2":28.766,"lo1":-90.7593,"lo2":-88.6598,"dy":0.0162,"dx":0.0183,"nx":116,"ny":114,"refTime":"2023-08-16T06:00:00:Z","depth":0,"parameterNumber":3,"parameterNumberName":"V-component_of_WINDS"},"data":[0.0,0.0,0.0,0.0,0.0,0.0,0.0,0.0,0.0,0.0,0.0,0.0,0.0,0.0,0.0,0.0,0.0,0.0,0.0,0.0,0.0,0.0,0.0,0.0,0.0,0.0,0.0,0.0,0.0,0.0,0.0,0.0,0.0,0.0,0.0,0.0,0.0,0.0,0.0,0.0,0.0,0.0,0.0,0.0,0.0,0.0,0.0,0.0,0.0,0.0,0.0,0.0,0.0,0.0,0.0,0.0,0.0,0.0,0.0,0.0,0.0,0.0,0.0,0.0,0.0,0.0,0.0,0.0,0.0,0.0,0.0,0.0,0.0,0.0,0.0,0.0,0.0,0.0,0.0,0.0,0.0,0.0,0.0,0.0,0.0,0.0,0.0,0.0,0.0,0.0,0.0,0.0,0.0,0.0,0.0,0.0,0.0,0.0,0.0,0.0,0.0,0.0,0.0,0.0,0.0,0.0,0.0,0.0,0.0,0.0,0.0,0.0,0.0,0.0,0.0,0.0,0.0,0.0,0.0,0.0,0.0,0.0,0.0,0.0,0.0,0.0,0.0,0.0,0.0,0.0,0.0,0.0,0.0,0.0,0.0,0.0,0.0,0.0,0.0,0.0,0.0,0.0,0.0,0.0,0.0,0.0,0.0,0.0,0.0,0.0,0.0,0.0,0.0,0.0,0.0,0.0,0.0,0.0,0.0,0.0,0.0,0.0,0.0,0.0,0.0,0.0,0.0,0.0,0.0,0.0,0.0,0.0,0.0,0.0,0.0,0.0,0.0,0.0,0.0,0.0,0.0,0.0,0.0,0.0,0.0,0.0,0.0,0.0,0.0,0.0,0.0,0.0,0.0,0.0,0.0,0.0,0.0,0.0,0.0,0.0,0.0,0.0,0.0,0.0,0.0,0.0,0.0,0.0,0.0,0.0,0.0,0.0,0.0,0.0,0.0,0.0,0.0,0.0,0.0,0.0,0.0,0.0,0.0,0.0,0.0,0.0,0.0,0.0,0.0,0.0,0.0,0.0,0.0,0.0,0.0,0.0,0.0,0.0,0.0,0.0,0.0,0.0,0.0,0.0,0.0,0.0,0.0,0.0,0.0,0.0,0.0,0.0,0.0,0.0,0.0,0.0,0.0,0.0,0.0,0.0,0.0,0.0,0.0,0.0,0.0,0.0,0.0,0.0,0.0,0.0,0.0,0.0,0.0,0.0,0.0,0.0,0.0,0.0,0.0,0.0,0.0,0.0,0.0,0.0,0.0,0.0,0.0,0.0,0.0,0.0,0.0,0.0,0.0,0.0,0.0,0.0,0.0,0.0,0.0,0.0,0.0,0.0,0.0,0.0,0.0,0.0,0.0,0.0,0.0,0.0,0.0,0.0,0.0,0.0,0.0,0.0,0.0,0.0,0.0,0.0,0.0,0.0,0.0,0.0,0.0,0.0,0.0,0.0,0.0,0.0,0.0,0.0,0.0,0.0,0.0,0.0,0.0,0.0,0.0,0.0,0.0,0.0,0.0,0.0,0.0,0.0,0.0,0.0,0.0,0.0,0.0,0.0,0.0,0.0,0.0,0.0,0.0,0.0,0.0,0.0,0.0,0.0,0.0,0.0,0.0,0.0,0.0,0.0,0.0,0.0,0.0,0.0,0.0,0.0,0.0,0.0,0.0,0.0,0.0,0.0,0.0,0.0,0.0,0.0,0.0,0.0,0.0,0.0,0.0,0.0,0.0,0.0,0.0,0.0,0.0,0.0,0.0,0.0,0.0,0.0,0.0,0.0,0.0,0.0,0.0,0.0,0.0,0.0,0.0,0.0,0.0,0.0,0.0,0.0,0.0,0.0,0.0,0.0,0.0,0.0,0.0,0.0,0.0,0.0,0.0,0.0,0.0,0.0,0.0,0.0,0.0,0.0,0.0,0.0,0.0,0.0,0.0,0.0,0.0,0.0,0.0,0.0,0.0,0.0,0.0,0.0,0.0,0.0,0.0,0.0,0.0,0.0,0.0,0.0,0.0,0.0,0.0,0.0,0.0,0.0,0.0,0.0,0.0,0.0,0.0,0.0,0.0,0.0,0.0,0.0,0.0,0.0,0.0,0.0,0.0,0.0,0.0,0.0,0.0,0.0,0.0,0.0,0.0,0.0,0.0,0.0,0.0,0.0,0.0,0.0,0.0,0.0,0.0,0.0,0.0,0.0,0.0,0.0,0.0,0.0,0.0,0.0,0.0,0.0,0.0,0.0,0.0,0.0,0.0,0.0,0.0,0.0,0.0,0.0,0.0,0.0,0.0,0.0,0.0,0.0,0.0,0.0,0.0,0.0,0.0,0.0,0.0,0.0,0.0,0.0,0.0,0.0,0.0,0.0,0.0,0.0,0.0,0.0,0.0,0.0,0.0,0.0,0.0,0.0,0.0,0.0,0.0,0.0,0.0,0.0,0.0,0.0,0.0,0.0,0.0,0.0,0.0,0.0,0.0,0.0,0.0,0.0,0.0,0.0,0.0,0.0,0.0,0.0,0.0,0.0,0.0,0.0,0.0,0.0,0.0,0.0,0.0,0.0,0.0,0.0,0.0,0.0,0.0,0.0,0.0,0.0,0.0,0.0,0.0,0.0,0.0,0.0,0.0,0.0,0.0,0.0,0.0,0.0,0.0,0.0,0.0,0.0,0.0,0.0,0.0,0.0,0.0,0.0,0.0,0.0,0.0,0.0,0.0,0.0,0.0,0.0,0.0,0.0,0.0,0.0,0.0,0.0,0.0,0.0,0.0,0.0,0.0,0.0,0.0,0.0,0.0,0.0,0.0,0.0,0.0,0.0,0.0,0.0,0.0,0.0,0.0,0.0,0.0,0.0,0.0,0.0,0.0,0.0,0.0,0.0,0.0,0.0,0.0,0.0,0.0,0.0,0.0,0.0,0.0,0.0,0.0,0.0,0.0,0.0,0.0,0.0,0.0,0.0,0.0,0.0,0.0,0.0,0.0,0.0,0.0,0.0,0.0,0.0,0.0,0.0,0.0,0.0,0.0,0.0,0.0,0.0,0.0,0.0,0.0,0.0,0.0,0.0,0.0,0.0,0.0,0.0,0.0,0.0,0.0,0.0,0.0,0.0,0.0,0.0,0.0,0.0,0.0,0.0,0.0,0.0,0.0,0.0,0.0,0.0,0.0,0.0,0.0,0.0,0.0,0.0,0.0,0.0,0.0,0.0,0.0,0.0,0.0,0.0,0.0,0.0,0.0,0.0,0.0,0.0,0.0,0.0,0.0,0.0,0.0,0.0,0.0,0.0,0.0,0.0,0.0,0.0,0.0,0.0,0.0,0.0,0.0,0.0,0.0,0.0,0.0,0.0,0.0,0.0,0.0,0.0,0.0,0.0,0.0,0.0,0.0,0.0,0.0,0.0,0.0,0.0,0.0,0.0,0.0,0.0,0.0,0.0,0.0,0.0,0.0,0.0,0.0,0.0,0.0,0.0,0.0,0.0,0.0,0.0,0.0,0.0,0.0,0.0,0.0,0.0,0.0,0.0,0.0,0.0,0.0,0.0,0.0,0.0,0.0,0.0,0.0,0.0,0.0,0.0,0.0,0.0,0.0,0.0,0.0,0.0,0.0,0.0,0.0,0.0,0.0,0.0,0.0,0.0,0.0,0.0,0.0,0.0,0.0,0.0,0.0,0.0,0.0,0.0,0.0,0.0,0.0,0.0,0.0,0.0,0.0,0.0,0.0,0.0,0.0,0.0,0.0,0.0,0.0,0.0,0.0,0.0,0.0,0.0,0.0,0.0,0.0,0.0,0.0,0.0,0.0,0.0,0.0,0.0,0.0,0.0,0.0,0.0,0.0,0.0,0.0,0.0,0.0,0.0,0.0,0.0,0.0,0.0,0.0,0.0,0.0,0.0,0.0,0.0,0.0,0.0,0.0,0.0,0.0,0.0,0.0,0.0,0.0,0.0,0.0,0.0,0.0,0.0,0.0,0.0,0.0,0.0,0.0,0.0,0.0,0.0,0.0,0.0,0.0,0.0,0.0,0.0,0.0,0.0,0.0,0.0,0.0,0.0,0.0,0.0,0.0,0.0,0.0,0.0,0.0,0.0,0.0,0.0,0.0,0.0,0.0,0.0,0.0,0.0,0.0,0.0,0.0,0.0,0.0,0.0,0.0,0.0,0.0,0.0,0.0,0.0,0.0,0.0,0.0,0.0,0.0,0.0,0.0,0.0,0.0,0.0,0.0,0.0,0.0,0.0,0.0,0.0,0.0,0.0,0.0,0.0,0.0,0.0,0.0,0.0,0.0,0.0,0.0,0.0,0.0,0.0,0.0,0.0,0.0,0.0,0.0,0.0,0.0,0.0,0.0,0.0,0.0,0.0,0.0,0.0,0.0,0.0,0.0,0.0,0.0,0.0,0.0,0.0,0.0,0.0,0.0,0.0,0.0,0.0,0.0,0.0,0.0,0.0,0.0,0.0,0.0,0.0,0.0,0.0,0.0,0.0,0.0,0.0,0.0,0.0,0.0,0.0,0.0,0.0,0.0,0.0,0.0,0.0,0.0,0.0,0.0,0.0,0.0,0.0,0.0,0.0,0.0,0.0,0.0,0.0,0.0,0.0,0.0,0.0,0.0,0.0,0.0,0.0,0.0,0.0,0.0,0.0,0.0,0.0,0.0,0.0,0.0,0.0,0.0,0.0,0.0,0.0,0.0,0.0,0.0,0.0,0.0,0.0,0.0,0.0,0.0,0.0,0.0,0.0,0.0,0.0,0.0,0.0,0.0,0.0,0.0,0.0,0.0,0.0,0.0,0.0,0.0,0.0,0.0,0.0,0.0,0.0,0.0,0.0,0.0,0.0,0.0,0.0,0.0,0.0,0.0,0.0,0.0,0.0,0.0,0.0,0.0,0.0,0.0,0.0,0.0,0.0,0.0,0.0,0.0,0.0,0.0,0.0,0.0,0.0,0.0,0.0,0.0,0.0,0.0,0.0,0.0,0.0,0.0,0.0,0.0,0.0,0.0,0.0,0.0,0.0,0.0,0.0,0.0,0.0,0.0,0.0,0.0,0.0,0.0,0.0,0.0,0.0,0.0,0.0,0.0,0.0,0.0,0.0,0.0,0.0,0.0,0.0,0.0,0.0,0.0,0.0,0.0,0.0,0.0,0.0,0.0,0.0,0.0,0.0,0.0,0.0,0.0,0.0,0.0,0.0,0.0,0.0,0.0,0.0,0.0,0.0,0.0,0.0,0.0,0.0,0.0,0.0,0.0,0.0,0.0,0.0,0.0,0.0,0.0,0.0,0.0,0.0,0.0,0.0,0.0,0.0,0.0,0.0,0.0,0.0,0.0,0.0,0.0,0.0,0.0,0.0,0.0,0.0,0.0,0.0,0.0,0.0,0.0,0.0,0.0,0.0,0.0,0.0,0.0,0.0,0.0,0.0,0.0,0.0,0.0,0.0,0.0,0.0,0.0,0.0,0.0,0.0,0.0,0.0,0.0,0.0,0.0,0.0,0.0,0.0,0.0,0.0,0.0,0.0,0.0,0.0,0.0,0.0,0.0,0.0,0.0,0.0,0.0,0.0,0.0,0.0,0.0,0.0,0.0,0.0,0.0,0.0,0.0,0.0,0.0,0.0,0.0,0.0,0.0,0.0,0.0,0.0,0.0,0.0,0.0,0.0,0.0,0.0,0.0,0.0,0.0,0.0,0.0,0.0,0.0,0.0,0.0,0.0,0.0,0.0,0.0,0.0,0.0,0.0,0.0,0.0,0.0,0.0,0.0,0.0,0.0,0.0,0.0,0.0,0.0,0.0,0.0,0.0,0.0,0.0,0.0,0.0,0.0,0.0,0.0,0.0,0.0,0.0,0.0,0.0,0.0,0.0,0.0,0.0,0.0,0.0,0.0,0.0,0.0,0.0,0.0,0.0,0.0,0.0,0.0,0.0,0.0,0.0,0.0,0.0,0.0,0.0,0.0,0.0,0.0,0.0,0.0,0.0,0.0,0.0,0.0,0.0,0.0,0.0,0.0,0.0,0.0,0.0,0.0,0.0,0.0,0.0,0.0,0.0,0.0,0.0,0.0,0.0,0.0,0.0,0.0,0.0,0.0,0.0,0.0,0.0,-2.1319,0.0,0.0,0.0,0.0,0.0,0.0,0.0,0.0,0.0,0.0,0.0,0.0,0.0,0.0,0.0,0.0,0.0,0.0,0.0,0.0,0.0,0.0,0.0,0.0,0.0,0.0,0.0,0.0,0.0,0.0,0.0,0.0,0.0,0.0,0.0,0.0,0.0,0.0,0.0,0.0,0.0,0.0,0.0,0.0,0.0,0.0,0.0,0.0,0.0,0.0,0.0,0.0,0.0,0.0,0.0,0.0,0.0,0.0,0.0,0.0,0.0,0.0,0.0,0.0,0.0,0.0,0.0,0.0,0.0,0.0,0.0,0.0,0.0,0.0,0.0,0.0,0.0,0.0,0.0,0.0,0.0,0.0,0.0,0.0,0.0,0.0,0.0,0.0,0.0,0.0,0.0,0.0,0.0,0.0,0.0,0.0,0.0,0.0,0.0,0.0,0.0,0.0,0.0,0.0,0.0,0.0,0.0,0.0,0.0,0.0,0.0,0.0,0.0,0.0,0.0,0.0,-2.1988,0.0,0.0,0.0,0.0,0.0,0.0,0.0,0.0,0.0,0.0,0.0,0.0,0.0,0.0,0.0,0.0,0.0,0.0,0.0,0.0,0.0,0.0,0.0,0.0,0.0,0.0,0.0,0.0,0.0,0.0,0.0,0.0,0.0,0.0,0.0,0.0,0.0,0.0,0.0,0.0,0.0,0.0,0.0,0.0,0.0,0.0,0.0,0.0,0.0,0.0,0.0,0.0,0.0,0.0,0.0,0.0,0.0,0.0,0.0,0.0,0.0,0.0,0.0,0.0,0.0,0.0,0.0,0.0,0.0,0.0,0.0,0.0,0.0,0.0,0.0,0.0,0.0,0.0,0.0,0.0,0.0,0.0,0.0,0.0,0.0,0.0,0.0,0.0,0.0,0.0,0.0,0.0,0.0,0.0,0.0,0.0,0.0,0.0,0.0,0.0,0.0,0.0,0.0,0.0,0.0,0.0,0.0,0.0,-2.4207,-2.4959,-2.5317,-2.5637,-2.5784,-2.5711,-2.4372,-2.3776,-2.3675,-2.2602,0.0,0.0,0.0,0.0,0.0,0.0,0.0,0.0,0.0,0.0,0.0,0.0,0.0,0.0,0.0,0.0,0.0,0.0,0.0,0.0,0.0,0.0,0.0,0.0,0.0,0.0,0.0,0.0,0.0,0.0,0.0,0.0,0.0,0.0,0.0,0.0,0.0,0.0,-1.0384,-1.1202,-1.2005,-1.3007,0.0,0.0,0.0,0.0,0.0,0.0,0.0,0.0,0.0,0.0,0.0,0.0,0.0,0.0,0.0,0.0,0.0,0.0,0.0,0.0,0.0,0.0,0.0,0.0,0.0,0.0,0.0,0.0,0.0,0.0,0.0,0.0,0.0,0.0,0.0,0.0,0.0,0.0,0.0,0.0,0.0,0.0,0.0,0.0,-1.5126,-1.5319,0.0,0.0,0.0,0.0,0.0,0.0,0.0,0.0,0.0,0.0,0.0,0.0,0.0,-1.966,-2.217,-2.3626,-2.4721,-2.5541,-2.6756,-2.7315,-2.738,-2.7426,-2.7453,-2.7435,-2.7224,0.0,-2.4583,-2.4051,0.0,0.0,0.0,0.0,0.0,0.0,0.0,0.0,0.0,0.0,0.0,0.0,0.0,0.0,0.0,0.0,0.0,0.0,0.0,0.0,0.0,0.0,0.0,0.0,0.0,0.0,0.0,0.0,0.0,0.0,0.0,0.0,0.0,0.0,0.0,0.0,-0.9114,-0.9992,-1.0576,-1.1945,-1.274,-1.3121,-1.5075,-1.6286,-1.6798,-1.72,0.0,0.0,0.0,0.0,0.0,0.0,0.0,0.0,0.0,0.0,0.0,0.0,0.0,0.0,0.0,0.0,0.0,0.0,0.0,0.0,0.0,0.0,0.0,0.0,0.0,0.0,0.0,0.0,0.0,0.0,0.0,0.0,0.0,0.0,0.0,0.0,0.0,0.0,0.0,-1.4214,-1.4907,-1.4859,-1.473,-1.4495,0.0,0.0,0.0,0.0,0.0,0.0,0.0,0.0,0.0,-1.7292,-1.9305,-2.1616,-2.4064,-2.5648,-2.6752,-2.7334,-2.7866,-2.8232,-2.8443,-2.8443,-2.8443,-2.8434,-2.8214,-2.749,-2.6389,-2.5518,-2.5071,-2.4748,0.0,0.0,0.0,0.0,-2.5336,-2.5969,0.0,0.0,0.0,0.0,0.0,0.0,0.0,0.0,0.0,0.0,0.0,0.0,0.0,0.0,0.0,-0.387,0.0,0.0,0.0,0.0,0.0,0.0,0.0,0.0,0.0,0.0,0.0,0.0,-0.9667,-1.0449,-1.0606,-1.2273,-1.294,-1.3008,-1.5842,-1.7054,-1.7139,-1.7977,-1.839,0.0,0.0,0.0,0.0,0.0,0.0,0.0,0.0,0.0,0.0,0.0,0.0,0.0,0.0,0.0,0.0,0.0,0.0,0.0,0.0,0.0,0.0,0.0,0.0,0.0,0.0,0.0,0.0,0.0,0.0,0.0,0.0,0.0,0.0,0.0,0.0,0.0,0.0,-1.4635,-1.5096,-1.4795,-1.504,-1.4969,0.0,0.0,0.0,0.0,0.0,0.0,-1.5891,-1.5819,-1.6453,-1.802,-1.992,-2.2611,-2.6028,-2.7328,-2.8077,-2.8397,-2.8187,-2.8242,-2.8517,-2.8517,-2.8517,-2.8507,-2.8214,-2.7967,-2.7796,-2.6682,-2.6273,-2.629,-2.5367,-2.5185,-2.5543,-2.6443,-2.7372,-2.8332,0.0,0.0,0.0,0.0,0.0,0.0,0.0,0.0,0.0,0.0,0.0,0.0,0.0,0.0,-0.21,-0.2802,-0.2758,-0.2568,0.0,0.0,0.0,0.0,0.0,0.0,0.0,0.0,0.0,-0.8299,-0.9197,-0.9896,-1.0377,-1.1408,-1.2074,-1.2619,-1.5132,-1.6711,-1.751,-1.8697,-1.953,-2.0069,0.0,0.0,0.0,0.0,0.0,0.0,0.0,0.0,0.0,0.0,0.0,0.0,0.0,0.0,0.0,0.0,0.0,0.0,0.0,0.0,0.0,0.0,0.0,0.0,0.0,0.0,0.0,0.0,0.0,0.0,0.0,0.0,0.0,0.0,0.0,0.0,0.0,0.0,0.0,-1.578,-1.65,0.0,0.0,0.0,0.0,-1.5452,-1.5466,-1.5692,-1.6241,-1.6363,-1.8224,-2.232,-1.9834,-2.1668,-2.8316,-2.8174,-2.8226,-2.8388,-2.7609,-2.7251,-2.727,-2.727,-2.727,-2.727,-2.7242,-2.7556,-2.805,-2.7004,-2.6541,-2.6346,-2.6192,-2.6641,-2.7565,-2.8145,-2.9168,-3.0201,0.0,0.0,0.0,0.0,0.0,0.0,0.0,0.0,0.0,0.0,0.0,0.0,0.0,-0.1862,-0.1739,-0.1738,-0.1696,-0.1509,-0.1178,0.0,0.0,0.0,0.0,0.0,0.0,0.0,-0.6618,-0.7769,-0.8644,-0.9202,-0.9678,-1.0741,-1.1292,-1.1502,-1.4304,-1.6079,-1.7068,-1.8227,-1.9344,-2.0304,-2.0266,-2.0509,0.0,0.0,0.0,0.0,0.0,0.0,0.0,0.0,0.0,0.0,0.0,0.0,0.0,0.0,0.0,0.0,0.0,0.0,0.0,0.0,0.0,0.0,0.0,0.0,0.0,0.0,0.0,0.0,0.0,0.0,0.0,0.0,0.0,0.0,0.0,0.0,0.0,-1.6363,-1.7008,0.0,-1.6289,-1.6024,-1.6068,-1.6348,-1.66,-1.6936,-1.7298,-1.7563,-1.8546,-2.0407,-2.1003,-2.3333,-2.7222,-2.7563,-2.7521,-2.7233,-2.694,-2.6793,-2.6793,-2.6793,-2.6793,-2.6784,-2.6726,-2.6797,-2.7027,-2.6845,-2.7163,-2.7682,-2.7361,-2.7683,-2.8317,-2.9107,-2.978,-3.0328,0.0,0.0,0.0,0.0,0.0,0.0,0.0,0.0,0.0,0.0,0.0,-0.1382,-0.1448,-0.1384,-0.1233,-0.1109,-0.0876,-0.0509,0.006,0.0,0.0,0.0,0.0,0.0,0.0,-0.469,-0.6082,-0.6927,-0.8027,-0.8644,-0.8946,-1.0315,-1.0945,-1.107,-1.3613,-1.539,-1.6446,-1.7407,-1.9054,-2.0994,-2.0767,-2.1136,-2.1738,0.0,0.0,0.0,0.0,0.0,0.0,0.0,0.0,0.0,0.0,0.0,0.0,0.0,0.0,0.0,0.0,0.0,0.0,0.0,0.0,0.0,0.0,0.0,0.0,0.0,0.0,0.0,0.0,0.0,0.0,0.0,0.0,0.0,0.0,-1.6483,-1.6927,-1.6727,-1.7543,-1.7764,-1.6889,-1.6983,-1.7139,-1.7227,-1.7566,-1.7815,-1.7865,-1.8167,-1.8815,-1.9767,-2.2767,-2.4808,-2.6107,-2.6281,-2.6371,-2.6371,-2.6105,-2.5977,-2.5977,-2.5977,-2.6083,-2.6037,-2.5841,-2.5947,-2.6258,-2.6096,-2.6898,-2.8062,-2.8094,-2.8622,-2.9363,-3.0024,-3.0552,-3.1047,0.0,0.0,0.0,0.0,0.0,0.0,0.0,0.0,0.0,0.0,0.0252,-0.0052,-0.0612,-0.0635,-0.0638,-0.0784,-0.0355,0.0239,0.1123,0.173,0.0,0.0,0.0,0.0,-0.307,-0.485,-0.5779,-0.5868,-0.742,-0.8127,0.0,0.0,0.0,0.0,0.0,0.0,-1.5789,-1.6263,-1.8726,-2.2184,-2.1585,-2.1832,-2.2443,0.0,0.0,0.0,0.0,0.0,0.0,0.0,0.0,0.0,0.0,0.0,0.0,0.0,0.0,0.0,0.0,0.0,0.0,0.0,0.0,0.0,0.0,0.0,0.0,0.0,0.0,0.0,0.0,0.0,0.0,0.0,0.0,0.0,-1.619,-1.7,-1.7402,-1.6854,-1.8084,-1.8551,-1.7749,-1.8235,-1.8429,-1.804,-1.8301,-1.8243,-1.7979,-1.7979,-1.8911,-2.1024,-2.4606,-2.6066,-2.5112,-2.4506,-2.4801,-2.5894,-2.5133,-2.4757,-2.4748,-2.4739,-2.4914,-2.5051,-2.4659,-2.5013,-2.5833,-2.5044,-2.5599,-2.7123,-2.8248,-2.9471,-3.0778,-3.0812,-3.1494,-3.2298,0.0,0.0,0.0,0.0,0.0,0.0,0.0,0.0,0.0,0.0,0.0101,-0.0052,-0.0334,-0.0565,-0.0566,-0.0393,-0.0455,-0.0171,0.0783,0.0,0.0,0.0,0.0,0.0,-0.2304,-0.3586,-0.4837,-0.5908,0.0,0.0,0.0,0.0,0.0,0.0,0.0,0.0,0.0,0.0,-1.7621,-2.0311,-2.0535,-2.1415,-2.2621,0.0,0.0,0.0,0.0,0.0,0.0,0.0,0.0,0.0,0.0,0.0,0.0,0.0,0.0,0.0,0.0,0.0,0.0,0.0,0.0,0.0,0.0,0.0,0.0,0.0,0.0,0.0,0.0,0.0,0.0,0.0,-1.6512,-1.7327,-1.7608,-1.8126,-1.855,-1.8604,-1.9065,-1.9117,-1.8905,-1.8814,-1.8732,-1.8654,-1.8631,-1.8508,-1.8307,-1.8139,-1.8256,-1.8467,-2.2594,-2.4748,-2.4503,-2.4332,-2.4372,-2.4647,-2.4427,-2.417,-2.3886,-2.4082,-2.4022,-2.3821,-2.407,-2.4269,-2.4573,-2.485,-2.5232,-2.5769,-2.7008,-2.8604,-3.0187,-3.0193,-3.08,-3.144,0.0,0.0,0.0,0.0,0.0,0.0,0.0,0.0,0.0,0.0,0.1485,0.1472,0.4938,0.3072,0.1836,0.2558,0.2111,0.1568,0.1006,0.0,0.0,0.0,0.0,-0.1765,-0.2389,-0.3459,0.0,0.0,0.0,0.0,0.0,0.0,0.0,0.0,0.0,0.0,0.0,0.0,0.0,0.0,-1.9502,-2.0783,-2.2231,-2.2128,-2.1916,-2.1722,-2.2232,-2.2789,-2.3322,-2.3754,0.0,0.0,0.0,0.0,0.0,0.0,0.0,0.0,0.0,0.0,0.0,0.0,0.0,0.0,0.0,0.0,0.0,0.0,0.0,0.0,0.0,0.0,0.0,0.0,-1.746,-1.8124,-1.8632,-1.8844,-1.8928,-1.9065,-1.9118,-1.9138,-1.9178,-1.917,-1.9004,-1.8881,-1.8687,-1.8525,-1.8256,-1.8046,-1.8045,-1.8449,-2.1204,-2.3195,-2.4144,-2.4244,-2.406,-2.3895,-2.3895,-2.3684,-2.3395,-2.3586,-2.3645,-2.3588,-2.3677,-2.3775,-2.3968,-2.4137,-2.4424,0.0,0.0,0.0,0.0,0.0,-3.0599,-3.0821,0.0,0.0,0.0,0.0,0.0,0.0,0.0,0.0,0.0,0.0,0.0,0.4388,1.188,0.82,0.5677,0.6907,0.6326,0.5,0.0,0.0,0.0,0.0118,-0.1152,-0.2216,0.0,0.0,0.0,0.0,0.0,0.0,0.0,0.0,0.0,0.0,0.0,0.0,0.0,0.0,0.0,0.0,0.0,-2.0007,-2.1547,-2.2088,-2.2009,-2.1708,-2.279,-2.3517,-2.4111,-2.5101,0.0,0.0,0.0,0.0,0.0,0.0,0.0,0.0,0.0,0.0,0.0,0.0,0.0,0.0,0.0,0.0,0.0,0.0,0.0,0.0,0.0,0.0,0.0,0.0,-1.8403,-1.8905,-1.9266,-1.9071,-1.882,-1.8572,-1.8731,-1.8904,-1.8865,-1.9112,-1.9143,-1.8899,-1.8548,-1.8292,-1.8071,0.0,0.0,0.0,0.0,-2.1837,-2.4015,-2.4005,-2.3822,-2.3474,-2.3474,-2.3367,-2.3261,-2.3261,-2.3504,-2.3871,-2.3505,-2.3531,-2.3682,-2.3242,-2.3393,-2.4231,-2.6845,-2.8219,-2.8903,-3.0109,-3.052,-3.0311,0.0,0.0,0.0,0.0,0.0,0.0,0.0,0.0,0.0,0.639,0.7499,0.9056,1.0571,0.9467,0.8855,0.9463,0.9555,0.9978,0.0,0.0,0.0,0.0,0.0,0.0,0.0,0.0,0.0,0.0,0.0,0.0,0.0,0.0,0.0,0.0,0.0,0.0,0.0,0.0,0.0,0.0,0.0,0.0,-2.0807,-2.186,-2.2408,-2.2684,-2.3952,-2.4404,-2.4585,-2.5314,-2.5695,-2.5962,-2.6551,0.0,0.0,0.0,0.0,0.0,0.0,0.0,0.0,0.0,0.0,0.0,0.0,0.0,0.0,0.0,0.0,0.0,0.0,0.0,0.0,-1.8287,-1.8809,-1.9176,-1.8969,-1.8919,-1.8879,-1.8871,-1.8698,-1.8557,-1.8577,-1.8624,-1.8657,-1.8546,-1.8492,-1.8459,-1.8459,-1.8071,-1.8466,-1.9598,-2.0609,-2.1643,-2.2831,-2.2831,-2.2908,-2.2975,0.0,0.0,-2.2814,-2.318,-2.3271,-2.3034,-2.3124,-2.3174,-2.3232,-2.2975,-2.3598,-2.4979,-2.693,-2.7556,-2.7661,-2.9114,-2.9337,-2.8882,0.0,0.0,0.0,0.0,0.0,0.0,0.0,0.0,0.0,0.0,1.0844,1.1957,1.6149,1.3939,1.2391,1.3011,1.1542,0.0,0.0,0.0,0.0,0.0,0.0,0.0,0.0,0.0,0.0,0.0,0.0,0.0,0.0,0.0,0.0,0.0,0.0,0.0,0.0,0.0,0.0,0.0,0.0,0.0,-1.9935,-2.1627,-2.2594,-2.317,-2.4313,-2.4813,-2.5032,-2.6254,-2.6652,-2.6862,-2.7837,-2.8105,-2.7913,0.0,0.0,0.0,0.0,0.0,0.0,0.0,0.0,0.0,0.0,0.0,0.0,0.0,0.0,-2.193,-2.0847,0.0,-1.9974,-1.9062,-1.8835,-1.8765,-1.8605,-1.8515,-1.8434,-1.8448,-1.8342,-1.8304,-1.8448,-1.8482,-1.855,-1.8477,-1.835,-1.827,-1.827,-1.8507,-1.91,-2.0039,-2.0676,-2.1713,-2.3102,-2.299,-2.2991,-2.2908,-2.3102,-2.2978,-2.2754,-2.3022,-2.3084,-2.2969,-2.3057,-2.3018,-2.2935,-2.2919,-2.3387,-2.4338,-2.6028,-2.7186,-2.7912,-2.8548,-2.8612,-2.8263,0.0,0.0,0.0,0.0,0.0,0.0,0.0,0.0,0.0,0.0,0.0,1.4891,2.1755,1.8513,1.6131,0.0,0.0,0.0,0.0,0.0,0.0,0.0,0.0,0.0,0.0,0.0,0.0,0.0,0.0,0.0,0.0,0.0,0.0,0.0,0.0,0.0,0.0,0.0,0.0,0.0,0.0,0.0,-1.8954,-2.115,-2.2477,-2.3319,-2.4529,-2.5061,-2.5399,-2.6931,-2.7357,-2.7422,-2.8697,-2.874,-2.8214,-2.78,-2.735,0.0,0.0,0.0,0.0,0.0,0.0,0.0,0.0,0.0,-2.3045,-2.3511,-2.3793,-2.3595,-2.2617,-2.1759,-2.0877,-1.9811,-1.8993,-1.8425,-1.8418,-1.7999,-1.775,-1.781,-1.7953,-1.8121,-1.8355,-1.8459,-1.8482,-1.8516,-1.8198,-1.8064,-1.8064,-1.88,-1.9702,-2.0563,-2.0834,-2.1778,-2.3473,-2.3353,-2.3174,-2.2924,-2.2848,-2.2866,-2.2794,-2.2804,-2.2979,-2.3135,-2.3144,-2.2982,-2.2699,-2.2739,-2.3075,-2.3623,-2.4927,-2.6577,-2.8164,-2.7999,-2.7871,-2.7708,0.0,0.0,0.0,0.0,0.0,0.0,0.0,0.0,0.0,0.0,0.0,0.0,0.0,0.0,0.0,0.0,0.0,0.0,0.0,0.0,0.0,0.0,0.0,0.0,0.0,0.0,0.0,0.0,0.0,0.0,0.0,0.0,0.0,0.0,0.0,0.0,0.0,0.0,0.0,0.0,0.0,0.0,-1.7974,-2.0019,-2.175,-2.3315,-2.4925,-2.5498,-2.5558,-2.6301,-2.6389,-2.6374,-2.7676,-2.7725,-2.7318,-2.7019,0.0,-2.4276,-2.3675,-2.3381,-2.3111,-2.2786,-2.2849,-2.3402,0.0,-2.5118,-2.5188,-2.5983,-2.5752,-2.4819,-2.3047,-2.2212,-2.1335,-1.9972,-1.9343,-1.8878,-1.8555,-1.7864,-1.7384,-1.7334,-1.7767,-1.8019,-1.8086,-1.8317,-1.8387,-1.8422,-1.8394,-1.8373,-1.8373,-1.8979,-1.9744,-2.0386,-2.1002,-2.176,-2.2494,-2.2494,-2.2466,-2.2498,-2.2322,-2.2486,-2.2784,-2.285,-2.3061,-2.3484,-2.3268,-2.2784,-2.2139,-2.2196,-2.2894,-2.4055,-2.42,-2.529,-2.6791,-2.7218,-2.7067,-2.6565,0.0,0.0,0.0,0.0,0.0,0.0,0.0,0.0,0.0,0.0,0.0,0.0,0.0,0.0,0.0,0.0,0.0,0.0,2.3295,2.2097,0.0,0.0,0.0,0.0,0.0,0.0,0.0,0.0,0.0,0.0,0.0,0.0,0.0,0.0,0.0,0.0,0.0,0.0,0.0,0.0,0.0,0.0,-1.8346,-2.0185,-2.1702,-2.2897,-2.3549,-2.3903,0.0,0.0,-2.5302,-2.5485,-2.7215,-2.7065,-2.6168,-2.5756,-2.498,0.0,-2.3412,-2.3131,-2.3051,-2.3067,-2.3535,-2.4248,-2.5284,-2.553,-2.5592,-2.5704,-2.5798,-2.5212,-2.3288,-2.2251,-2.1371,0.0,-1.9371,-1.8812,-1.8706,-1.8396,-1.8064,-1.7948,-1.8171,-1.8188,-1.7648,-1.7917,-1.7999,-1.789,-1.789,-1.789,-1.789,-1.857,-1.9294,-1.9992,-2.0942,-2.1759,-2.2428,-2.2669,-2.2882,-2.3057,-2.2969,-2.3065,-2.3406,-2.3401,-2.3368,-2.3268,-2.3079,-2.2605,-2.2145,-2.2499,-2.294,-2.3559,-2.442,-2.5288,-2.6037,-2.6634,-2.6722,-2.6514,0.0,0.0,0.0,0.0,0.0,0.0,0.0,0.0,0.0,0.0,0.0,0.0,0.0,0.0,0.0,0.0,0.0,0.0,0.0,2.3828,0.0,0.0,0.0,0.0,0.0,0.0,0.0,0.0,0.0,0.0,0.0,0.0,0.0,0.0,0.0,0.0,0.0,0.0,0.0,0.0,0.0,0.0,-1.9158,-2.0451,-2.1529,-2.2368,-2.2772,-2.3087,0.0,0.0,-2.4171,-2.4293,-2.5803,-2.5545,-2.4593,-2.4255,-2.3912,-2.3459,-2.2598,-2.2455,-2.264,-2.2903,-2.3756,-2.468,-2.5296,-2.5544,-2.5637,-2.5333,-2.5084,-2.4544,-2.3051,-2.1953,-2.105,-2.0357,-1.953,-1.9042,-1.8988,-1.8692,-1.8514,-1.8347,-1.8434,-1.8255,-1.7662,-1.7819,-1.791,-1.7704,-1.7704,-1.7662,-1.7577,-1.8222,-1.8824,-1.9298,-2.0722,-2.1696,-2.2071,-2.2744,-2.3169,-2.3222,-2.3103,-2.3188,-2.3478,-2.3468,-2.3321,-2.297,-2.2889,-2.2639,-2.2263,-2.2767,-2.3213,-2.3632,-2.4637,-2.5281,-2.5741,-2.6038,-2.6291,-2.6451,0.0,0.0,0.0,0.0,0.0,0.0,0.0,0.0,0.0,0.0,0.0,0.0,0.0,0.0,0.0,0.0,0.0,0.0,0.0,2.4534,2.4999,0.0,0.0,0.0,0.0,0.0,0.0,0.0,0.0,0.0,0.0,0.0,0.0,0.0,0.0,0.0,0.0,0.0,0.0,0.0,0.0,0.0,-2.0356,-2.0538,-2.1044,-2.1842,-2.3406,0.0,0.0,0.0,-2.2948,-2.2599,-2.2934,-2.2742,0.0,-2.2546,-2.2055,-2.1332,-2.0526,-2.1078,-2.1928,-2.2327,-2.3475,-2.4707,-2.5471,-2.5761,-2.5772,-2.5503,-2.3988,-2.2571,-2.2296,-2.1076,-2.0236,-2.0593,-2.0093,-1.9546,-1.9546,-1.8538,-1.7919,-1.8287,-1.8268,-1.8323,0.0,-1.8316,-1.8306,-1.8306,-1.8306,-1.8167,-1.7845,-1.8442,-1.8645,-1.8377,-2.0481,-2.1428,-2.0931,-2.2463,-2.2996,-2.2553,-2.204,-2.206,-2.2563,-2.2717,-2.2726,-2.2532,-2.2913,-2.2783,-2.2424,-2.2852,-2.379,-2.4886,-2.4352,-2.4915,-2.6023,-2.555,-2.5691,-2.5946,0.0,0.0,0.0,0.0,0.0,0.0,0.0,0.0,0.0,0.0,0.0,0.0,0.0,0.0,0.0,0.0,0.0,0.0,0.0,2.3168,2.3667,2.3411,0.0,0.0,0.0,0.0,0.0,0.0,0.0,0.0,0.0,0.0,0.0,0.0,0.0,0.0,0.0,0.0,0.0,0.0,0.0,0.0,-2.2998,-2.2398,-2.2625,-2.322,0.0,0.0,0.0,0.0,-2.2293,-2.2213,-2.2439,-2.1916,-2.1093,-2.0401,-2.0084,-1.9965,-2.0053,-2.081,-2.1638,-2.2017,-2.2829,-2.3597,-2.3792,-2.3936,-2.3902,-2.3377,-2.2216,-2.1056,-2.0363,-1.9852,-1.9567,-1.9697,-1.9931,-2.0179,-2.0339,-2.0022,-1.963,-1.9306,-1.92,0.0,0.0,0.0,0.0,-1.8627,-1.8396,-1.8218,-1.8103,-1.8131,-1.8209,-1.8446,-1.9444,-2.0325,-2.0919,-2.1671,-2.2241,-2.2676,-2.2696,-2.2787,-2.2941,-2.3022,-2.2845,-2.2501,-2.296,-2.2668,-2.1871,-2.2312,-2.254,-2.2714,-2.336,-2.3965,-2.4567,-2.4823,-2.5133,-2.5299,0.0,0.0,0.0,0.0,0.0,0.0,0.0,0.0,0.0,0.0,0.0,0.0,0.0,0.0,0.0,0.0,0.0,0.0,0.0,0.0,2.3245,2.3276,2.2744,0.0,0.0,0.0,0.0,0.0,0.0,0.0,0.0,0.0,0.0,0.0,0.0,0.0,0.0,0.0,0.0,0.0,0.0,0.0,-2.4563,-2.3926,-2.4103,0.0,0.0,0.0,0.0,-2.2198,-2.1943,-2.1752,-2.1418,-2.0797,-2.0045,-1.9251,-1.9108,-1.9277,-1.9744,-2.0307,-2.0769,-2.1081,-2.1694,-2.2099,-2.1888,-2.19,-2.1783,-2.147,-2.0457,-1.9551,-1.923,-1.9077,-1.8867,-1.8628,-1.9155,-1.9627,-1.9927,-1.9849,-1.9886,-2.0175,-2.0138,-1.9978,0.0,0.0,0.0,-1.8835,-1.8716,-1.851,-1.8128,-1.8009,-1.7991,-1.8087,-1.8939,-1.9631,-2.0142,-2.1048,-2.1858,-2.2439,-2.2766,-2.2924,-2.2924,-2.2835,-2.2671,-2.2376,-2.266,-2.2388,-2.1815,-2.2242,-2.2324,-2.2275,-2.3112,-2.362,-2.3934,-2.431,-2.4554,-2.4661,0.0,0.0,0.0,0.0,0.0,0.0,0.0,0.0,0.0,0.0,0.0,0.0,0.0,0.0,0.0,0.0,0.0,0.0,0.0,0.0,0.0,2.3794,2.3901,2.3603,2.2772,0.0,0.0,0.0,0.0,0.0,0.0,0.0,0.0,0.0,0.0,0.0,0.0,0.0,0.0,0.0,0.0,0.0,-2.5129,-2.5043,0.0,0.0,0.0,0.0,0.0,0.0,-2.1774,-2.1193,-1.9906,-1.9402,-1.9251,-1.9127,-1.9073,-1.9153,-1.9564,-1.9507,-1.9417,-1.9584,-2.0,-2.0304,-1.9936,-1.9745,-1.9681,-1.987,-1.8788,-1.8007,0.0,0.0,-1.8258,-1.7501,-1.7775,-1.8262,-1.8646,-1.8387,-1.8803,0.0,0.0,0.0,0.0,0.0,0.0,-1.8996,0.0,-1.896,-1.7962,-1.8169,-1.8018,-1.7347,-1.8752,-1.9335,-1.8841,-2.0623,-2.1567,-2.1807,-2.2231,-2.2371,-2.2349,-2.2247,-2.2176,-2.2154,-2.2118,-2.2103,-2.208,-2.2503,-2.2942,-2.3382,-2.3344,-2.3654,-2.4137,-2.4118,-2.4112,-2.4171,0.0,0.0,0.0,0.0,0.0,0.0,0.0,0.0,0.0,0.0,0.0,0.0,0.0,0.0,0.0,0.0,0.0,0.0,0.0,0.0,0.0,0.0,0.0,0.0,0.0,0.0,0.0,0.0,0.0,0.0,0.0,0.0,0.0,0.0,0.0,0.0,0.0,0.0,0.0,0.0,0.0,0.0,-2.6979,0.0,0.0,0.0,0.0,0.0,0.0,0.0,-2.1221,-1.9957,-1.9735,-1.9226,-1.87,-1.8661,-1.8728,-1.8822,-1.8926,-1.8942,-1.8858,-1.8831,-1.8908,-1.8806,-1.8128,-1.8272,-1.8572,-1.8386,-1.7299,-1.6402,-1.6515,-1.6576,-1.659,-1.6556,-1.7401,0.0,-1.8717,-1.8544,0.0,-1.878,-1.887,-1.9118,-1.9774,-2.0169,0.0,0.0,-1.9895,-1.9497,-1.9216,-1.9102,-1.8789,-1.8255,-1.8674,-1.8737,-1.853,-2.0225,-2.1408,-2.2252,-2.2273,-2.2247,-2.2237,-2.1821,-2.1675,-2.1664,-2.1962,-2.1844,-2.1576,-2.1922,-2.2012,-2.1952,-2.2277,-2.2887,-2.3577,-2.3949,-2.4376,-2.4778,0.0,0.0,0.0,0.0,0.0,0.0,0.0,0.0,0.0,0.0,0.0,0.0,0.0,0.0,0.0,0.0,0.0,0.0,0.0,0.0,0.0,0.0,0.0,0.0,0.0,0.0,0.0,0.0,0.0,0.0,0.0,0.0,0.0,0.0,0.0,0.0,0.0,0.0,0.0,0.0,0.0,0.0,0.0,0.0,0.0,0.0,0.0,0.0,0.0,0.0,0.0,-2.0005,-2.0135,-1.9452,-1.8642,-1.8642,-1.814,-1.754,-1.754,-1.73,-1.7033,-1.7043,-1.7076,-1.7026,-1.6658,-1.6629,-1.6754,-1.6964,-1.597,-1.5147,-1.5482,-1.5735,-1.5811,0.0,0.0,0.0,-1.7864,-1.7799,-1.7802,-1.8073,-1.8265,0.0,-1.8763,-1.9545,-2.003,0.0,-2.0196,-2.0088,-1.9745,-1.9556,-1.9252,-1.892,-1.8837,-1.8788,-1.862,-1.9707,-2.0708,-2.1565,-2.1951,-2.2176,-2.2165,-2.1818,-2.1664,-2.1642,0.0,-2.1638,-2.1376,-2.1659,-2.169,-2.16,-2.2037,-2.2689,-2.3374,-2.3872,-2.4478,-2.5005,0.0,0.0,0.0,0.0,0.0,0.0,0.0,0.0,0.0,0.0,0.0,0.0,0.0,0.0,0.0,0.0,0.0,0.0,0.0,0.0,0.0,0.0,0.0,0.0,0.0,0.0,0.0,0.0,0.0,0.0,0.0,0.0,0.0,0.0,0.0,0.0,0.0,0.0,0.0,0.0,0.0,0.0,0.0,0.0,0.0,0.0,0.0,0.0,0.0,0.0,-2.2005,-2.0617,-2.0717,-1.981,-1.8694,-1.8574,-1.7422,-1.6177,-1.606,-1.5517,-1.4963,-1.5188,-1.5238,-1.53,-1.5436,-1.5107,-1.4963,-1.568,-1.4848,-1.4315,-1.5037,-1.5468,-1.5432,-1.4816,-1.5405,-1.6141,-1.6583,-1.662,-1.6961,-1.7731,-1.8166,-1.8271,-1.7864,-1.8878,-1.9306,-1.897,-1.9928,-2.0339,-1.9817,-1.9677,-1.9446,-1.8956,-1.8885,-1.8877,-1.8928,-1.9311,-1.9838,-2.0492,-2.1563,-2.2093,-2.2082,-2.1921,-2.1824,-2.1866,-2.1597,-2.1463,-2.1463,-2.1624,-2.1698,-2.1761,-2.2173,-2.275,-2.3433,-2.393,-2.4523,-2.5174,0.0,0.0,0.0,0.0,0.0,0.0,0.0,0.0,0.0,0.0,1.542,1.9275,0.0,0.0,0.0,0.0,0.0,0.0,0.0,0.0,0.0,0.0,0.0,0.0,0.0,0.0,0.0,0.0,0.0,0.0,0.0,0.0,0.0,0.0,0.0,0.0,0.0,0.0,0.0,0.0,0.0,0.0,0.0,0.0,0.0,0.0,0.0,0.0,0.0,0.0,-2.0703,-2.0456,-2.0528,-1.9542,-1.8195,-1.7317,-1.6849,-1.6466,-1.5925,-1.5413,-1.5145,-1.5368,-1.5217,-1.492,-1.4709,-1.4736,0.0,-1.4763,-1.434,-1.402,-1.4172,-1.4264,-1.4388,-1.4494,-1.4915,-1.5479,-1.6002,-1.5977,-1.5828,0.0,-1.6073,-1.6339,-1.6972,-1.7211,0.0,0.0,-1.8727,-1.8881,-1.9774,-1.921,-1.8461,-1.7823,-1.7495,-1.7712,-1.8508,-1.9201,-1.9937,-2.0907,-2.1632,-2.1987,-2.2174,-2.1707,-2.1551,-2.1764,-2.167,0.0,-2.1635,-2.1698,-2.1761,-2.1874,-2.1925,-2.2738,-2.3904,-2.3975,-2.4724,-2.5659,0.0,0.0,0.0,0.0,0.0,0.0,0.0,0.0,0.6566,0.8937,1.1194,1.452,1.9565,1.9731,0.0,0.0,0.0,0.0,0.0,0.0,0.0,0.0,0.0,0.0,0.0,0.0,0.0,0.0,0.0,0.0,0.0,0.0,0.0,0.0,0.0,0.0,0.0,0.0,0.0,0.0,0.0,0.0,0.0,0.0,0.0,0.0,0.0,0.0,0.0,0.0,-1.9747,-1.9189,-1.9795,-1.8569,-1.6766,-1.6279,-1.5414,-1.4495,-1.4185,-1.3727,-1.35,-1.411,-1.4032,-1.3942,-1.4268,0.0,0.0,-1.4185,-1.3521,-1.3117,-1.3782,-1.3777,-1.3866,-1.4411,-1.4897,-1.5331,-1.5632,-1.5792,-1.5722,-1.5397,-1.5486,-1.5669,-1.5672,-1.6328,-1.6832,-1.7245,-1.7761,-1.8508,-1.9507,-1.8807,-1.8155,-1.7821,-1.7415,-1.7442,-1.7934,-1.8477,-1.9127,-1.997,-2.0632,-2.1255,-2.1771,-2.1504,-2.1537,-2.1698,-2.1761,-2.1812,-2.1812,-2.1949,-2.1999,-2.2061,-2.2061,-2.2871,-2.3981,-2.3636,-2.4323,-2.5331,0.0,0.0,0.0,0.0,0.0,0.0,0.0,0.2516,0.3495,0.6793,0.6862,0.8853,1.4809,1.586,1.7941,0.0,0.0,0.0,0.0,0.0,0.0,0.0,0.0,0.0,0.0,0.0,0.0,2.4859,0.0,0.0,0.0,0.0,0.0,0.0,0.0,0.0,0.0,0.0,0.0,0.0,0.0,0.0,0.0,0.0,0.0,0.0,0.0,0.0,0.0,0.0,-1.8253,-1.74,-1.8031,-1.7036,-1.5626,-1.5445,-1.425,-1.2901,-1.2687,-1.2309,-1.2144,-1.2899,-1.2949,-1.3009,-1.3836,-1.3375,-1.293,-1.3642,-1.283,-1.2375,-1.3564,-1.3525,-1.3548,-1.4336,-1.4765,-1.504,-1.5249,-1.5482,-1.5576,-1.5216,-1.5433,0.0,-1.4769,-1.5555,0.0,-1.543,-1.6915,-1.8199,-1.902,-1.8469,-1.8027,-1.7944,-1.7613,-1.7438,-1.7509,-1.787,-1.8307,-1.8911,-1.977,-2.0624,-2.1325,-2.1463,-2.16,-2.1824,-2.1937,-2.1937,-2.1999,-2.2123,-2.2197,-2.2185,-2.2065,-2.271,-2.3599,-2.3141,-2.3716,-2.4633,0.0,0.0,0.0,0.0,0.0,0.0,0.0,0.246,0.2609,0.2456,0.2396,0.3701,0.716,1.1562,1.5742,0.0,0.0,0.0,0.0,0.0,0.0,0.0,0.0,0.0,0.0,0.0,0.0,2.4707,2.4844,0.0,0.0,0.0,0.0,0.0,0.0,1.3017,0.0,0.0,0.0,0.0,0.0,0.0,0.0,0.0,0.0,0.0,0.0,0.0,0.0,0.0,0.0,-1.5121,-1.4388,-1.4931,-1.5695,-1.4911,-1.4433,-1.3922,-1.2879,-1.2557,-1.262,-1.3018,-1.2755,-1.2615,-1.33,0.0,-1.2688,-1.2963,-1.2543,-1.2458,-1.3423,-1.3273,-1.3313,-1.4113,-1.3945,-1.4003,-1.4796,-1.4739,-1.4838,-1.5282,0.0,0.0,-1.4671,-1.4685,-1.4904,-1.5145,-1.6307,-1.7334,-1.8183,-1.8123,-1.7892,-1.7593,-1.732,-1.7301,-1.7527,-1.794,-1.8307,-1.8566,-1.9911,-2.07,-2.0967,-2.16,-2.1937,-2.2135,-2.2185,-2.2185,0.0,-2.2197,-2.2197,-2.2149,-2.1668,-2.1928,-2.2643,-2.2609,-2.303,-2.3705,0.0,0.0,0.0,0.0,0.0,0.0,0.1288,0.14,0.1567,0.1677,0.1568,0.1957,0.3249,0.5069,0.8708,0.0,0.0,0.0,0.0,0.0,0.0,0.0,0.0,0.0,0.0,0.0,0.0,2.513,2.5,0.0,0.0,0.0,0.0,0.0,0.0,0.8941,0.1265,0.0,0.0,0.0,0.0,0.0,0.0,0.0,0.0,0.0,0.0,0.0,-1.5392,0.0,0.0,0.0,-1.2553,-1.2761,0.0,0.0,-1.2908,-1.2465,-1.1675,-1.1799,-1.2194,-1.2203,-1.2134,-1.2266,-1.3057,0.0,-1.2327,-1.2912,-1.2531,-1.2323,-1.2946,-1.2529,-1.2264,-1.2688,0.0,0.0,-1.363,-1.3916,-1.4256,-1.4794,-1.5058,-1.4953,0.0,0.0,-1.4403,-1.4749,-1.5232,-1.6079,-1.7332,-1.7631,-1.7641,-1.748,-1.7392,-1.7392,-1.747,-1.7666,-1.8056,-1.8499,-1.9497,-2.0302,-2.0892,-2.16,-2.1999,-2.2197,-2.2197,-2.2017,0.0,-2.1716,-2.1584,-2.133,-2.1112,-2.1681,-2.2583,-2.2221,-2.2682,-2.342,0.0,0.0,0.0,0.0,0.0,0.0393,0.0505,0.0505,0.056,0.0839,0.0728,0.056,0.0335,0.0391,0.2587,0.8072,0.0,0.0,0.0,0.0,0.0,0.0,0.0,0.0,0.0,0.0,2.3125,2.3238,2.1717,1.9614,0.0,0.0,1.4641,1.185,0.0,0.0,0.0,0.0,0.0,0.0,0.0,0.0,0.0,0.0,0.0,0.0,0.0,0.0,0.0,0.0,0.0,0.0,0.0,0.0,0.0,0.0,-1.1947,-1.1576,-1.1243,-1.1533,-1.1911,-1.1713,-1.1559,-1.164,-1.2503,-1.2181,-1.1805,-1.2304,-1.2108,-1.1946,-1.2199,-1.176,-1.148,0.0,0.0,-1.1955,-1.3013,-1.3397,-1.386,-1.4702,0.0,-1.4721,-1.4179,-1.3885,-1.3795,-1.4126,-1.4316,-1.5006,-1.6345,-1.6843,-1.726,-1.7666,-1.7598,-1.7598,-1.7676,-1.7598,-1.7862,-1.8442,-1.9166,-1.9879,-2.0602,-2.1241,-2.1665,-2.1838,-2.1838,-2.162,0.0,-2.1112,-2.0879,-2.0604,-2.0385,-2.0876,-2.168,-2.1385,-2.1815,-2.2449,0.0,0.0,0.0,0.0,0.0,0.0,0.0,0.0112,-0.0224,-0.0785,-0.0898,-0.1177,-0.1903,-0.1566,-0.1339,-0.1445,0.0,0.0,0.0,0.0,0.0,0.0,0.0,0.0,0.0,0.0,1.8237,1.8193,1.3508,1.1228,1.1178,1.0904,1.0832,1.0694,0.0,0.0,0.0,0.0,0.0,0.0,0.0,0.0,0.0,0.0,0.0,0.0,0.0,0.0,0.0,0.0,0.0,0.0,0.0,0.0,0.0,0.0,-1.2209,-1.2018,-1.2128,-1.2078,-1.1985,-1.1846,-1.1159,-1.0711,-1.1541,-1.1474,-1.1151,-1.0881,-1.1065,-1.1292,-1.1241,-1.0978,-1.1017,-1.1667,-1.1553,0.0,-1.3385,-1.3208,-1.3543,-1.5287,-1.5166,-1.4829,-1.4558,-1.3626,-1.3006,-1.3006,-1.3721,0.0,-1.5265,-1.5865,-1.6728,-1.793,-1.7784,-1.7784,-1.8008,-1.7784,-1.792,-1.8337,-1.8977,-1.9512,-1.98,-2.0488,-2.0878,-2.0986,-2.0986,-2.0986,0.0,-2.041,-2.0189,-2.0121,-1.9485,-1.9326,-1.949,-1.9884,-2.0144,-2.0415,0.0,0.0,0.0,0.0,0.0,0.0,0.0,-0.0168,-0.0448,-0.0952,-0.0743,-0.092,-0.202,-0.1458,-0.1127,-0.1565,0.0,0.0,0.0,0.0,0.0,0.0,0.0,0.0,0.0,0.0,1.406,1.386,1.2207,0.9607,0.6247,0.5937,0.4064,0.0869,-0.1473,-0.3113,0.0,0.0,0.0,0.0,0.0,0.0,0.0,0.0,0.0,0.0,0.0,0.0,0.0,0.0,0.0,0.0,0.0,0.0,0.0,0.0,0.0,0.0,-1.1029,-1.1318,-1.1607,-1.1564,-1.1229,-1.1017,-1.1665,-1.1156,-1.0547,-1.0779,-1.0992,-1.1091,-1.0775,-1.0632,-1.0632,-1.0806,-1.0535,0.0,0.0,-1.2473,-1.3075,-1.3978,-1.4214,-1.4197,0.0,0.0,-1.3086,-1.3346,-1.3355,-1.3677,-1.4421,-1.5112,-1.6129,-1.7512,-1.722,-1.7129,-1.7323,-1.7248,-1.7323,-1.758,-1.826,-1.8603,-1.8761,-1.9838,-2.0157,-1.9865,-2.0256,-2.0072,0.0,-1.9199,-1.8955,-1.8685,-1.8471,-1.8879,-1.9533,-1.9704,-2.0159,-2.0737,0.0,0.0,0.0,0.0,0.0,0.0,0.0,-0.1008,-0.1231,-0.1732,-0.1537,-0.1726,-0.2795,-0.2423,-0.2232,-0.2628,0.0,0.0,0.0,0.0,0.0,0.0,0.0,0.0,0.0,0.9291,0.9119,0.8835,0.6862,0.4306,0.1242,0.0621,-0.1163,-0.3968,-0.5058,-0.5919,0.0,0.0,0.0,0.0,0.0,0.0,-1.0172,0.0,0.0,0.0,0.0,0.0,0.0,0.0,0.0,0.0,0.0,0.0,0.0,0.0,-0.9131,-0.9761,0.0,-1.0615,-1.0881,-1.0991,-1.0723,-1.0592,-1.1057,-1.0694,-1.0316,-1.0353,-1.0645,-1.0754,-1.0366,-1.0167,-1.0148,-1.0311,-1.0153,-1.0272,-1.1369,-1.2198,-1.3002,-1.3715,-1.3951,0.0,0.0,-1.3448,-1.3223,-1.3146,-1.3043,-1.3309,-1.3897,-1.4287,-1.5138,-1.6524,-1.6699,-1.6918,-1.7096,-1.7106,-1.7079,-1.7042,-1.7626,-1.7913,-1.7904,-1.8897,-1.9168,-1.8891,-1.9258,-1.9094,0.0,-1.8275,-1.8037,-1.7734,-1.7523,-1.7904,-1.8574,-1.8508,-1.8951,-1.9589,0.0,0.0,0.0,0.0,0.0,0.0,0.0,0.0,-0.235,-0.285,-0.2974,-0.33,-0.392,-0.4074,-0.4195,-0.4427,0.0,0.0,0.0,0.0,0.0,0.0,0.0,0.0,0.0,0.3779,0.363,0.3353,-0.1078,-0.3338,-0.3397,-0.4375,-0.4702,-0.4574,-0.5664,-0.6317,0.0,0.0,0.0,0.0,0.0,0.0,0.0,0.0,0.0,0.0,0.0,0.0,0.0,0.0,0.0,0.0,0.0,0.0,0.0,0.0,0.0,0.0,0.0,-0.9976,-0.9969,-1.019,-0.9955,-0.971,-1.0008,-1.0223,0.0,-0.9809,-1.0115,-1.0413,-1.0089,-0.9806,-0.9799,-1.0305,-1.0375,-1.0704,-1.1729,-1.2359,-1.3119,-1.4234,-1.4057,-1.3844,-1.3895,-1.3636,-1.3239,-1.2649,-1.2894,-1.3231,-1.36,-1.3551,-1.3939,-1.5002,-1.6184,-1.6854,-1.704,-1.704,-1.689,-1.6655,-1.7144,-1.7249,-1.7144,-1.7676,-1.7918,0.0,-1.8031,0.0,0.0,-1.751,-1.7321,-1.7238,-1.6649,-1.661,-1.6946,-1.6786,-1.7013,-1.75,0.0,0.0,0.0,0.0,0.0,0.0,0.0,0.0,0.0,0.0,-0.2743,-0.299,-0.3882,-0.3439,-0.3174,0.0,0.0,0.0,0.0,0.0,0.0,0.0,0.0,0.0,0.0,-0.0431,-0.0703,-0.1006,-0.2325,-0.3391,-0.4235,-0.4678,-0.4772,-0.4688,-0.5399,-0.6046,0.0,0.0,0.0,0.0,0.0,0.0,0.0,0.0,0.0,0.0,-0.6124,-0.6206,0.0,0.0,0.0,0.0,0.0,0.0,0.0,0.0,-0.7824,-0.8086,-0.8465,0.0,-0.947,-1.0341,-1.0302,-1.0107,0.0,-1.036,0.0,0.0,0.0,0.0,0.0,-1.028,-1.0449,-1.0775,-1.087,-1.1045,-1.1306,-1.157,-1.1897,-1.2652,-1.2428,-1.2285,-1.2618,-1.2542,-1.265,-1.3241,-1.3124,-1.2923,-1.2795,-1.318,-1.3514,-1.3663,-1.4417,-1.5034,-1.5355,-1.5355,-1.5359,-1.5419,-1.5533,-1.5571,-1.5563,-1.6479,-1.6492,-1.5718,-1.6544,0.0,-1.5764,-1.5625,-1.5868,-1.6293,-1.5698,-1.6258,-1.7357,-1.7226,-1.7706,-1.8518,0.0,0.0,0.0,0.0,0.0,0.0,0.0,0.0,0.0,0.0,0.0,0.0,0.0,0.0,0.0,0.0,0.0,0.0,0.0,0.0,0.0,0.0,0.0,0.0,-0.2691,-0.2736,-0.2953,-0.3256,-0.3653,-0.3964,-0.4298,-0.5226,-0.5601,-0.541,-0.6398,-0.6946,0.0,0.0,0.0,0.0,-0.6529,0.0,0.0,0.0,0.0,0.0,-0.5399,-0.5567,0.0,-0.6,-0.6055,-0.6055,0.0,0.0,0.0,0.0,-0.7516,-0.7958,-0.812,-0.8426,-0.8931,-0.9717,-0.9971,-0.9978,-1.0172,0.0,0.0,0.0,0.0,0.0,0.0,-1.044,-1.0522,-1.0961,-1.1027,-1.1069,-1.1331,-1.1218,-1.1331,-1.1954,-1.1733,-1.171,0.0,-1.2487,-1.2713,-1.3028,-1.3044,-1.2797,-1.2234,-1.2505,-1.2742,-1.2815,-1.3192,-1.3851,-1.4882,-1.4882,-1.4842,-1.4687,-1.4687,-1.461,-1.458,-1.5037,-1.5085,-1.4794,-1.533,0.0,-1.5044,-1.5414,-1.5721,-1.5977,-1.5749,-1.6376,-1.7314,-1.7019,-1.7483,-1.8331,0.0,0.0,0.0,0.0,0.0,0.0,0.0,0.0,0.0,0.0,0.0,0.0,0.0,0.0,0.0,0.0,0.0,0.0,0.0,0.0,0.0,0.0,0.0,-0.3941,-0.3967,-0.388,-0.4013,-0.4397,-0.482,-0.4808,-0.4442,-0.5958,-0.651,-0.6342,-0.7512,-0.7898,0.0,0.0,-0.7291,-0.6642,-0.6147,0.0,0.0,0.0,0.0,0.0,0.0,0.0,0.0,-0.5466,-0.5458,-0.5458,-0.5508,0.0,0.0,0.0,0.0,0.0,-0.8019,-0.8175,-0.8414,-0.8924,-0.9414,-0.9743,-0.9616,0.0,0.0,0.0,0.0,0.0,0.0,-1.0455,0.0,-1.0997,-1.0895,-1.0965,-1.1438,-1.1018,-1.0889,-1.1372,-1.1197,0.0,-1.2144,-1.2593,-1.277,-1.2482,-1.2767,-1.2655,-1.1963,-1.1897,-1.1999,-1.2265,-1.2263,-1.3007,-1.4562,-1.4583,-1.4376,-1.4042,-1.4042,-1.3956,-1.3848,-1.375,-1.4002,-1.4377,0.0,0.0,-1.4841,-1.5621,-1.5917,-1.5915,-1.6074,-1.6546,-1.7167,-1.6747,-1.7063,-1.7855,0.0,0.0,0.0,0.0,0.0,0.0,0.0,0.0,0.0,0.0,0.0,0.0,0.0,0.0,0.0,0.0,0.0,0.0,0.0,0.0,0.0,0.0,-0.4781,-0.4603,-0.3951,-0.4405,-0.4826,-0.5304,-0.5569,-0.5856,-0.6203,-0.6658,-0.6762,-0.6616,-0.6703,-0.6593,-0.6289,-0.6289,-0.6113,-0.5848,-0.5135,0.0,0.0,0.0,0.0,0.0,0.0,0.0,0.0,-0.4734,-0.4853,-0.4908,-0.523,0.0,0.0,0.0,0.0,0.0,-0.7326,-0.7671,-0.8012,-0.8856,-0.9295,-0.9642,-1.0052,0.0,0.0,0.0,0.0,0.0,0.0,-1.0829,-1.0857,-1.0834,-1.0878,-1.1008,-1.1331,-1.0659,-1.0053,-0.9922,0.0,-0.9796,-1.0367,-1.1021,-1.163,-1.2043,-1.2464,-1.2444,-1.2004,-1.174,-1.1619,-1.1825,-1.1688,-1.1959,-1.2723,-1.2723,-1.278,-1.2881,-1.2881,-1.2926,-1.3083,-1.3696,-1.3752,-1.345,0.0,-1.4136,-1.3857,-1.4485,-1.5075,-1.5593,-1.5593,-1.6245,-1.7235,-1.737,-1.7819,-1.846,0.0,0.0,0.0,0.0,0.0,0.0,0.0,0.0,0.0,0.0,0.0,0.0,0.0,0.0,0.0,0.0,0.0,0.0,0.0,0.0,0.0,-0.4697,-0.49,-0.5003,-0.4793,-0.4905,-0.5144,-0.5455,-0.5671,-0.5748,-0.5694,-0.633,-0.6838,-0.721,-0.7239,-0.7141,-0.7012,-0.6943,-0.6666,-0.6277,0.0,0.0,0.0,0.0,0.0,0.0,0.0,0.0,0.0,0.0,-0.4239,-0.446,-0.4791,0.0,0.0,0.0,0.0,0.0,-0.6821,-0.7215,-0.7489,-0.794,-0.9059,-1.0089,-0.9958,0.0,0.0,0.0,0.0,0.0,0.0,0.0,-1.068,-1.0838,-1.0779,-1.0677,-1.057,-1.0012,-0.9511,0.0,0.0,-0.9341,-0.9951,-1.0661,-1.1253,-1.1559,-1.2029,-1.207,-1.1533,-1.1376,-1.1222,-1.1048,-1.0944,-1.1116,-1.158,-1.1552,-1.1973,-1.2764,-1.2505,-1.2498,-1.2689,-1.2659,-1.2753,-1.2986,0.0,-1.3644,-1.4145,-1.48,-1.541,-1.6009,-1.6297,-1.6811,-1.7443,-1.7977,-1.8608,-1.9184,0.0,0.0,0.0,0.0,0.0,0.0,0.0,0.0,0.0,0.0,0.0,0.0,0.0,0.0,0.0,0.0,0.0,0.0,0.0,0.0,-0.507,-0.4561,-0.4784,-0.5097,-0.5315,-0.5172,-0.523,-0.5524,-0.5713,-0.5649,-0.5297,-0.6036,-0.6763,-0.7423,-0.7584,-0.7627,-0.7559,-0.7464,-0.7185,-0.6754,0.0,0.0,0.0,0.0,0.0,0.0,0.0,0.0,0.0,0.0,0.0,0.0,0.0,0.0,0.0,-0.4876,-0.5197,-0.5465,-0.6058,-0.6448,-0.6737,-0.6872,0.0,-0.9801,-0.9624,-1.0363,0.0,0.0,0.0,0.0,0.0,-1.0373,-1.0427,-1.0684,-1.0605,-1.0379,-1.0035,-0.9642,-0.9308,-0.9147,-0.9118,-0.9242,-0.9549,-1.0246,-1.0768,-1.0964,-1.1353,-1.1463,-1.1156,-1.0985,-1.0739,-1.0449,-1.0387,-1.0476,-1.0833,-1.0966,-1.158,-1.2633,-1.23,-1.2191,-1.2373,-1.1953,-1.2207,-1.3009,-1.2875,-1.3526,-1.4764,-1.528,-1.5853,-1.6441,-1.699,-1.7397,-1.781,-1.854,-1.9185,-1.9726,0.0,0.0,0.0,0.0,0.0,0.0,0.0,0.0,0.0,0.0,0.0,0.0,0.0,0.0,0.0,0.0,0.0,0.0,0.0,0.0,-0.4694,-0.4353,-0.4628,-0.4708,-0.4577,-0.5004,-0.542,-0.5855,-0.613,-0.6322,-0.6373,-0.64,-0.652,-0.6795,-0.6852,-0.6813,-0.668,-0.6632,-0.6592,-0.6578,-0.5674,0.0,0.0,0.0,0.0,0.0,0.0,0.0,0.0,0.0,0.0,0.0,0.0,0.0,-0.3297,-0.3466,-0.3635,-0.3887,-0.4589,-0.5097,-0.5534,-0.5851,-0.6717,0.0,-0.9216,-0.9499,0.0,-1.1211,0.0,0.0,0.0,-1.0491,-1.0166,-1.0229,-1.0308,-1.0288,-1.0272,0.0,-0.9626,-0.8964,-0.9002,-0.8857,-0.8443,-0.8985,-0.9577,-1.0198,-1.0302,-1.0595,-1.123,-1.0593,-1.0223,-1.0306,-1.0202,-1.0205,-1.0361,-1.1088,-1.1586,-1.1886,-1.1841,-1.194,-1.2135,-1.2341,-1.2914,-1.3717,-1.3468,-1.4143,-1.5434,-1.5474,-1.5853,-1.6441,-1.699,-1.768,-1.8482,-1.8916,-1.9391,-1.9797,0.0,0.0,0.0,0.0,0.0,0.0,0.0,0.0,0.0,0.0,0.0,0.0,0.0,0.0,0.0,0.0,0.0,0.0,0.0,0.0,-0.4639,-0.4628,-0.4839,-0.4824,-0.4552,-0.464,-0.4766,-0.4908,-0.4984,-0.5174,-0.5538,-0.5538,-0.5751,-0.5959,-0.5978,-0.5948,-0.5786,-0.5703,-0.5728,-0.5848,-0.5256,-0.5243,0.0,0.0,0.0,0.0,0.0,0.0,0.0,0.0,-0.2404,-0.2406,0.0,0.0,-0.291,-0.3016,-0.307,-0.3188,-0.3792,-0.4168,-0.4432,-0.5075,-0.5561,0.0,0.0,-0.9259,-0.9829,-1.0682,-1.0719,0.0,0.0,0.0,-0.982,-0.9981,-0.985,-0.9708,-0.9868,-0.9383,-0.8947,-0.8805,-0.8622,-0.8489,-0.8195,-0.8858,-0.9371,-0.9546,-1.0059,-1.0435,-1.0614,-1.0359,-1.0139,-0.9999,-0.9916,-1.0049,-1.0283,-1.0954,-1.1442,-1.1689,-1.1884,-1.2041,-1.2113,-1.2222,-1.2675,-1.3426,-1.3317,-1.3985,-1.5171,-1.5491,-1.6017,-1.6651,-1.732,-1.8033,-1.8788,-1.8941,-1.9381,-1.9919,0.0,0.0,0.0,0.0,0.0,0.0,0.0,0.0,0.0,0.0,0.0,0.0,0.0,0.0,0.0,0.0,0.0,0.0,0.0,-0.3982,-0.4258,-0.4443,-0.456,-0.4526,-0.4313,-0.4182,-0.4174,-0.4452,-0.4251,-0.4295,-0.4553,-0.4709,-0.4854,-0.5048,-0.509,-0.5047,-0.5026,-0.4888,-0.5018,-0.52,-0.4926,-0.483,0.0,0.0,0.0,0.0,0.0,0.0,0.0,0.0,-0.2184,-0.2071,0.0,0.0,0.0,0.0,-0.2364,-0.2382,-0.2836,-0.3239,-0.3624,-0.4235,0.0,0.0,-0.7466,-0.8363,-0.9008,-0.9756,-0.978,-0.9601,-0.932,0.0,0.0,0.0,-0.9369,-0.9311,-0.9444,-0.8936,-0.8562,-0.8543,-0.8417,-0.8235,-0.8034,-0.8661,-0.9113,-0.9278,-0.9606,-0.9947,-1.0184,-0.9995,-0.9867,-0.9862,-0.9823,-0.9932,-1.0196,-1.0725,-1.1169,-1.1468,-1.1847,-1.2077,-1.2186,-1.2186,-1.2627,-1.3328,-1.3257,-1.4063,-1.5406,-1.5691,-1.6313,-1.7166,-1.7881,-1.8458,-1.8896,-1.8907,-1.9379,-1.9995,0.0,0.0,0.0,0.0,0.0,0.0,0.0,0.0,0.0,0.0,0.0,0.0,0.0,0.0,0.0,0.0,0.0,0.0,-0.3388,-0.3551,-0.3611,-0.3611,-0.3706,-0.3713,-0.3613,-0.3506,-0.3819,-0.4691,-0.4376,-0.4038,-0.3704,-0.3944,-0.4054,-0.4065,-0.4167,-0.4263,-0.4466,-0.4335,-0.4474,-0.4723,-0.4723,-0.4577,-0.4469,0.0,0.0,0.0,0.0,0.0,0.0,0.0,-0.241,-0.2071,0.0,0.0,0.0,-0.129,-0.132,-0.141,-0.1586,-0.2345,-0.3102,-0.3259,0.0,0.0,-0.5918,-0.653,-0.7187,-0.8595,-0.8485,-0.8157,-0.8037,-0.8176,0.0,-0.8789,-0.8991,-0.912,-0.9114,-0.8826,-0.8487,-0.8244,-0.8275,-0.8183,-0.7925,-0.8215,-0.8685,-0.9354,-0.877,-0.8944,-1.0132,-0.9447,-0.9323,-0.998,-0.9862,-0.9843,-1.0021,-1.038,-1.0812,-1.1217,-1.1627,-1.2004,-1.2413,-1.2413,-1.2866,-1.3668,-1.3421,-1.4451,-1.635,-1.6197,-1.6821,-1.7963,-1.864,-1.8893,-1.8896,-1.8991,-1.9482,-2.0008,0.0,0.0,0.0,0.0,0.0,0.0,0.0,0.0,0.0,0.0,0.0,0.0,0.0,0.0,0.0,0.0,0.0,0.0,-0.3447,-0.3872,-0.4142,-0.4182,-0.4295,-0.4342,-0.4309,-0.4382,-0.4148,-0.3698,-0.3254,-0.3069,-0.3232,-0.3025,-0.2983,-0.3055,-0.3239,-0.3252,-0.3143,-0.3143,-0.3415,-0.3787,-0.3717,-0.3811,-0.4045,0.0,0.0,0.0,0.0,0.0,0.0,0.0,0.0,0.0,0.0,0.0,0.0,-0.1635,-0.1377,-0.1054,-0.1202,-0.1624,-0.2165,-0.3021,0.0,0.0,0.0,-0.6079,0.0,0.0,-0.7673,-0.7089,-0.7242,-0.7121,0.0,-0.7574,-0.7744,-0.7947,-0.8239,-0.8248,-0.827,-0.8411,-0.8282,-0.8255,-0.8275,-0.8533,-0.8665,-0.8606,-0.8753,-0.902,-0.952,-0.9357,-0.9494,-1.004,-1.003,-1.0021,-1.0021,-1.0537,-1.0807,-1.0867,-1.1627,-1.215,-1.2413,-1.2413,-1.2734,-1.3258,-1.3188,-1.3749,-1.4791,-1.585,-1.7009,-1.8149,-1.863,-1.9011,-1.9258,-1.943,-1.9808,-2.0204,0.0,0.0,0.0,0.0,0.0,0.0,0.0,0.0,0.0,0.0,0.0,0.0,0.0,0.0,0.0,0.0,0.0,0.0,0.0,0.0,-0.4064,-0.4054,-0.423,-0.427,-0.4227,-0.433,-0.4027,-0.3418,-0.3251,-0.3034,-0.2841,-0.2604,-0.2403,-0.2182,-0.2354,-0.2357,-0.228,-0.2274,-0.2716,-0.3309,-0.328,-0.3596,-0.4054,0.0,0.0,0.0,0.0,0.0,0.0,0.0,0.0,0.0,0.0,0.0,0.0,-0.199,-0.1713,-0.1437,-0.1666,-0.1746,0.0,-0.2893,-0.3438,-0.4066,-0.55,0.0,0.0,0.0,-0.6798,-0.6583,-0.6844,-0.6576,0.0,-0.7121,-0.7197,-0.7338,-0.7756,-0.8,-0.819,-0.8349,-0.8476,-0.8533,-0.8633,-0.885,-0.8833,-0.8477,-0.8606,-0.8792,-0.9012,-0.9069,-0.9322,-0.9895,-1.0079,-1.0176,-1.0108,-1.0498,-1.073,-1.0791,-1.1505,-1.2004,-1.2305,-1.2449,-1.2662,-1.2978,-1.349,-1.424,-1.5162,-1.6395,-1.753,-1.8542,-1.8912,-1.925,-1.9551,-1.9532,-1.9684,-1.9903,0.0,0.0,0.0,0.0,0.0,0.0,0.0,0.0,0.0,0.0,0.0,0.0,0.0,0.0,0.0,0.0,0.0,0.0,0.0,0.0,-0.3623,-0.3561,-0.373,-0.3744,-0.3589,-0.3673,-0.3675,-0.3586,-0.3901,-0.3576,-0.2584,-0.2521,-0.218,-0.1605,-0.1609,-0.1643,-0.1831,-0.1788,-0.2318,-0.3215,-0.3245,-0.3682,-0.43,-0.4551,0.0,0.0,0.0,0.0,0.0,0.0,0.0,0.0,-0.3274,-0.2903,-0.2407,-0.2344,-0.2282,-0.2233,-0.2481,-0.2355,-0.2303,-0.2716,-0.3254,0.0,-0.598,-0.6147,-0.6012,-0.5929,0.0,-0.6479,-0.6736,-0.6502,-0.6453,-0.7205,-0.7107,-0.7136,-0.7582,-0.7942,-0.8221,-0.8221,-0.8692,-0.9008,-0.9061,-0.9211,-0.9123,-0.8778,-0.8496,-0.8456,-0.8609,-0.87,-0.9006,-0.9616,-1.007,-1.0322,-1.0322,-1.0371,-1.0564,-1.0888,-1.1292,-1.17,-1.2077,-1.252,-1.2709,-1.2839,-1.4075,-1.5383,-1.6698,-1.7281,-1.8049,-1.8912,-1.9228,-1.953,-1.9728,-1.9461,-1.9346,-1.9379,0.0,0.0,0.0,0.0,0.0,0.0,0.0,0.0,0.0,0.0,0.0,0.0,0.0,0.0,0.0,0.0,0.0,0.0,0.0,0.0,-0.3661,-0.3467,-0.37,-0.3781,-0.3761,-0.3566,-0.3422,-0.3474,-0.3039,-0.2781,-0.2662,-0.1675,-0.1374,-0.1681,-0.1402,-0.1543,-0.195,-0.2098,-0.2519,-0.3053,-0.3083,-0.3488,-0.4097,-0.4123,-0.4233,0.0,0.0,0.0,0.0,0.0,0.0,0.0,-0.3605,-0.3249,-0.2728,-0.2727,-0.2463,-0.216,-0.2048,-0.2223,0.0,-0.2435,-0.2996,-0.2816,0.0069,-0.3235,-0.6996,-0.7417,-0.7395,-0.71,-0.6502,-0.6539,-0.6648,-0.6469,-0.683,-0.714,-0.7187,-0.777,-0.8268,-0.8474,-0.8896,-0.9263,-0.9458,-0.9784,-0.9741,-0.9133,-0.8988,-0.8911,-0.8915,-0.892,-0.9244,-0.9983,-1.0234,-1.0428,-1.0544,-1.0544,-1.0592,0.0,-1.1292,-1.1689,-1.1884,-1.2449,-1.2838,-1.3138,-1.3663,-1.4799,-1.6258,-1.6711,-1.7557,-1.862,-1.8912,-1.9213,-1.9493,-1.9652,-1.9852,-2.0088,0.0,0.0,0.0,0.0,0.0,0.0,0.0,0.0,0.0,0.0,0.0,0.0,0.0,0.0,0.0,0.0,0.0,0.0,0.0,0.0,0.0,-0.3426,-0.3415,-0.3445,-0.3574,-0.3368,-0.3149,-0.307,-0.2604,-0.2314,-0.2237,-0.1539,-0.13,-0.1509,-0.123,-0.1431,-0.1939,-0.2093,-0.2491,-0.3024,-0.3242,-0.3728,-0.4295,-0.4561,-0.4628,-0.4616,-0.481,0.0,0.0,0.0,0.0,0.0,0.0,0.0,-0.3272,-0.3163,-0.3054,-0.2957,-0.2829,0.0,0.0,-0.2952,0.0,-0.3048,0.1301,-0.3063,-0.7432,-0.5149,-0.6595,-0.8062,-0.7491,-0.7289,-0.7091,-0.6885,-0.7036,-0.7269,-0.7473,-0.799,-0.837,-0.8384,-0.8808,-0.9207,-0.9503,-0.9731,-0.9753,-0.9314,-0.9267,-0.9104,-0.8741,-0.8895,-0.9239,-0.9797,-1.0147,-1.0447,-1.0603,-1.0641,-1.0641,-1.0603,-1.133,-1.192,-1.2354,-1.265,-1.2965,-1.3285,-1.3635,-1.454,-1.5784,-1.6431,-1.7333,-1.8332,-1.8745,-1.9199,-1.9603,-1.9767,-1.9585,-1.9392,0.0,0.0,0.0,0.0,0.0,0.0,0.0,0.0,0.0,0.0,0.0,0.0,0.0,0.0,0.0,0.0,0.0,0.0,0.0,0.0,0.0,-0.3374,-0.3081,-0.2982,-0.327,-0.2964,-0.2737,-0.2538,-0.2188,-0.1866,-0.1626,-0.1604,-0.1571,-0.1458,-0.1193,-0.14,-0.1967,-0.2158,-0.2594,-0.3109,-0.3502,-0.4056,-0.4628,-0.503,-0.5027,-0.4827,-0.5226,-0.5093,-0.4758,-0.509,0.0,0.0,0.0,0.0,-0.3825,-0.3696,-0.3687,-0.3798,-0.3816,0.0,-0.3481,-0.3928,-0.4456,0.0,0.0554,-0.4007,-0.7663,-0.2286,-0.5615,-0.9298,-0.8824,-0.8369,-0.7976,-0.7709,-0.7563,-0.761,-0.7931,-0.8317,-0.841,-0.8119,-0.8575,-0.9024,-0.935,-0.9522,-0.9574,-0.9438,-0.9434,-0.9165,-0.8569,-0.8854,-0.9217,-0.9607,-1.007,-1.0399,-1.0661,-1.0748,-1.0766,-1.0669,-1.1479,-1.2246,-1.2931,-1.2943,-1.3104,-1.3353,-1.3631,-1.4272,-1.5222,-1.5949,-1.6907,-1.7963,-1.8499,-1.9163,-1.9823,-1.9929,-1.9415,-1.881,0.0,0.0,0.0,0.0,0.0,0.0,0.0,0.0,0.0,0.0,0.0,0.0,0.0,0.0,0.0,0.0,0.0,0.0,-0.2356,0.0,0.0,-0.3085,-0.2775,-0.262,-0.2622,-0.2188,-0.1942,-0.1886,-0.1523,-0.1338,-0.1321,-0.1237,-0.1458,-0.1961,-0.1745,-0.1945,-0.2521,-0.3003,-0.3303,-0.3526,-0.3601,-0.3931,-0.4367,-0.4434,-0.4831,-0.5292,-0.5362,-0.5362,-0.5292,-0.5359,-0.509,0.0,0.0,0.0,-0.4223,-0.422,-0.3949,-0.3628,-0.3779,0.0,-0.3758,0.0,-0.5227,-0.4053,0.0,0.0,-0.7845,0.0,-0.6949,-1.0801,-0.9355,-0.9537,-0.9509,-0.8457,-0.8362,-0.8362,-0.8162,-0.8268,-0.8296,-0.8093,-0.84,-0.8738,-0.9166,-0.9541,-0.9725,-0.9644,-0.9609,-0.9452,-0.9185,-0.9177,-0.9417,-1.0,-1.0196,-1.0477,-1.0853,-1.0891,-1.0881,-1.0881,-1.1675,-1.2401,-1.3072,-1.3129,-1.3254,-1.3454,-1.3213,-1.3682,-1.4594,-1.4504,-1.5481,-1.7125,-1.7792,-1.8759,-1.9859,-2.0429,-2.0569,-2.0476,0.0,0.0,0.0,0.0,0.0,0.0,0.0,0.0,0.0,0.0,0.0,0.0,0.0,0.0,0.0,-0.2814,-0.2884,-0.3094,-0.3585,-0.3329,-0.319,-0.3244,-0.2902,-0.2657,-0.2369,-0.2029,-0.1784,-0.1712,-0.1355,-0.1172,-0.123,-0.1173,-0.1458,-0.195,-0.1751,-0.1957,-0.2387,-0.2718,-0.2911,-0.3109,-0.3411,-0.3686,-0.4077,-0.4359,-0.4705,-0.5114,-0.5381,-0.5552,-0.5674,-0.5785,-0.5554,-0.5153,-0.5352,0.0,0.0,0.0,-0.4254,-0.4161,-0.4212,-0.4101,-0.4202,0.0,-0.6036,-0.5142,-0.0174,-0.4852,-0.7596,0.1738,-0.2056,-0.6613,-0.5226,-0.4958,-0.4707,-0.4036,-0.6883,-0.9197,-0.9197,-0.8989,-0.868,-0.838,-0.8421,-0.851,-0.858,-0.8866,-0.9173,-0.9395,-0.9406,-0.9359,-0.9297,-0.9288,-0.9448,-0.9932,-0.9971,-1.0302,-1.0885,-1.0891,-1.1079,-1.141,-1.1915,-1.2401,-1.2826,-1.3151,-1.3301,-1.3263,-1.3019,-1.3404,-1.4278,-1.4362,-1.5187,-1.6537,-1.7515,-1.8219,-1.8812,-1.9863,-1.998,-1.9736,0.0,0.0,0.0,0.0,0.0,0.0,0.0,0.0,0.0,0.0,0.0,0.0,0.0,0.0,0.0,0.0,-0.3049,-0.3528,-0.4464,-0.3958,-0.3639,-0.3583,-0.3235,-0.2827,-0.2307,-0.2071,-0.1829,-0.1458,-0.1248,-0.1073,-0.1136,-0.1188,-0.1374,-0.1784,-0.1704,-0.1842,-0.2104,-0.2256,-0.2445,-0.2615,-0.3079,-0.3405,-0.3676,-0.428,-0.4635,-0.4888,-0.5246,-0.5547,-0.5772,-0.5989,-0.5852,-0.5624,-0.5749,-0.5415,0.0,0.0,0.0,-0.4553,-0.4521,0.0,-0.4756,-0.5571,-0.674,-0.6528,0.0,0.0,-0.7711,0.0,0.2089,-0.0144,0.2067,0.1575,0.0472,-0.0606,-0.4634,-0.8202,-0.9754,-0.96,-0.9177,-0.8838,-0.8517,-0.8364,-0.8258,-0.8325,-0.8618,-0.915,-0.9223,-0.9298,-0.9466,-0.9408,-0.9536,-0.9853,-0.9823,-1.0108,-1.074,-1.0853,-1.1242,-1.1886,-1.2135,-1.2425,-1.2756,-1.3207,-1.3323,-1.3195,-1.2819,-1.3055,-1.3646,-1.394,-1.4679,-1.5771,-1.6996,-1.7652,-1.8078,-1.9431,-1.9591,-1.9272,0.0,0.0,0.0,0.0,0.0,0.0,0.0,0.0,0.0,0.0,0.0,0.0,-0.3034,-0.2223,-0.204,-0.2938,-0.2524,-0.2732,-0.3855,-0.3565,-0.3464,-0.3849,-0.3651,0.0,-0.2244,-0.2303,-0.185,0.0,0.0,0.0,-0.0909,-0.1134,-0.1243,-0.1381,-0.1626,-0.1694,-0.1756,-0.2084,-0.2249,-0.2247,-0.2764,-0.2942,-0.3096,-0.3822,-0.4298,-0.4563,-0.503,-0.5348,-0.5517,-0.5779,-0.5944,-0.6148,-0.6148,-0.5881,-0.555,0.0,0.0,0.0,-0.4221,-0.4782,0.0,-0.6252,-0.714,-0.8051,0.0,0.0,-0.8639,-0.3308,0.2286,0.7854,1.2986,0.9191,0.3744,-0.0946,-0.21,-0.4178,-0.9307,-0.9768,-0.9562,-0.955,-0.8629,-0.8191,-0.8651,-0.8259,-0.8322,-0.9058,-0.923,-0.9506,-0.9941,-0.9793,-0.9783,-1.0088,-0.9892,-0.9971,-1.0312,-1.0697,-1.1308,-1.208,-1.2378,-1.2685,-1.3072,-1.3357,-1.348,-1.3429,-1.2641,-1.2354,-1.2397,-1.2482,-1.3269,-1.4542,-1.5859,-1.7128,-1.8346,-1.9776,-2.0245,-2.0323,0.0,0.0,0.0,0.0,0.0,0.0,0.0,0.0,0.0,0.0,0.0,0.0,0.0,-0.2626,-0.2533,-0.3086,-0.3553,-0.4254,-0.5213,-0.5057,-0.4776,-0.4454,-0.435,-0.3934,-0.3085,-0.3112,0.0,0.0,0.0,-0.1514,-0.1009,-0.1081,-0.1165,-0.1188,-0.1401,-0.1391,-0.1403,-0.159,-0.1743,-0.1944,-0.2202,-0.2585,-0.3097,-0.3503,-0.4022,-0.4662,-0.4998,-0.5322,-0.5633,-0.5901,-0.6109,-0.6321,-0.6347,-0.6316,-0.6296,-0.6184,-0.5815,-0.5401,-0.5157,0.0,0.0,-0.6806,-0.7671,-0.8705,-0.9557,-0.7466,-0.3625,0.2449,0.7865,1.3398,1.9405,1.5763,1.1267,0.9517,0.5823,0.1191,-0.4574,-0.4998,-0.6034,-0.9545,-0.9565,-0.9236,-0.9036,-0.8579,-0.8445,-0.8944,-0.8665,-0.8788,-0.9527,-0.9496,-0.9576,-0.9892,-0.9853,-1.0068,-1.0663,-1.095,-1.1362,-1.192,-1.2182,-1.2436,-1.272,-1.3126,-1.3365,-1.3475,-1.3019,-1.2904,-1.3043,-1.2733,-1.3286,-1.4454,-1.5358,-1.6199,-1.708,-1.8436,-1.9238,-1.969,0.0,0.0,0.0,0.0,0.0,0.0,0.0,0.0,0.0,0.0,0.0,0.0,0.0,0.0,-0.3285,-0.3772,-0.4745,-0.5475,-0.5959,-0.5884,-0.5649,-0.5193,-0.5199,-0.4765,-0.3923,0.0,0.0,0.0,0.0,0.0,0.0,-0.1471,-0.1337,-0.114,-0.1221,-0.1229,0.0,-0.1225,-0.1384,-0.1594,-0.1787,-0.2275,-0.2906,-0.3322,-0.3887,-0.4589,-0.4977,-0.5225,-0.5475,-0.5858,-0.6029,-0.6139,-0.6237,-0.6443,-0.6578,-0.6324,-0.6148,-0.6009,-0.5811,0.0,0.0,0.0,-0.8054,-0.8894,-0.9899,-0.7643,-0.3627,0.2507,0.7723,1.3132,1.9351,1.9027,1.7158,1.5286,1.1477,0.6751,0.0881,-0.1188,-0.354,-0.7254,-0.9063,-0.9891,-0.9643,-0.898,-0.8707,-0.896,-0.8548,0.0,-0.9168,-0.9319,-0.9527,-0.9862,-0.9862,-1.0156,-1.0779,-1.1058,-1.1368,-1.1734,-1.2167,-1.2411,-1.2508,-1.3022,-1.3344,-1.3467,-1.337,-1.3347,-1.335,-1.3204,-1.3629,-1.4398,-1.5242,-1.5812,-1.6256,-1.7321,-1.8168,-1.8824,0.0,0.0,0.0,0.0,0.0,0.0,0.0,0.0,0.0,-0.608,0.0,0.0,0.0,0.0,0.0,-0.4964,-0.5799,-0.621,-0.6061,-0.5911,-0.5891,-0.6037,-0.604,-0.5596,-0.4792,0.0,0.0,0.0,0.0,0.0,0.0,0.0,-0.1843,-0.1236,-0.1236,-0.1147,-0.1124,-0.1185,-0.1211,-0.1215,-0.1708,-0.2117,-0.2598,-0.3299,-0.3814,-0.4221,-0.4859,-0.5028,-0.4996,-0.5551,-0.5623,-0.5606,-0.6011,-0.6233,-0.635,-0.6024,-0.6156,-0.6416,0.0,0.0,0.0,0.0,0.0,0.0,-1.002,0.0,-0.9075,-0.4182,0.1313,0.7048,1.2872,1.8609,2.06,1.5008,1.4243,1.2399,0.6756,0.1258,-0.2326,-0.2732,-0.7101,-1.0149,-1.0383,-0.9538,-0.9028,-0.9201,-0.8898,-0.8773,-0.8975,-0.9328,-0.9686,-0.998,-1.0019,-1.0205,-1.0582,-1.1009,-1.1341,-1.1616,-1.235,-1.2639,-1.2544,-1.3116,-1.3391,-1.3425,-1.3674,-1.3539,-1.3169,-1.3807,-1.4098,-1.4242,-1.547,-1.5981,-1.6052,-1.6581,-1.7237,-1.7941,0.0,0.0,0.0,0.0,0.0,0.0,0.0,0.0,0.0,0.0,0.0,0.0,-0.5175,-0.519,-0.5461,-0.6185,-0.6413,-0.6563,-0.6515,-0.6474,-0.642,-0.6352,-0.6349,-0.615,-0.5673,0.0,0.0,0.0,0.0,0.0,0.0,0.0,0.0,0.0,-0.1855,-0.1507,-0.0889,-0.0937,-0.0979,-0.1088,-0.1152,-0.1562,-0.2089,-0.2624,-0.3166,-0.372,-0.4508,-0.488,-0.5157,-0.6346,-0.6435,-0.6112,-0.6391,-0.639,-0.628,-0.6548,-0.6876,-0.7134,-0.6937,0.0,0.0,0.0,0.0,0.0,-1.0739,0.0,-0.486,-0.3432,0.1213,0.5589,0.7467,1.2559,1.5966,1.4349,1.7608,1.8352,1.2635,0.6996,0.1904,-0.2306,-0.7637,-1.0964,-1.1014,-1.0389,-0.9905,0.0,-0.9155,-0.8872,-0.8992,-0.9536,-1.001,-1.0273,-1.0244,-1.0351,-1.0687,-1.1065,-1.1427,-1.1767,-1.2244,-1.2567,-1.2723,-1.2875,-1.3138,-1.3493,-1.356,-1.3583,-1.3611,-1.3523,-1.3779,-1.4199,-1.4572,-1.5223,-1.6024,-1.6163,-1.6913,-1.7914,0.0,0.0,0.0,0.0,0.0,0.0,0.0,0.0,0.0,0.0,0.0,0.0,-0.6037,-0.6183,-0.6409,-0.6729,-0.6797,-0.6797,-0.6797,-0.6675,-0.6593,-0.6569,-0.6527,-0.6407,-0.6217,0.0,0.0,0.0,0.0,0.0,0.0,0.0,0.0,0.0,0.0,0.0,0.0,0.0,-0.08,-0.0838,-0.091,-0.1247,-0.1865,-0.2161,-0.2723,-0.3465,-0.4071,-0.4795,-0.5613,-0.6514,-0.6969,-0.7155,-0.6952,-0.6829,-0.6772,-0.6705,-0.7073,-0.7521,-0.7526,-0.8047,-0.863,-0.9128,0.0,0.0,-1.0639,-0.8595,-0.6529,0.0,-0.2318,0.1494,0.1685,0.6416,1.0238,1.0207,1.2809,1.4699,1.4273,0.9291,0.3599,-0.2121,-0.7846,-1.1326,-1.1326,-1.0683,-1.0144,-0.9806,-0.9207,-0.8865,-0.8992,-0.9496,-0.9922,-1.0264,-1.0351,-1.0505,-1.0649,-1.102,-1.1356,-1.1663,-1.2025,-1.2364,-1.2627,-1.2733,-1.3047,-1.3433,-1.356,-1.3728,-1.3868,-1.3658,-1.3929,-1.4455,-1.4456,-1.4883,-1.5442,-1.5051,-1.5775,-1.6917,0.0,0.0,0.0,0.0,0.0,0.0,0.0,0.0,0.0,0.0,-0.7779,-0.7439,-0.7166,-0.7288,-0.7258,-0.6976,-0.6953,-0.6953,-0.6953,-0.6698,-0.6593,-0.6695,-0.6701,-0.6609,-0.6551,0.0,0.0,0.0,0.0,0.0,0.0,0.0,0.0,0.0,0.0,0.0,0.0,0.0,-0.0695,-0.073,-0.0822,-0.1166,-0.1625,-0.1863,-0.254,-0.3243,-0.3504,-0.458,-0.5937,-0.6155,-0.7242,-0.8351,-0.7619,-0.7482,-0.7495,-0.6858,-0.7134,-0.7782,-0.7982,-0.8221,-0.8522,-0.932,-0.9291,0.0,-1.0302,-1.0862,-1.1178,0.0,-0.7697,-0.4404,-0.4353,0.0205,0.3915,0.3784,0.388,0.6109,1.2198,0.8185,0.2739,-0.231,-0.7907,-1.1326,-1.1326,-1.066,-0.9889,-0.8997,-0.7714,-0.7601,-0.9059,-0.8799,-0.9072,-1.0079,-1.039,-1.0582,-1.0582,-1.0887,-1.1169,-1.1481,-1.1801,-1.2087,-1.2389,-1.265,-1.2965,-1.3285,-1.3628,-1.3861,-1.3967,-1.4065,-1.4369,-1.4814,-1.4803,-1.4847,-1.4791,-1.3922,-1.4444,-1.5551,-1.3548,0.0,0.0,0.0,0.0,0.0,0.0,0.0,0.0,0.0,-0.7875,-0.7594,-0.7326,-0.7353,-0.7299,-0.7115,-0.7099,-0.7099,-0.7099,-0.7044,-0.6915,-0.6709,-0.701,-0.7026,-0.6725,-0.7024,0.0,0.0,0.0,0.0,0.0,0.0,0.0,0.0,0.0,0.0,0.0,0.0,0.0,-0.1529,-0.0879,-0.0843,-0.1218,-0.175,-0.2058,-0.2303,-0.3161,-0.4032,-0.4894,-0.6273,-0.7651,-0.8735,0.0,-0.7846,-0.7957,-0.8047,-0.849,-0.8882,-0.849,-0.8794,-0.919,-0.9464,-0.9334,0.0,-1.0979,-1.1338,-1.1478,0.0,-1.1325,-1.062,-1.0319,-0.5686,-0.1951,-0.1991,0.1671,0.4877,0.5769,0.1253,-0.2568,-0.3641,-0.8207,-1.1326,-1.1326,-1.1139,-0.9021,-0.4054,0.0945,-0.0221,-0.9374,-0.5597,-0.5271,-0.9855,-1.0273,-1.0428,-1.0361,-1.0937,-1.1238,-1.1271,-1.1849,-1.2162,-1.2248,-1.2555,-1.2803,-1.3,-1.3391,-1.3674,-1.3874,-1.4415,-1.47,-1.4794,-1.4791,-1.5139,-1.5542,-1.4969,-1.5096,-1.5532,-1.3797,0.0,0.0,0.0,0.0,0.0,0.0,0.0,0.0,-0.8143,-0.7908,-0.7595,-0.7282,-0.7394,-0.739,-0.716,-0.7139,-0.7139,-0.7139,-0.7075,-0.6932,-0.6871,-0.7192,-0.7246,-0.7086,-0.7405,-0.7443,0.0,0.0,0.0,0.0,0.0,0.0,0.0,0.0,0.0,0.0,0.0,-0.2625,-0.2398,-0.1238,0.0,-0.1596,-0.1577,-0.1726,-0.2038,-0.3056,-0.4533,-0.6314,-0.7851,-0.9006,0.0,-0.8927,-0.8801,-0.8858,0.0,-0.8882,-0.9274,0.0,0.0,0.0,-0.9768,-0.9858,0.0,0.0,-1.099,-1.1459,-1.1556,-1.2143,-1.2615,-1.2565,-1.0394,-0.8685,-0.8896,-0.6636,-0.4993,-0.5368,-0.4587,-0.507,-0.8186,-0.7854,-0.7367,-0.7367,-0.4442,-0.1166,0.2057,0.5098,0.4336,-0.1361,0.053,0.0514,-0.2346,-0.3082,-0.4611,-0.7072,-0.7309,-0.8739,-1.1397,-1.183,-1.2098,-1.2318,-1.2591,-1.2885,-1.3126,-1.3446,-1.3715,-1.396,-1.4433,-1.4732,-1.4769,-1.437,-1.4451,-1.4754,-1.3955,-1.4008,-1.4592,-1.3967,0.0,0.0,0.0,0.0,0.0,0.0,0.0,0.0,-0.8033,-0.7932,-0.7672,-0.7309,-0.7492,-0.7529,-0.7255,-0.7173,0.0,-0.7183,-0.7078,-0.71,-0.7079,-0.7418,-0.7594,-0.7499,-0.7776,-0.7823,0.0,0.0,0.0,0.0,0.0,0.0,0.0,0.0,0.0,0.0,0.0,0.0,-0.3443,0.0,-0.183,-0.2131,-0.173,-0.1731,-0.2208,-0.3372,-0.5538,-0.803,-0.9237,-0.9976,-1.0222,-0.9693,-0.9656,0.0,0.0,0.0,0.0,0.0,0.0,0.0,0.0,0.0,-1.0798,0.0,0.0,0.0,-1.1472,-1.2092,-1.2766,-1.2959,0.0,0.0,-1.4068,0.0,0.0,0.0,-0.951,0.0,-1.273,-0.844,-0.4629,-0.3612,0.3363,0.7497,0.6651,0.8626,0.893,0.6812,0.694,0.6584,0.5554,0.4459,0.1505,-0.3534,-0.3585,-0.6258,-1.1529,-1.1697,-1.1957,-1.2317,-1.2579,-1.2883,-1.3216,-1.3501,-1.3735,-1.3967,-1.4324,-1.4655,-1.488,-1.4163,-1.4035,-1.4106,-1.3219,-1.3335,-1.4046,-1.4372,-1.3698,0.0,0.0,0.0,0.0,0.0,0.0,0.0,0.0,-0.7804,-0.779,-0.774,-0.7767,-0.7723,-0.756,-0.7299,-0.72,-0.7336,-0.7598,-0.7549,-0.725,-0.8084,-0.8384,-0.7936,-0.8336,-0.8353,-0.7962,0.0,0.0,0.0,0.0,0.0,0.0,-0.7065,0.0,0.0,0.0,-0.4947,0.0,-0.4095,-0.3134,0.0,-0.2292,-0.2462,-0.2739,-0.4646,-0.6391,-0.7914,0.0,-0.913,-0.974,0.0,-0.9754,-1.0001,-1.0066,0.0,0.0,0.0,0.0,0.0,0.0,-1.0802,-1.1161,-1.2205,0.0,-1.2289,-1.2543,0.0,-1.2485,-1.244,0.0,0.0,0.0,0.0,0.0,-1.4324,-1.3367,-1.3055,-1.4136,-1.2273,-0.9093,-0.4479,0.6484,1.1217,0.6184,1.5193,1.6637,0.6888,1.1029,1.1517,0.6752,0.5575,0.2589,-0.244,-0.3386,-0.6328,-1.1253,-1.1507,-1.1722,-1.1974,-1.2306,-1.261,-1.2873,-1.3182,-1.3488,-1.3769,-1.4144,-1.4749,-1.5374,-1.5065,-1.5125,-1.5412,-1.5336,-1.5368,-1.5543,-1.5101,-1.423,0.0,0.0,0.0,0.0,0.0,0.0,0.0,0.0,0.0,-0.8206,-0.7831,-0.7811,-0.7787,-0.7729,-0.7619,-0.7615,-0.7773,-0.7879,-0.7904,-0.7842,-0.8209,-0.8407,-0.8372,-0.8528,-0.854,-0.8479,-0.8346,0.0,0.0,0.0,0.0,0.0,-0.7593,0.0,-0.6391,0.0,-0.6441,0.0,0.0,-0.4951,0.0,-0.3681,-0.3901,-0.4593,-0.5355,-0.6721,-0.8141,0.0,-0.898,0.0,0.0,0.0,0.0,-1.0417,0.0,0.0,0.0,0.0,0.0,0.0,0.0,0.0,-1.2214,0.0,-1.2851,0.0,0.0,0.0,0.0,0.0,0.0,0.0,-1.4327,-1.4421,0.0,0.0,-1.4599,-1.4643,0.0,0.0,0.4863,1.0545,1.421,1.5456,1.9984,2.0666,1.5992,1.7619,1.7646,1.533,1.088,0.6237,0.147,-0.2555,-0.6856,-1.1384,-1.1852,-1.2065,-1.2027,-1.2555,-1.2694,-1.2535,-1.3167,-1.3254,-1.3091,-1.4014,-1.4641,-1.5013,-1.5285,-1.5372,-1.5261,-1.4912,-1.4916,-1.5222,-1.5462,-1.4566,0.0,0.0,0.0,0.0,0.0,0.0,0.0,0.0,-0.8434,-0.8484,-0.796,-0.8034,-0.8034,-0.8034,-0.8147,-0.8204,-0.8067,-0.8232,-0.8253,-0.8208,-0.8379,-0.85,-0.8637,-0.8765,-0.8802,-0.8926,0.0,0.0,0.0,0.0,0.0,0.0,0.0,-0.7716,-0.7336,0.0,-0.7311,-0.7133,-0.6757,-0.6495,-0.6232,-0.5085,-0.5233,-0.6067,-0.6045,-0.7056,-0.8401,-0.8401,-0.8939,0.0,-0.9726,0.0,-1.0308,0.0,0.0,0.0,-1.1122,0.0,0.0,0.0,0.0,0.0,0.0,0.0,0.0,0.0,0.0,0.0,0.0,0.0,-1.4611,-1.4677,0.0,-1.4786,0.0,-1.4996,0.0,0.0,0.0,0.0,0.0,1.1069,1.5065,1.9569,2.1617,2.2659,2.2605,2.2081,2.1764,2.1685,1.6459,1.1282,0.6394,0.0362,-0.4987,-0.9648,-1.1344,-1.2164,-1.2217,-1.2627,-1.2694,-1.2562,-1.3141,-1.3216,-1.3006,-1.396,-1.4533,-1.4876,-1.5433,-1.554,-1.5301,-1.4914,-1.5009,-1.5429,-1.5423,-1.4657,-1.3964,0.0,0.0,0.0,0.0,0.0,0.0,-0.8557,-0.867,-0.8568,-0.8361,-0.8558,-0.866,-0.866,-0.8674,-0.8611,-0.8348,-0.852,-0.8551,-0.8212,-0.8798,-0.8995,-0.8816,-0.9089,-0.9262,-0.9266,0.0,0.0,0.0,0.0,0.0,0.0,-0.8761,-0.8263,-0.7663,-0.7515,-0.7285,-0.714,-0.7465,-0.7591,-0.7384,0.0,-0.6143,-0.6868,-0.7103,0.0,0.0,-0.8401,-0.8831,0.0,0.0,0.0,0.0,0.0,0.0,0.0,0.0,0.0,0.0,-1.2413,0.0,0.0,0.0,0.0,-1.3277,0.0,0.0,0.0,0.0,0.0,-1.3962,-1.4348,-1.4915,0.0,0.0,-1.5334,-1.5628,-1.5133,0.0,0.0,0.0,0.58,1.291,1.2826,1.8887,2.2605,2.2605,2.2525,2.248,2.248,2.1244,1.7824,1.2091,0.6246,0.0562,-0.4952,-0.94,-1.1841,-1.2365,-1.22,-1.2483,-1.3082,-1.3094,-1.3446,-1.3973,-1.4019,-1.4564,-1.5418,-1.5696,-1.5868,-1.6022,-1.6374,-1.67,-1.6978,-1.5431,-1.509,-1.4482,-1.3535,-1.2851,0.0,0.0,-1.112,-1.1274,-1.1245,-1.1203,-1.1272,-1.1435,-1.1235,-1.0932,-1.0248,-1.0339,-0.9866,-0.8806,-0.8875,-0.889,-0.8649,-0.8743,-0.9009,-0.9548,-0.9543,-0.975,-1.038,0.0,0.0,0.0,0.0,0.0,0.0,0.0,-0.9074,0.0,0.0,0.0,0.0,0.0,-0.7877,-0.7598,0.0,-0.7016,-0.7242,-0.7091,-0.7482,0.0,-0.7962,-0.8477,-0.9208,-0.9397,-0.9731,-1.0047,-1.0301,-1.0982,0.0,0.0,0.0,-1.2781,-1.3086,0.0,0.0,0.0,0.0,0.0,0.0,0.0,0.0,0.0,0.0,-1.4244,-1.4373,-1.4823,-1.5142,0.0,-1.5629,-1.6332,-1.6934,-1.4769,-1.1471,0.0,0.0,0.8306,1.2198,1.8765,2.2579,2.2542,2.246,2.2405,2.2366,1.7761,1.4501,1.2904,0.6123,0.0455,-0.4078,-0.6314,-0.9149,-1.2421,-1.2544,-1.2616,-1.2657,-1.2998,-1.3187,-1.3277,-1.3918,-1.4547,-1.5134,-1.5696,-1.5996,-1.6179,-1.6596,-1.6841,-1.7076,-1.5514,-1.5351,-1.517,-1.43,-1.386,0.0,0.0,0.0,-1.2856,-1.265,-1.282,-1.2884,-1.2883,-1.2659,-1.2183,-1.0963,-1.1048,-1.0578,-0.9005,-0.8967,-0.9009,-0.9003,-0.889,-0.9237,-1.0003,-0.9984,-1.0187,-1.0828,0.0,-1.0859,0.0,0.0,0.0,0.0,0.0,-0.9644,-0.9456,-0.9087,-0.9009,0.0,0.0,-0.8243,0.0,0.0,-0.7381,-0.7219,0.0,-0.736,-0.7878,-0.7747,-0.8297,-0.9081,-0.9332,-0.9837,-1.0415,-1.0744,-1.1538,-1.2381,-1.2381,-1.294,0.0,-1.3803,-1.3872,0.0,-1.424,0.0,-1.442,0.0,0.0,0.0,0.0,0.0,0.0,-1.4627,-1.5096,-1.5676,0.0,-1.6489,-1.7027,-1.7718,-1.7139,-1.4956,-1.0573,-0.4156,0.2381,0.8799,1.5287,1.9968,0.0,0.0,2.2338,2.231,1.8022,1.5791,1.5918,0.9081,0.4211,0.1362,-0.2992,-0.6835,-1.0072,-1.1931,-1.2756,-1.282,-1.3288,-1.3441,-1.3435,-1.4206,-1.4718,-1.5088,-1.5667,-1.5996,-1.6179,-1.6633,-1.6942,-1.7224,-1.5558,-1.5738,-1.5878,0.0,-1.477,0.0,0.0,0.0,-1.327,0.0,-1.3351,-1.3434,-1.2818,-1.2986,-1.2496,-1.1002,-1.1161,-1.0614,-0.9034,-0.891,-0.9097,-0.9441,-0.9432,-0.9703,-1.0263,-1.0514,-1.0681,-1.0707,0.0,0.0,0.0,0.0,0.0,0.0,-1.0396,0.0,-0.9409,-0.9418,-0.9299,-0.8994,-0.8757,-0.8687,-0.8647,-0.8053,-0.7435,-0.6942,-0.7001,-0.7316,-0.7705,-0.7695,-0.8286,-0.9017,-0.9274,-1.0148,-1.1024,-1.1296,-1.2158,-1.307,-1.3252,-1.3734,-1.4332,-1.4529,0.0,0.0,0.0,0.0,-1.5184,0.0,0.0,0.0,0.0,0.0,0.0,-1.512,-1.576,-1.6727,-1.783,-1.7774,-1.7581,-1.7496,-1.6985,-1.6505,-1.6103,-1.0583,-0.4176,0.2757,0.8975,1.537,0.0,0.0,2.235,2.231,2.1991,2.1495,2.0827,1.4986,1.1616,1.0594,0.0464,-0.4836,-0.585,-1.0441,-1.2849,-1.3514,-1.3802,-1.413,-1.4406,-1.4752,-1.5058,-1.5343,-1.5595,-1.5839,-1.6108,-1.6607,-1.7068,-1.7448,-1.6766,-1.6654,-1.6526,0.0,-1.5777,-1.5212,0.0,0.0,0.0,0.0,-1.5316,-1.53,-1.5639,-1.5312,-1.4618,-1.3522,-1.3233,0.0,-1.099,-1.1043,-1.1118,-1.1058,-1.1225,-1.1424,-1.1488,-1.1795,-1.1951,-1.1955,0.0,0.0,-1.1768,0.0,0.0,0.0,0.0,-1.0274,-1.0238,-0.9746,-0.9597,-0.9702,-0.9671,-0.919,-0.8524,0.0,-0.7699,-0.7159,-0.7112,-0.7409,-0.7749,-0.7986,-0.8479,-0.9145,-1.0148,-1.071,-1.1205,-1.2151,-1.313,-1.3906,-1.4085,-1.4569,-1.5108,-1.5177,-1.5235,-1.5294,0.0,0.0,0.0,0.0,0.0,0.0,0.0,0.0,0.0,-1.6033,-1.6854,-1.7731,-1.8571,-1.84,-1.8301,-1.8573,-1.7748,-1.7149,-1.7032,-1.0435,-0.3944,0.1357,0.9525,1.6527,0.0,0.0,0.0,2.2316,2.1991,2.1609,2.1185,1.8328,1.4935,1.0979,0.3798,-0.1779,-0.585,-1.0364,-1.2777,-1.3425,-1.3364,-1.3726,-1.4351,-1.446,-1.4817,-1.5343,-1.5595,-1.6077,-1.6607,-1.6738,-1.7117,-1.7572,-1.7288,-1.6989,-1.6901,-1.6863,0.0,0.0,-1.6151,-1.6123,0.0,-1.6454,-1.6229,0.0,-1.6299,-1.5912,-1.5158,-1.3884,-1.3622,0.0,-1.1542,0.0,0.0,-1.1918,-1.2163,-1.2232,-1.222,-1.228,-1.2199,-1.179,0.0,0.0,-1.1575,0.0,0.0,0.0,0.0,-1.0458,-1.0423,-0.9916,-0.9966,-1.0404,-0.988,-0.936,0.0,-0.8429,-0.7956,-0.7419,-0.7597,-0.7764,-0.795,-0.8148,-0.8812,-0.9709,-1.0521,-1.1329,-1.2128,-1.2948,-1.3914,-1.4746,-1.4942,-1.5352,-1.5768,-1.5941,-1.5999,-1.6056,-1.6228,-1.6549,-1.6978,0.0,-1.7263,-1.7031,0.0,0.0,0.0,-1.6916,-1.7511,-1.8199,-1.8956,-1.8995,-1.8896,-1.8883,-1.8264,-1.7884,-1.7971,-1.3299,-0.8044,-0.2873,0.5271,0.0,0.0,0.0,0.0,2.2082,2.1751,2.1554,2.1524,1.9629,1.7288,1.4387,0.5931,0.0286,-0.2915,-0.9593,-1.2975,-1.3573,-1.3599,-1.3908,-1.4452,-1.4755,-1.5075,-1.5374,-1.5782,-1.6297,-1.685,-1.6901,-1.7199,-1.7618,-1.7707,-1.7228,0.0,0.0,0.0,0.0,0.0,-1.6668,0.0,-1.6656,0.0,-1.6095,-1.5745,-1.5458,-1.4799,-1.3404,-1.3242,-1.2853,-1.1763,-1.1997,-1.2237,-1.2559,-1.2802,-1.2717,-1.248,-1.2431,-1.2014,0.0,0.0,0.0,0.0,0.0,0.0,0.0,0.0,0.0,0.0,-1.0139,-1.0423,-1.0912,-0.9856,-0.935,-0.918,-0.866,-0.817,-0.7841,-0.8173,-0.8361,-0.8361,-0.849,-0.9378,-1.0521,-1.0961,-1.2074,-1.3312,-1.3743,-1.4647,-1.5478,-1.573,-1.6009,-1.6285,-1.6751,-1.6874,-1.6987,-1.7323,-1.77,-1.7963,-1.8018,-1.8148,-1.8099,0.0,0.0,0.0,0.0,0.0,0.0,-1.9039,-1.9433,-1.9423,-1.8945,-1.8614,0.0,-1.8995,-1.7279,-1.3726,-0.7941,-0.1336,0.0,0.0,0.0,0.0,2.0596,2.1048,2.1432,2.1661,0.0,1.8691,1.8493,0.7682,0.2091,0.0954,-0.7899,-1.2606,-1.3741,-1.3992,-1.4301,-1.4627,-1.515,-1.5374,-1.5492,-1.6009,-1.6485,-1.691,-1.7101,-1.7344,-1.7681,-1.9412,-1.8536,0.0,0.0,0.0,-1.7758,-1.6938,-1.6522,-1.6195,-1.6195,-1.5874,-1.561,-1.5395,-1.5123,-1.4818,-1.4261,-1.4196,0.0,0.0,0.0,0.0,-1.4206,-1.394,-1.3448,-1.28,-1.2675,-1.2279,0.0,0.0,0.0,0.0,0.0,0.0,0.0,0.0,0.0,-1.0539,-1.0696,0.0,-1.0913,-1.0518,-0.9827,-0.9013,-0.8729,-0.8432,-0.8223,-0.8812,-0.9046,-0.9111,-0.9882,-1.064,-1.1454,-1.2512,-1.3122,-1.3657,-1.4656,-1.5264,-1.5778,-1.6296,-1.6581,-1.6751,-1.7032,-1.7312,-1.7601,-1.7744,-1.8073,-1.8367,-1.8583,-1.8422,-1.8087,-1.7812,0.0,0.0,0.0,0.0,0.0,0.0,-1.9318,-1.9616,-1.9387,-1.8935,-1.9094,-2.0163,-1.8412,-1.4982,-0.9605,0.0,0.0,0.0,0.0,0.0,0.0,1.8746,0.0,0.0,0.0,1.8558,1.8207,1.0934,0.539,0.1345,-0.4249,-0.9174,-1.3297,-1.3132,-1.3637,-1.4533,-1.4571,-1.5002,-1.5681,-1.6065,-1.6485,-1.6952,-1.7361,-1.7612,-1.7766,-1.9783,0.0,0.0,0.0,0.0,0.0,0.0,-1.6906,-1.65,-1.6138,-1.5704,-1.5332,-1.5258,-1.4988,-1.4654,-1.4405,-1.4482,-1.4428,-1.4116,-1.4582,-1.4696,-1.4381,-1.4444,-1.4279,-1.3777,-1.3901,-1.3521,-1.2539,0.0,0.0,0.0,0.0,0.0,0.0,0.0,-1.0633,0.0,0.0,0.0,-1.0897,-1.052,-0.9996,-0.9428,-0.9524,-0.9458,-0.9378,-1.0123,-1.0683,-1.1058,-1.101,-1.1578,-1.2381,-1.3183,-1.3795,-1.4401,-1.5128,-1.572,-1.6239,-1.6513,-1.6807,-1.7099,-1.7368,-1.7645,-1.7865,-1.8073,-1.8158,-1.8236,-1.8434,-1.8003,-1.7518,-1.7198,-1.768,0.0,0.0,0.0,0.0,0.0,0.0,-1.9489,-1.9409,-1.9094,-1.9264,-2.0149,-1.9346,-1.7617,0.0,0.0,0.0,0.0,0.0,0.0,0.0,0.0,0.0,0.0,0.0,0.0,1.8083,0.8991,0.3584,0.1442,-0.3286,-0.831,-1.331,-1.3157,-1.3696,-1.4672,-1.4878,-1.5389,-1.6037,-1.6148,-1.6575,-1.715,-1.7479,-1.7772,-1.7997,-2.0363,-1.9678,0.0,0.0,-1.8811,-1.8488,-1.7951,-1.7536,-1.6931,-1.6243,-1.5734,-1.534,-1.5099,-1.4874,-1.4517,-1.4209,-1.4405,-1.4335,-1.393,-1.4294,-1.4453,-1.42,-1.451,-1.467,-1.4641,-1.4741,-1.4399,0.0,0.0,0.0,0.0,0.0,0.0,0.0,0.0,0.0,0.0,0.0,-1.1081,-1.1236,-1.0773,-1.0508,-1.036,-1.0546,-1.0593,-1.0647,-1.1454,-1.2258,-1.2879,-1.2312,-1.2687,-1.3373,-1.3726,-1.4401,-1.5137,-1.5468,-1.6046,-1.6627,-1.6797,-1.7088,-1.7412,-1.7632,-1.7761,-1.789,-1.8119,-1.7989,-1.7933,-1.8181,-1.7788,-1.7263,-1.6974,-1.7842,0.0,0.0,0.0,0.0,0.0,0.0,-1.9387,-1.9208,-1.9297,-1.9474,-1.9753,-2.0112,0.0,0.0,0.0,0.0,-1.0046,0.0,0.0,0.0,0.0,1.1498,1.6493,0.0,1.0467,1.4607,0.5246,0.0563,0.0064,-0.378,-0.8339,-1.3288,-1.3353,-1.3888,-1.4794,-1.5299,-1.5826,-1.6301,-1.6231,-1.6654,-1.7344,-1.7555,-1.7888,-1.8249,0.0,0.0,0.0,0.0,0.0,0.0,-1.8719,-1.7878,-1.7169,-1.6598,-1.6263,-1.5681,-1.4732,-1.4593,-1.4363,-1.3887,-1.4052,-1.4116,-1.4059,-1.433,-1.451,-1.4464,-1.4018,-1.4096,-1.4699,-1.4048,-1.3875,0.0,0.0,-1.292,0.0,0.0,0.0,0.0,0.0,0.0,0.0,-1.207,-1.2439,-1.2412,-1.2304,-1.2173,-1.1945,-1.1418,-1.1296,-1.1516,-1.2389,-1.3,-1.3537,-1.4034,-1.4282,-1.441,-1.4725,-1.5079,-1.5468,-1.6026,-1.6379,-1.6751,-1.7423,-1.7656,-1.7654,-1.7629,-1.763,-1.7554,-1.734,-1.7385,-1.7628,-1.8236,-1.8511,-1.8535,-1.827,-1.8423,-1.8626,0.0,0.0,0.0,0.0,0.0,-1.9489,-1.8901,-1.9639,-2.0012,-1.9521,-2.055,0.0,0.0,-1.8875,0.0,0.0,0.0,0.0,-0.6392,0.0,0.1994,0.2584,0.1801,0.2052,0.3313,0.1315,-0.1304,-0.4429,-0.5405,-0.8461,-1.2965,-1.316,-1.3709,-1.4564,-1.5225,-1.5826,-1.6301,-1.6301,-1.6696,-1.7368,-1.7726,-1.8005,-1.8293,0.0,0.0,0.0,0.0,0.0,0.0,0.0,-1.7803,-1.7094,-1.6604,-1.6132,-1.5652,-1.523,-1.4813,-1.4365,-1.3984,-1.4199,-1.4066,-1.3475,-1.392,-1.4099,-1.3886,-1.3922,-1.4163,-1.4792,-1.4925,-1.5044,0.0,0.0,0.0,0.0,0.0,0.0,0.0,0.0,-1.2896,-1.2997,-1.3288,-1.3433,-1.3375,-1.2944,-1.2759,-1.2684,-1.2397,-1.2451,-1.2696,-1.3494,-1.3983,-1.4273,-1.4775,-1.4902,-1.4961,-1.5186,-1.5584,-1.6026,-1.6379,-1.6853,-1.7368,-1.7689,-1.7975,-1.8089,-1.7885,-1.7911,-1.787,-1.7507,-1.7279,-1.7239,-1.7601,-1.7875,-1.7974,-1.7911,-1.8825,-1.9549,0.0,0.0,0.0,0.0,0.0,0.0,-1.8493,-1.8849,-1.9073,-1.8992,-2.0175,0.0,0.0,0.0,0.0,0.0,0.0,0.0,-0.9514,0.0,-0.2561,0.0683,-0.2359,-0.1988,0.1765,-0.2011,-0.4285,-0.5248,-0.5483,-0.8434,-1.3399,-1.3842,-1.4328,-1.4814,-1.5255,-1.5782,-1.6301,-1.6258,-1.6654,-1.7327,-1.7625,-1.7915,-1.8273,-2.2302,0.0,-2.145,0.0,-2.0333,-1.9605,-1.8947,-1.8036,-1.7164,-1.6348,-1.5737,-1.5386,-1.5328,-1.4858,-1.4366,-1.397,-1.4068,-1.3907,-1.3178,-1.3559,-1.3794,-1.3675,-1.3906,0.0,-1.507,-1.5486,-1.5736,-1.5713,-1.592,0.0,0.0,0.0,0.0,0.0,-1.4336,-1.4248,-1.4307,-1.445,-1.4514,-1.4458,-1.3974,-1.376,-1.3679,-1.3538,-1.3563,-1.3752,-1.4469,-1.4775,-1.4942,-1.5264,-1.5439,-1.5604,-1.5536,-1.5921,-1.6436,-1.6786,-1.7312,-1.781,-1.8073,-1.8197,-1.8231,-1.7957,-1.7807,-1.7653,-1.7277,-1.7002,-1.6942,-1.7472,-1.7944,-1.8371,-1.8597,-1.9821,-2.0609,-2.0156,0.0,0.0,0.0,-1.8576,0.0,-1.8504,-1.8791,-1.8919,-1.8878,-2.0045,0.0,0.0,0.0,0.0,0.0,0.0,0.0,0.0,0.0,0.0,0.0,-0.8172,-0.7596,-0.3212,-0.716,-0.8518,-0.7603,-0.7695,-0.9979,-1.3835,-1.4342,-1.4721,-1.5013,-1.5285,-1.5769,-1.6285,-1.6297,-1.6732,-1.7344,-1.7664,-1.8023,-1.8417,-2.3159,-2.3159,-2.3147,-2.3147,-2.2138,-2.0984,-1.9837,-1.8654,-1.7404,-1.589,-1.5232,-1.4816,-1.4609,-1.4577,-1.43,-1.3545,-1.3483,-1.3483,-1.3467,-1.3475,-1.3667,0.0,0.0,-1.4572,-1.5495,-1.512,-1.537,-1.6281,0.0,0.0,-1.5158,0.0,-1.459,-1.4961,-1.4805,-1.4773,-1.4903,-1.5551,-1.5762,-1.5764,-1.5548,-1.5486,-1.5405,-1.472,-1.4469,-1.4529,-1.5029,-1.5254,-1.541,-1.5614,-1.6066,-1.6513,-1.6046,-1.6228,-1.6684,-1.7301,-1.7689,-1.8018,-1.8637,-1.8417,-1.7945,-1.769,-1.7229,-1.6706,-1.6303,-1.6331,-1.6804,-1.8092,-1.9295,-2.0273,-2.104,-2.1534,-2.1752,-2.1444,0.0,0.0,0.0,-1.893,0.0,-1.9045,-1.9908,-2.0175,-1.9363,-2.0323,0.0,0.0,0.0,0.0,0.0,0.0,0.0,-1.8461,-1.849,0.0,-1.7865,-1.7336,-1.6344,-1.4917,-1.4955,-1.4237,-1.2824,-1.3135,-1.3576,-1.4117,-1.4374,-1.469,-1.5013,-1.5285,-1.5769,-1.6328,-1.6538,-1.6869,-1.7375,-1.798,-1.8399,-1.8752,-2.1635,-2.1565,-2.146,-2.1158,-2.0274,-1.938,-1.8585,-1.7536,-1.6478,-1.5599,-1.5226,-1.491,-1.4649,-1.4128,-1.3743,0.0,-1.3502,-1.3405,0.0,-1.338,-1.363,-1.3879,-1.3887,-1.4134,-1.4649,-1.5095,-1.5483,-1.5876,0.0,0.0,0.0,-1.6694,-1.6606,-1.6493,-1.628,-1.629,-1.6455,-1.6673,-1.6665,-1.6441,-1.6095,-1.5905,-1.5656,-1.5169,-1.501,-1.5177,-1.543,-1.5556,-1.5662,-1.6181,-1.6467,-1.6627,-1.6909,-1.7234,-1.7512,-1.7744,-1.8127,-1.8572,-1.8839,-1.8614,-1.8198,-1.7933,-1.7451,-1.6979,-1.6629,-1.6863,-1.7395,-1.8297,-1.9071,-1.9885,-2.0951,-2.1314,-2.1465,-2.1328,-2.057,0.0,-1.9232,0.0,-1.8235,-1.8438,-1.9305,-1.9514,-1.852,-2.0016,0.0,0.0,0.0,0.0,0.0,0.0,0.0,0.0,-1.8358,0.0,-1.7823,-1.7002,-1.6027,-1.4877,-1.4709,-1.4088,-1.3126,-1.3412,-1.3835,-1.431,-1.4438,-1.4766,-1.5208,-1.5298,-1.5536,-1.5983,-1.6933,-1.7277,-1.7353,-1.8364,-1.8732,-1.8753,-2.0699,-2.0653,-2.0559,-2.0153,-1.968,-1.9011,-1.8045,-1.7199,-1.6435,-1.5595,-1.5093,-1.4727,-1.4532,-1.403,0.0,-1.3763,-1.3692,-1.3599,-1.3363,-1.358,-1.3761,-1.389,-1.389,-1.4019,-1.4267,-1.4807,0.0,-1.5689,-1.6684,-1.7275,-1.7407,-1.7567,-1.7567,-1.7373,-1.7176,-1.7245,-1.7354,-1.7145,-1.6938,-1.6788,-1.6265,-1.5937,-1.5783,-1.5487,-1.5439,-1.5546,-1.5894,-1.6009,-1.6124,-1.674,-1.7022,-1.7179,-1.7634,-1.8061,-1.8278,-1.817,-1.856,-1.8951,-1.8955,-1.8619,-1.8228,-1.7897,-1.7463,-1.7018,-1.6837,-1.7044,-1.7481,-1.8133,-1.8723,-1.946,-2.0678,-2.1125,-2.126,-2.1184,-2.0415,-1.959,-1.9016,0.0,-1.8248,0.0,0.0,0.0,0.0,-2.0113,-2.0288,0.0,0.0,0.0,0.0,0.0,0.0,-1.9394,-1.8377,0.0,-1.7873,-1.7063,-1.6281,-1.5531,-1.4854,-1.4097,-1.3331,-1.3635,-1.4,-1.4406,-1.4438,-1.478,-1.5327,-1.556,-1.5951,-1.6535,-1.7628,-1.8178,-1.8416,-1.9058,-1.9286,-1.9305,-2.0116,-2.0213,-2.0294,0.0,-1.9965,0.0,-1.8052,-1.7544,-1.6935,-1.5736,-1.4972,-1.4468,-1.435,-1.4198,-1.407,-1.407,0.0,0.0,0.0,-1.401,-1.401,-1.401,-1.401,-1.4139,-1.4327,-1.4354,-1.4796,-1.5689,-1.6643,-1.7083,-1.7151,-1.7307,-1.7434,-1.7619,-1.7444,-1.7503,-1.7591,-1.7016,-1.6779,-1.6684,-1.6095,-1.5811,-1.5805,-1.5762,-1.573,-1.5846,-1.641,-1.6627,-1.674,-1.7357,-1.7689,-1.7952,-1.8278,-1.8655,-1.8999,-1.8721,-1.8898,-1.912,-1.8883,-1.8459,-1.7978,-1.7599,-1.7199,-1.6918,-1.6918,-1.696,-1.7242,-1.7857,-1.8468,-1.9205,-2.0307,-2.0962,-2.1201,-2.0876,-2.036,-1.9679,-1.8821,-1.844,-1.8686,0.0,0.0,0.0,0.0,-2.0506,-1.9661,0.0,0.0,0.0,0.0,0.0,-2.1381,-1.907,-1.8624,-1.8318,-1.8096,-1.756,-1.7103,-1.6648,-1.5389,-1.4367,-1.3581,-1.3868,-1.4149,-1.4438,-1.4438,-1.4794,-1.5414,-1.5922,-1.6698,-1.7609,-1.8473,-1.9318,-2.0055,-1.9917,-2.0065,-2.0241,0.0,0.0,-1.8435,-1.8363,-1.8186,-1.7808,-1.694,-1.6912,-1.6613,-1.5361,-1.5402,-1.536,-1.4902,-1.4666,-1.4597,-1.4734,-1.4309,-1.401,-1.401,-1.401,-1.4079,-1.4207,-1.4207,-1.4327,-1.4455,-1.4748,-1.5203,-1.5882,-1.5881,-1.616,-1.656,-1.6169,-1.6235,-1.668,-1.6579,-1.6579,-1.6744,-1.6722,-1.6626,-1.6419,-1.6345,-1.6238,-1.6035,-1.5982,-1.6239,-1.6581,-1.6694,-1.6976,-1.7357,-1.7689,-1.7952,-1.8278,-1.8709,-1.904,-1.9251,-1.9081,-1.8998,-1.8908,-1.8946,-1.8327,-1.7637,-1.7645,-1.7286,-1.696,-1.696,-1.7323,-1.78,-1.8432,-1.9086,-1.9792,-2.0585,-2.1022,-2.0992,-1.9978,-1.9763,-1.9441,-1.8707,-1.8794,-1.9155,0.0,-2.0613,-2.0978,-2.0682,-2.0542,-2.0427,0.0,0.0,0.0,0.0,-2.0904,-2.036,-1.9069,-1.8741,-1.8468,-1.8074,-1.7684,-1.7036,-1.6157,-1.5082,-1.4422,-1.4181,-1.4,-1.4195,-1.47,-1.4766,-1.5253,-1.5966,-1.5647,-1.6068,-1.7045,-1.8416,-1.8871,-1.8902,-2.0162,-2.0497,-2.0241,-1.8437,-1.8425,-1.8388,-1.7993,-1.791,-1.7738,-1.7093,-1.7093,-1.6967,-1.6449,-1.6158,-1.5812,-1.5459,-1.5079,-1.4902,-1.497,-1.4556,-1.4249,-1.43,-1.4249,-1.4267,-1.4396,-1.4437,-1.4497,-1.4616,-1.4898,-1.5265,-1.5729,-1.5852,-1.6064,-1.6383,-1.6265,-1.6329,-1.6646,-1.6665,-1.6728,-1.6762,-1.6825,-1.6657,-1.6417,-1.6514,-1.6454,-1.6343,-1.641,-1.6627,-1.7032,-1.7256,-1.7468,-1.7744,-1.8224,-1.8494,-1.8709,-1.9146,-1.9196,-1.9142,-1.9193,-1.9083,-1.8894,-1.844,-1.8033,-1.7632,-1.7519,-1.7264,-1.7115,-1.7199,-1.7434,-1.7801,-1.8303,-1.8658,-1.9137,-1.9712,-2.0004,-1.9932,-1.935,-1.9293,-1.914,-1.863,-1.8705,-1.9153,-2.0017,-2.0331,-2.0526,-2.0765,-2.0444,-2.0147,-1.9982,-1.9649,0.0,-2.0266,-2.004,-1.9777,-1.9484,-1.893,-1.8546,-1.8292,-1.8002,-1.7433,-1.6679,-1.5775,-1.5167,-1.4771,-1.4446,-1.4497,-1.4808,-1.4842,-1.5384,-1.6213,-1.6184,-1.6901,-1.8161,-1.9383,-1.9976,-2.0262,-2.0888,-2.1007,-2.076,-1.8857,-1.8946,-1.8895,-1.8138,-1.8277,-1.8339,-1.7751,-1.7642,-1.7645,-1.7832,-1.6928,-1.6164,-1.5995,-1.542,-1.5088,-1.5088,-1.4743,-1.4625,-1.4715,-1.4616,-1.4565,-1.4565,-1.4666,-1.4775,-1.4775,-1.4911,-1.52,-1.5552,-1.5966,-1.6191,-1.6326,-1.6576,-1.671,-1.6845,-1.703,-1.7092,-1.7072,-1.6989,-1.6814,-1.6605,-1.6623,-1.6627,-1.6684,-1.6864,-1.7088,-1.7357,-1.7788,-1.8007,-1.817,-1.8827,-1.9044,-1.9089,-1.9389,-1.917,-1.8758,-1.8927,-1.8999,-1.8843,-1.7862,-1.7764,-1.7813,-1.7358,-1.7282,-1.7323,-1.7475,-1.7516,-1.7611,-1.7842,-1.7922,-1.8058,-1.8548,-1.8711,-1.885,-1.9017,-1.9059,-1.8975,-1.8728,0.0,-1.9051,-2.0175,-1.9852,-1.9993,-2.1076,-2.0217,-1.9512,-1.9211,-1.9114,-1.9058,-1.9086,-1.9081,-1.9322,-1.9887,-1.9041,-1.855,-1.8475,-1.833,-1.8001,-1.7548,-1.6786,-1.6062,-1.5489,-1.5008,-1.4938,-1.517,-1.5071,-1.5584,-1.6547,-1.7078,-1.8173,-1.9625,-2.0495,-2.1319,-2.1958,-2.1552,-2.1384,-2.1223,-1.7738,-1.7723,-1.7806,-1.8106,-1.8111,-1.8041,-1.7954,-1.8191,-1.8234,-1.7803,-1.7546,-1.7181,-1.6482,-1.5758,-1.5362,-1.5362,-1.5079,-1.4911,-1.497,-1.4911,-1.4921,-1.4921,-1.4911,-1.497,-1.497,-1.5098,-1.5185,-1.5252,-1.5053,-1.5269,-1.5812,-1.5419,-1.5546,-1.6056,-1.6338,-1.6454,-1.6444,-1.6602,-1.6732,-1.6892,-1.6839,-1.692,-1.7134,-1.7301,-1.7579,-1.7843,-1.8116,-1.8494,-1.8881,-1.9081,-1.9101,-1.8996,-1.8933,-1.8744,-1.8452,-1.7911,-1.8042,-1.8328,-1.8131,-1.8007,-1.7827,-1.7543,-1.7611,-1.7747,-1.7516,-1.7693,-1.7842,-1.7882,-1.8043,-1.819,-1.8273,-1.8823,-1.9293,-1.9335,-1.9349,-1.9429,-1.9641,0.0,-1.9442,-1.9938,-2.0146,-2.033,-2.0512,-2.0004,-1.9672,-1.9591,-1.903,-1.9077,-1.9951,-1.91,-1.887,-1.9376,-1.8782,-1.8361,-1.826,-1.8402,-1.8247,-1.7811,-1.6872,-1.6578,-1.6829,-1.5443,-1.5531,-1.6814,-1.625,-1.6698,-1.7902,-1.7759,-1.8301,-1.9369,-2.0229,-2.0411,-2.0297,-2.1102,-2.1004,-2.044,-1.8066,-1.8033,-1.7987,-1.7831,-1.7773,-1.7768,-1.7987,-1.7861,-1.7876,-1.8166,-1.7404,-1.6678,-1.6237,-1.5578,-1.5037,-1.4746,-1.5042,-1.51,-1.4936,-1.4964,-1.497,-1.497,-1.5098,-1.5215,-1.5381,-1.5439,-1.5508,-1.5566,-1.5546,-1.571,-1.6009,-1.6036,-1.6093,-1.6296,-1.6627,-1.6694,-1.6581,-1.7032,-1.7134,-1.7134,-1.7301,-1.7468,-1.7579,-1.7788,-1.8061,-1.841,-1.8614,-1.8934,-1.9214,-1.9128,-1.9121,-1.9068,-1.8753,-1.8367,-1.8054,-1.7893,-1.7839,-1.7829,-1.7984,-1.7963,-1.7882,-1.7747,-1.7788,-1.7882,-1.7868,-1.7949,-1.8083,-1.8202,-1.8321,-1.8361,-1.8361,-1.8663,-1.8899,-1.8899,-1.926,0.0,0.0,-1.9891,-2.0104,-2.0159,-2.0117,-2.0047,-1.9964,-1.9587,-1.9319,-1.9319,-1.9032,-1.9118,-1.9689,-1.8817,-1.8467,-1.8751,-1.8358,-1.8112,-1.8043,-1.8439,-1.8493,-1.8323,-1.7574,-1.737,-1.7574,-1.6532,-1.6465,-1.7185,-1.688,-1.7407,-1.8466,-1.8324,-1.8833,-1.9688,-2.0173,-2.0331,-2.0292,-2.066,-2.0689,-2.0468,-1.8336,-1.8316,-1.8168,-1.7804,-1.7753,-1.7801,-1.8069,-1.769,-1.7651,-1.8414,-1.7164,-1.6191,-1.6031,-1.5396,-1.4721,-1.4223,-1.4792,-1.5037,-1.4769,-1.4838,-1.4946,-1.5079,-1.5215,-1.5449,-1.574,-1.5641,-1.5638,-1.581,-1.5925,-1.6032,-1.6133,-1.6573,-1.6682,-1.6581,-1.709,-1.72,-1.7088,-1.7534,-1.7645,-1.7579,-1.7843,-1.8007,-1.8127,-1.8267,-1.8548,-1.8881,-1.896,-1.9132,-1.9253,-1.897,-1.889,-1.8843,-1.849,-1.8068,-1.7735,-1.8024,-1.7847,-1.7638,-1.7882,-1.8003,-1.8043,-1.7989,-1.8043,-1.8123,-1.8242,-1.8307,-1.8386,-1.8542,-1.8581,-1.8581,-1.8581,-1.8581,-1.8638,-1.8779,0.0,0.0,0.0,-2.0017,-2.0271,-2.0246,-1.9859,-1.9541,-1.9407,-1.9151,-1.8993,-1.8993,-1.9078,-1.9176,-1.9339,-1.8606,-1.8214,-1.8187,-1.7989,-1.7882,-1.7882,-1.84,-1.8673,-1.8711,-1.8124,-1.7992,-1.8216,-1.7467,-1.73,-1.7635,-1.7578,-1.7988,-1.8691,-1.8861,-1.9246,-1.9755,-2.0074,-2.0238,-2.0326,-2.0257,-2.0327,-2.0344,-1.7847,-1.7817,-1.7894,-1.8367,-1.8444,-1.8423,-1.8367,-1.8333,-1.8264,-1.8257,-1.7276,-1.6496,-1.6356,-1.5446,-1.4712,-1.447,-1.452,-1.455,-1.452,-1.455,-1.481,-1.5323,-1.5546,-1.574,-1.5856,-1.5455,-1.5336,-1.5601,-1.5137,-1.5133,-1.5551,-1.5999,-1.631,-1.6536,-1.7335,-1.77,-1.7799,-1.7854,-1.8116,-1.8452,-1.8213,-1.8333,-1.8744,-1.8893,-1.9028,-1.9178,-1.9057,-1.8983,-1.8995,-1.8621,-1.8318,-1.8002,-1.8039,-1.7807,-1.7542,-1.7692,-1.7936,-1.8163,-1.8163,-1.8321,-1.8439,-1.8319,-1.8464,-1.8595,-1.8517,-1.8606,-1.8745,-1.8784,-1.8784,-1.8784,-1.8784,-1.8784,-1.8969,-1.9515,0.0,0.0,-2.0455,-1.9641,-1.9155,-1.9769,-1.9255,-1.8855,-1.8855,-1.8917,-1.8993,-1.8993,-1.9168,-1.9339,-1.9376,-1.8707,-1.8147,-1.7828,-1.7868,-1.7882,-1.7882,-1.8321,-1.8595,-1.8711,-1.8021,-1.8133,-1.8878,-1.7669,-1.7776,-1.8964,-1.8693,-1.8593,-1.8653,-1.9338,-1.9371,-1.9045,-1.9617,-1.9682,-1.954,-1.9958,-1.9897,-1.9415,-1.7444,-1.744,-1.7433,-1.7565,-1.756,-1.7676,-1.7945,-1.748,-1.7169,-1.7303,-1.6238,-1.5306,-1.4996,-1.4603,-1.4185,-1.3711,-1.4202,-1.4413,-1.4142,-1.4373,-1.461,-1.483,-1.4914,-1.5079,-1.5406,-1.5231,-1.5299,-1.5658,-1.5696,-1.5763,-1.5968,-1.661,-1.6908,-1.6983,-1.7759,-1.8073,-1.8027,-1.8007,-1.8037,-1.8223,-1.7891,-1.7924,-1.8087,-1.8263,-1.84,-1.8511,-1.8555,-1.8684,-1.8738,-1.8267,-1.8156,-1.814,-1.78,-1.7703,-1.7774,-1.8002,-1.8319,-1.8567,-1.8567,-1.8581,-1.8595,-1.8542,-1.8644,-1.876,-1.8683,-1.876,-1.8784,-1.8784,-1.8784,-1.8784,-1.8784,-1.8784,-1.8869,-1.9098,0.0,-1.9606,-2.0026,-2.0134,-2.0059,-1.9755,-1.966,-1.9435,-1.9031,-1.9116,-1.9191,-1.9242,-1.9317,-1.9413,-1.9538,-1.9064,-1.863,-1.8305,-1.8461,-1.8422,-1.8279,-1.8683,-1.8774,-1.8556,-1.8442,-1.8555,-1.8874,-1.8387,-1.8504,-1.9087,-1.9191,-1.9446,-1.9875,-2.0368,-2.0218,-1.9694,-2.013,-1.984,-1.9263,-1.9608,-1.9701,-1.9492,-1.7447,-1.7365,-1.7282,-1.7157,-1.7115,-1.7174,-1.7432,-1.694,-1.6578,-1.6764,-1.5688,-1.4768,-1.4467,-1.4125,-1.3756,-1.3344,-1.3951,-1.4236,-1.393,-1.4296,-1.4532,-1.4661,-1.4777,-1.4976,-1.5289,-1.5151,-1.5281,-1.5585,-1.5643,-1.5713,-1.5932,-1.6569,-1.6859,-1.6945,-1.7659,-1.7973,-1.7874,-1.7867,-1.7876,-1.7941,-1.7776,-1.7726,-1.7762,-1.7941,-1.8119,-1.8235,-1.8198,-1.8272,-1.8377,-1.7939,-1.7929,-1.8076,-1.7786,-1.7909,-1.8189,-1.8397,-1.863,-1.8784,-1.8784,-1.8812,-1.8803,-1.8803,-1.8827,-1.8874,-1.8912,-1.8898,-1.8898,-1.8898,-1.8898,-1.8898,-1.8936,-1.895,-1.895,-1.8988,-1.9426,-1.9773,-1.9897,-2.0248,-2.0306,-1.9955,-1.9963,-1.9786,-1.9257,-1.9384,-1.9457,-1.9413,-1.9413,-1.9376,-1.9362,-1.9213,-1.9011,-1.8808,-1.8945,-1.8945,-1.8731,-1.8936,-1.8912,-1.8697,-1.8721,-1.8798,-1.8784,-1.8784,-1.8974,-1.9236,-1.9609,-2.002,-2.0464,-2.0904,-2.0777,-2.0321,-2.0276,-1.9993,-1.9618,-1.951,-1.9604,-1.9497,-1.7882,-1.7693,-1.7516,-1.7516,-1.7365,-1.7157,-1.7002,-1.7002,-1.6918,-1.6718,-1.5856,-1.5266,-1.5108,-1.4222,-1.3621,-1.3621,-1.3868,-1.402,-1.402,-1.4244,-1.4607,-1.5091,-1.5371,-1.5526,-1.569,-1.5284,-1.5202,-1.5397,-1.4708,-1.4708,-1.5324,-1.56,-1.5877,-1.6221,-1.6906,-1.7277,-1.7412,-1.7521,-1.7666,-1.7798,-1.7894,-1.7964,-1.8106,-1.8235,-1.8389,-1.8431,-1.8035,-1.7873,-1.7883,-1.7591,-1.7516,-1.7611,-1.8069,-1.8439,-1.8711,-1.8798,-1.8784,-1.8784,-1.8784,-1.8889,-1.8993,-1.8993,-1.8993,-1.9017,-1.9064,-1.9101,-1.9101,-1.9101,-1.9101,-1.9139,-1.9302,-1.9302,-1.9339,-1.9376,-1.9413,-1.9649,-2.0283,-1.9773,-1.9574,-2.0298,-2.0027,-1.9696,-1.9413,-1.9717,-1.9773,-1.9413,-1.9413,-1.925,-1.893,-1.9035,-1.9124,-1.9207,-1.9332,-1.9332,-1.9207,-1.8997,-1.8988,-1.9101,-1.8827,-1.8736,-1.8784,-1.8784,-1.9035,-1.9551,-2.0162,-2.0288,-2.0164,-2.0761,-2.0923,-2.0714,-1.9853,-2.0033,-2.0689,-1.9741,-1.952,-1.9287,-1.7922,-1.7842,-1.7788,-1.7788,-1.7747,-1.7625,-1.7406,-1.7144,-1.6795,-1.6151,-1.5623,-1.513,-1.4651,-1.4326,-1.414,-1.414,-1.4233,-1.4291,-1.4291,-1.4477,-1.4691,-1.4788,-1.4751,-1.4799,-1.499,-1.4904,-1.4978,-1.5303,-1.5108,-1.5165,-1.5447,-1.587,-1.6197,-1.6514,-1.7087,-1.7472,-1.769,-1.7486,-1.7405,-1.7414,-1.7264,-1.72,-1.7288,-1.7362,-1.7406,-1.748,-1.7597,-1.7615,-1.7631,-1.776,-1.7868,-1.8069,-1.8439,-1.8711,-1.8903,-1.8941,-1.8965,-1.9026,-1.9139,-1.9191,-1.9168,-1.9031,-1.9055,-1.9078,-1.9101,-1.9176,-1.9228,-1.9228,-1.9302,-1.9339,-1.9376,-1.9376,-1.9376,-1.9413,-1.9413,-1.9487,-1.9678,-1.9509,-1.945,-1.9678,-1.959,-1.9508,-1.9538,-1.9632,-1.9654,-1.9617,-1.9654,-1.9654,-1.953,-1.9654,-1.9762,-1.9839,-1.9675,-1.9624,-1.9609,-1.9384,-1.9078,-1.8659,-1.8673,-1.8711,-1.8736,-1.9087,-1.9427,-1.9808,-2.0516,-2.1005,-2.1354,-2.2108,-2.216,-2.1744,-2.1353,-2.1043,-2.07,-1.9892,-1.9052,-1.8037,-1.8163,-1.8083,-1.8003,-1.8003,-1.7963,-1.7842,-1.7693,-1.7475,-1.7131,-1.6497,-1.5964,-1.5433,-1.4915,-1.4605,-1.4373,-1.4373,-1.4466,-1.4558,-1.4651,-1.4789,-1.4891,-1.4937,-1.48,-1.48,-1.4937,-1.4754,-1.4891,-1.539,-1.4971,-1.4971,-1.5334,-1.5418,-1.566,-1.5997,-1.6397,-1.6774,-1.7146,-1.6848,-1.6891,-1.7131,-1.6832,-1.6833,-1.696,-1.7044,-1.7115,-1.724,-1.7434,-1.757,-1.7693,-1.7975,-1.8214,-1.8503,-1.875,-1.8917,-1.8993,-1.9017,-1.9116,-1.9176,-1.9302,-1.9339,-1.9302,-1.9205,-1.9191,-1.9213,-1.9213,-1.9302,-1.9339,-1.9339,-1.9376,-1.9413,-1.9465,-1.9501,-1.9487,-1.9523,-1.9617,-1.969,-1.956,-1.9617,-1.9617,-1.9523,-1.9617,-1.9654,-1.9632,-1.9762,-1.9797,-1.9762,-1.996,-2.003,-1.9884,-1.9955,-2.0025,-2.01,-1.9833,-1.9675,-1.9639,-1.9362,-1.904,-1.8736,-1.8711,-1.8774,-1.8988,-1.9354,-1.9829,-2.0382,-2.0991,-2.1665,-2.231,-2.2884,-2.3131,-2.307,-2.2569,-2.1985,-2.1274,-1.9887,-1.8657,-1.74,-1.8517,-1.8361,-1.8242,-1.8242,-1.8083,-1.7963,-1.7922,-1.7882,-1.772,-1.7363,-1.6582,-1.5952,-1.5591,-1.4915,-1.4466,-1.4466,-1.4605,-1.4834,-1.5108,-1.5108,-1.5165,-1.5312,-1.5267,-1.5267,-1.5267,-1.4846,-1.4891,-1.5424,-1.449,-1.4398,-1.5062,-1.4651,-1.4697,-1.5108,-1.5322,-1.568,-1.6188,-1.5969,-1.6306,-1.6876,-1.665,-1.6735,-1.7044,-1.7157,-1.7365,-1.7516,-1.7557,-1.7733,-1.7989,-1.824,-1.8553,-1.8836,-1.8941,-1.8993,-1.8979,-1.9078,-1.9176,-1.9265,-1.9302,-1.9376,-1.9413,-1.9413,-1.9413,-1.9413,-1.9413,-1.9413,-1.9413,-1.9413,-1.9413,-1.945,-1.9574,-1.9611,-1.9647,-1.969,-1.9945,-2.005,-1.9747,-1.994,-1.9995,-1.9726,-1.9925,-2.001,-1.9747,-2.0015,-2.012,-1.9833,-2.0224,-2.0326,-2.0041,-2.0041,-2.0096,-2.017,-1.9889,-1.9654,-1.9472,-1.9087,-1.8936,-1.9026,-1.8851,-1.895,-1.9406,-1.9671,-2.0249,-2.1055,-2.1592,-2.2265,-2.3053,-2.3307,-2.384,-2.4389,-2.3426,-2.2714,-2.1971,-1.9644,-1.8164,-1.6942,-1.8517,-1.8478,-1.8439,-1.8439,-1.84,-1.8321,-1.8163,-1.772,-1.7256,-1.6778,-1.6107,-1.5579,-1.5232,-1.5062,-1.4971,-1.4971,-1.4971,-1.5062,-1.5267,-1.5267,-1.53,-1.5424,-1.5142,-1.5051,-1.5153,-1.4812,-1.4686,-1.4651,-1.4419,-1.4501,-1.4801,-1.4915,-1.5051,-1.5266,-1.578,-1.6132,-1.6281,-1.6607,-1.6833,-1.696,-1.7031,-1.7073,-1.7199,-1.7352,-1.7475,-1.7557,-1.7909,-1.8135,-1.8279,-1.8592,-1.8798,-1.8941,-1.8993,-1.8812,-1.8669,-1.9139,-1.9026,-1.886,-1.9376,-1.9538,-1.9574,-1.9617,-1.9617,-1.9581,-1.945,-1.9501,-1.9574,-1.9574,-1.9596,-1.9654,-1.9654,-1.969,-1.969,-1.969,-1.9797,-1.9818,-1.9726,-1.9884,-1.9955,-1.9726,-1.9884,-2.0045,-2.0085,-2.0258,-2.0239,-1.999,-2.0115,-2.017,-2.008,-2.0426,-2.0628,-2.0662,-2.0124,-1.9949,-2.0124,-1.9281,-1.8798,-1.862,-1.8936,-1.9132,-1.9281,-2.028,-2.0894,-2.1272,-2.2302,-2.2909,-2.3302,-2.3971,-2.4308,-2.4301,-2.3043,-2.2013,-2.0961,-1.8715,-1.6693,-1.4789,-1.8517,-1.8517,-1.8517,-1.8517,-1.8307,-1.8135,-1.8016,-1.7585,-1.7089,-1.6723,-1.6238,-1.5844,-1.5546,-1.5379,-1.5289,-1.5289,-1.5289,-1.5334,-1.539,-1.5435,-1.5525,-1.5659,-1.5501,-1.5355,-1.5266,-1.5152,-1.4926,-1.4547,-1.4362,-1.449,-1.4903,-1.5085,-1.5311,-1.5567,-1.5856,-1.6207,-1.6497,-1.6565,-1.6863,-1.724,-1.7144,-1.7269,-1.7543,-1.7666,-1.7774,-1.7908,-1.8175,-1.8279,-1.8344,-1.85,-1.863,-1.8774,-1.8812,-1.8836,-1.8936,-1.9265,-1.9213,-1.9139,-1.9501,-1.9611,-1.9669,-1.969,-1.969,-1.969,-1.956,-1.9596,-1.9632,-1.9632,-1.969,-1.9762,-1.9762,-1.9797,-1.9848,-1.9848,-2.001,-2.008,-1.9884,-2.008,-2.0185,-2.0085,-2.0154,-2.0273,-2.0345,-2.0429,-2.0376,-2.008,-2.0444,-2.0597,-2.0444,-2.053,-2.063,-2.0794,-2.005,-1.9823,-2.0208,-1.9588,-1.9295,-1.9361,-1.9492,-1.9743,-2.0108,-2.0943,-2.1619,-2.215,-2.2842,-2.3399,-2.3861,-2.4283,-2.4508,-2.4434,-2.2874,-2.1559,-2.0232,-1.7574,-1.5147,-1.2995,-1.8517,-1.8517,-1.8478,-1.8386,-1.8055,-1.7787,-1.772,-1.7352,-1.6976,-1.6752,-1.6398,-1.6107,-1.5944,-1.5691,-1.5513,-1.5513,-1.5513,-1.5558,-1.5558,-1.5659,-1.5804,-1.5881,-1.5824,-1.5668,-1.5344,-1.5332,-1.5141,-1.4744,-1.4468,-1.4571,-1.5142,-1.5254,-1.5466,-1.57,-1.5876,-1.6194,-1.6595,-1.6491,-1.6863,-1.7475,-1.7173,-1.7393,-1.7882,-1.7788,-1.7922,-1.8187,-1.8187,-1.8226,-1.8305,-1.8422,-1.8539,-1.8669,-1.8707,-1.8936,-1.9228,-1.9376,-1.9465,-1.9487,-1.9611,-1.9669,-1.969,-1.969,-1.969,-1.969,-1.969,-1.9726,-1.9726,-1.9726,-1.9762,-1.9848,-1.9848,-1.9919,-2.0005,-2.0005,-2.022,-2.0357,-2.0131,-2.0357,-2.0545,-2.0514,-2.0514,-2.0481,-2.0462,-2.063,-2.0563,-2.0239,-2.0878,-2.115,-2.0827,-2.0581,-2.0565,-2.0811,-2.0085,-1.9874,-2.0361,-2.0085,-2.0158,-2.0569,-2.0473,-2.0702,-2.1163,-2.1707,-2.2332,-2.3084,-2.3376,-2.3814,-2.4374,-2.4432,-2.4422,-2.4173,-2.2534,-2.097,-1.927,-1.6218,-1.3535,-1.1414,-1.8517,-1.8517,-1.8386,-1.7962,-1.7828,-1.7679,-1.7323,-1.6795,-1.6411,-1.6355,-1.5932,-1.5603,-1.5558,-1.5513,-1.5513,-1.5513,-1.5614,-1.5715,-1.5748,-1.5869,-1.6001,-1.6144,-1.5457,-1.504,-1.4949,-1.4455,-1.4501,-1.5062,-1.505,-1.5152,-1.5344,-1.5611,-1.5611,-1.54,-1.6238,-1.6466,-1.6318,-1.7018,-1.7393,-1.7475,-1.7269,-1.7447,-1.7828,-1.7297,-1.7421,-1.7747,-1.7639,-1.7908,-1.8383,-1.8822,-1.9064,-1.9176,-1.9176,-1.9064,-1.895,-1.9413,-1.931,-1.9095,-1.9566,-1.969,-1.969,-1.969,-1.969,-1.969,-1.969,-1.9726,-1.9797,-1.9797,-1.9884,-1.997,-1.997,-2.0005,-2.0005,-2.0005,-2.0096,-2.0239,-2.0429,-2.0613,-2.0679,-2.0514,-2.0496,-2.0444,-2.0323,-2.0811,-2.1007,-2.0728,-2.1087,-2.115,-2.0827,-2.1023,-2.1103,-2.0975,-2.0797,-2.0911,-2.1399,-2.1007,-2.107,-2.1598,-2.2088,-2.2131,-2.1809,-2.2496,-2.3019,-2.3385,-2.3992,-2.4244,-2.4245,-2.4608,-2.383,-2.2374,-2.1445,-1.9536,-1.7042,-1.4467,-1.1921,-0.9731,-1.8517,-1.8517,-1.8439,-1.8214,-1.7814,-1.7393,-1.724,-1.6582,-1.6107,-1.6107,-1.6001,-1.5881,-1.5881,-1.5881,-1.5881,-1.5881,-1.5925,-1.5969,-1.6013,-1.5869,-1.5812,-1.5869,-1.5322,-1.5006,-1.5006,-1.4915,-1.504,-1.5389,-1.5299,-1.5209,-1.5119,-1.5724,-1.5944,-1.5824,-1.6262,-1.6349,-1.6293,-1.6667,-1.6964,-1.7131,-1.731,-1.7598,-1.7975,-1.7962,-1.8161,-1.8411,-1.8397,-1.8422,-1.85,-1.8745,-1.8898,-1.9026,-1.9072,-1.9161,-1.9265,-1.9302,-1.9176,-1.9072,-1.931,-1.9347,-1.9435,-1.9654,-1.9726,-1.9726,-1.956,-1.9654,-1.9726,-1.9596,-1.969,-1.9848,-1.9848,-1.9869,-1.996,-2.0131,-2.02,-2.0254,-2.0376,-2.046,-2.0561,-2.0679,-2.0828,-2.0926,-2.0861,-2.1087,-2.1135,-2.0827,-2.1456,-2.1697,-2.1379,-2.1949,-2.2293,-2.2377,-2.1842,-2.1811,-2.233,-2.1945,-2.1595,-2.1256,-2.2579,-2.2959,-2.2546,-2.3195,-2.367,-2.3985,-2.4261,-2.4414,-2.4363,-2.3592,-2.2086,-2.0033,-1.7786,-1.4741,-1.1528,-1.1199,-0.9762,-0.7944]}]]